GEFSMA_500_meanwind_000.txt.gz
Wind_Speed
24 28 31 32 32 31 31 31 31 33 34 35 35 35 36 35 36 35 32 29 26 25 23 23 23 23 23 23 23 25 26 28 31 32 32 32 34 35 37 39 42 45 46
25 29 32 33 32 31 31 32 32 33 34 35 36 36 36 36 37 36 35 32 28 29 29 28 28 28 28 29 30 31 32 33 34 34 35 35 37 38 40 42 45 46 47
27 30 32 34 33 33 32 31 33 34 36 37 37 37 37 36 37 37 37 36 32 30 33 33 33 34 34 35 36 38 38 39 40 39 39 40 40 41 42 45 46 47 48
30 32 33 35 34 34 34 33 33 35 37 37 38 38 38 37 38 37 37 39 36 32 34 37 37 39 40 40 41 42 43 44 46 45 44 44 43 44 46 48 48 48 49
34 34 35 36 36 36 36 35 36 37 39 39 39 40 40 40 39 39 39 40 39 38 37 37 41 42 43 44 45 45 46 47 49 49 48 47 48 49 50 50 49 50 51
37 38 39 39 39 39 40 40 40 41 42 43 43 42 41 41 40 41 42 41 40 41 41 39 41 44 46 46 47 49 49 51 50 50 49 49 50 50 50 50 50 51 53
40 41 43 43 43 43 43 45 45 44 44 46 46 46 45 43 42 43 43 43 42 42 44 42 42 44 46 47 48 48 47 46 46 47 48 49 48 49 50 49 51 53 54
43 45 46 48 49 48 47 47 47 46 45 46 47 49 48 46 45 45 44 43 43 44 45 43 43 45 47 48 48 48 49 47 46 47 47 47 48 48 48 51 53 54 55
48 48 50 51 53 53 52 51 52 52 51 50 50 50 50 49 49 48 46 44 44 44 45 43 43 45 47 47 48 48 48 47 46 46 45 46 46 46 49 54 56 55 55
53 54 55 56 57 57 56 55 55 55 55 54 54 54 53 51 50 49 47 46 46 46 45 43 43 44 46 46 47 47 45 44 45 45 46 45 46 49 53 56 57 57 58
57 58 59 59 60 61 61 60 60 59 59 59 58 57 55 54 52 50 47 47 46 46 45 42 42 44 45 45 45 45 43 43 44 46 45 44 48 53 55 57 58 58 59
59 60 61 61 62 62 63 64 65 64 63 62 61 60 59 59 54 52 50 48 46 43 44 41 40 42 44 44 42 44 44 44 45 45 44 46 50 53 55 59 59 58 61
59 60 62 63 64 65 65 67 68 67 66 66 64 64 62 62 59 55 51 48 47 45 43 38 38 40 44 44 41 42 44 44 45 44 46 51 53 57 58 60 60 60 62
61 63 65 67 68 69 70 71 72 71 72 73 72 67 63 59 55 53 49 49 48 47 43 37 37 40 43 43 40 42 43 44 43 44 48 52 57 60 62 62 61 62 64
63 64 65 66 68 70 72 73 74 74 74 73 72 70 65 58 50 48 48 49 47 47 43 38 38 39 42 41 39 42 42 42 43 47 50 53 60 59 61 62 62 63 65
64 65 66 68 70 73 75 77 76 73 72 69 68 65 60 55 49 46 47 46 46 45 45 42 41 40 40 39 39 42 41 43 46 49 52 56 58 59 61 62 62 64 65
64 66 69 71 74 75 76 78 75 73 70 66 64 61 53 44 44 46 46 46 45 45 47 44 43 42 41 39 42 42 42 47 49 51 56 59 58 60 62 61 63 65 66
67 68 71 73 74 74 76 77 76 72 67 61 58 56 50 45 45 46 45 44 44 44 46 45 43 43 41 41 42 41 44 48 52 54 58 57 59 61 62 62 64 64 68
72 72 73 74 74 73 73 73 72 69 65 60 54 53 51 48 47 47 48 47 45 44 43 44 45 42 42 42 42 43 45 48 51 55 57 56 60 62 61 62 63 65 71
76 77 79 79 78 76 74 72 70 69 66 63 58 55 54 50 48 49 47 47 45 42 42 43 43 42 44 41 44 43 45 47 50 53 55 56 60 62 61 62 64 68 71
77 79 80 80 80 79 76 73 71 67 66 66 64 60 57 51 48 49 48 51 48 43 42 41 40 43 44 42 45 42 44 47 50 54 56 57 60 61 61 62 64 69 68
74 77 79 80 80 78 74 71 70 68 66 68 68 62 61 55 49 49 49 53 48 45 42 42 43 44 44 44 43 41 45 47 50 53 56 59 62 62 61 62 66 68 62
72 74 76 77 77 74 70 69 71 72 70 68 64 61 62 59 52 49 49 51 46 45 43 46 45 45 45 44 42 43 46 49 51 53 57 60 62 61 61 63 67 63 58
66 69 71 72 71 68 68 69 68 70 71 68 65 60 60 57 52 48 48 50 46 44 44 45 45 45 44 42 42 44 46 48 52 55 58 61 62 61 62 65 65 59 54
64 65 66 67 68 66 64 62 61 64 65 61 61 57 52 51 47 46 46 47 47 44 45 49 47 46 44 41 41 44 46 51 53 54 58 60 61 61 63 65 62 55 46
64 64 63 65 67 65 61 56 54 60 61 55 52 49 42 44 42 40 44 45 45 45 45 49 47 46 44 41 40 43 46 49 51 54 57 58 59 61 63 64 60 51 38

GEFSMA_500_meanwind_006.txt.gz
Wind_Speed
29 28 28 28 28 30 31 33 33 34 35 34 34 35 35 36 38 39 40 41 41 41 41 41 41 40 39 38 38 40 41 42 43 43 43 45 46 46 45 44 44 44 45
31 31 31 32 32 33 35 37 38 38 39 39 40 40 40 40 40 41 41 42 43 44 43 43 42 42 42 42 42 41 41 41 43 45 46 48 49 50 49 48 47 46 45
32 32 33 34 35 35 36 39 41 42 42 43 44 44 44 44 44 44 44 44 45 46 46 46 45 44 43 43 45 45 44 40 39 40 43 44 44 45 45 45 47 47 47
32 33 35 37 38 38 38 40 43 44 45 45 47 48 48 48 47 47 47 47 47 48 48 49 49 48 46 46 46 48 48 47 44 42 42 42 42 43 44 45 46 46 46
36 37 38 39 41 41 41 43 45 46 47 47 49 50 51 50 49 49 49 49 50 51 51 52 52 51 50 49 48 48 48 49 47 45 44 44 44 44 44 43 42 41 40
40 40 41 43 44 44 44 47 47 48 49 51 52 52 52 51 51 51 52 52 53 53 54 55 55 53 52 51 51 49 48 47 47 45 44 45 46 45 43 41 40 38 37
42 43 44 46 47 47 48 50 52 52 52 53 54 55 55 54 53 55 55 56 55 56 57 58 59 58 56 54 52 50 48 46 45 45 44 45 45 44 41 40 39 39 38
44 45 46 48 49 50 51 53 56 56 55 55 56 57 58 56 55 56 56 57 56 57 59 61 62 62 61 59 54 51 49 45 44 44 43 44 44 42 40 41 41 41 41
45 46 47 49 50 52 53 54 56 58 58 58 59 60 61 61 59 57 56 56 57 59 62 63 62 61 61 62 59 55 50 45 43 43 43 44 44 43 42 44 44 44 44
43 45 47 50 52 54 55 56 58 60 61 62 63 64 64 64 65 64 61 60 61 62 62 64 63 60 59 59 59 55 49 46 44 44 44 45 45 44 45 47 47 47 47
49 51 54 57 59 60 61 62 62 63 64 65 66 66 66 65 63 65 65 64 66 65 63 61 59 58 59 59 56 52 49 48 45 44 46 46 44 44 47 48 48 49 49
56 57 59 61 62 63 64 65 65 65 66 67 67 67 68 67 65 66 68 68 69 65 62 59 57 55 56 58 56 52 49 48 45 45 46 46 44 44 48 49 49 49 50
58 59 61 62 63 63 64 65 67 67 67 68 69 69 70 70 70 70 70 69 68 64 62 58 56 54 52 55 55 53 49 46 44 44 45 46 45 47 49 49 49 50 52
63 64 65 66 65 66 67 68 69 69 69 70 70 71 72 72 73 73 72 69 69 67 61 56 53 51 49 52 52 51 50 45 42 43 45 46 47 49 50 49 50 51 54
68 68 68 68 68 68 68 69 70 70 70 71 73 74 75 75 75 75 73 70 69 69 62 55 54 52 50 52 51 50 50 46 43 43 45 47 48 50 51 52 53 55 57
66 65 65 65 66 67 69 71 73 73 74 74 75 76 76 76 76 75 74 71 67 65 63 55 55 55 54 54 51 49 49 47 45 44 46 48 49 52 53 53 53 54 56
64 66 68 69 70 71 73 75 76 77 78 78 78 78 77 76 75 75 74 70 67 64 63 58 57 57 57 56 52 49 49 49 47 46 47 48 50 53 53 51 51 53 56
69 70 70 72 73 75 76 78 79 80 81 81 82 82 81 78 76 75 74 72 69 65 64 60 57 58 58 57 54 50 49 50 49 48 47 48 50 52 51 50 51 53 57
72 73 73 74 75 76 77 78 79 80 82 83 84 84 83 82 80 78 76 75 72 68 64 61 58 59 59 58 55 52 50 49 50 50 49 49 49 49 49 50 52 55 58
73 73 74 75 76 77 78 79 80 81 82 83 84 83 82 82 80 78 77 74 70 66 61 60 58 57 58 56 56 54 51 48 48 49 50 48 46 47 47 49 52 56 58
75 75 75 76 77 78 80 81 83 84 84 84 82 80 79 79 77 75 74 71 65 61 58 59 57 55 55 54 55 54 49 46 47 49 51 46 44 46 47 50 53 56 57
76 77 77 78 79 80 82 83 84 84 84 83 81 79 77 76 74 71 69 64 59 57 56 57 57 56 54 53 53 52 47 45 45 48 48 45 44 45 47 51 53 55 57
76 77 78 79 80 80 80 81 81 81 82 82 81 79 76 73 71 68 65 60 56 54 55 56 56 54 53 51 52 51 45 42 44 45 45 44 45 46 49 51 53 56 57
78 78 78 78 78 77 78 78 79 79 79 79 78 77 76 74 71 66 62 58 54 53 52 52 51 50 49 49 49 47 42 40 43 45 46 47 46 47 48 50 53 56 56
77 76 75 74 74 74 74 76 78 79 79 78 77 75 74 72 67 62 58 54 51 49 48 47 45 45 46 47 45 44 42 40 40 43 45 45 44 45 48 51 54 55 54
72 73 73 73 74 74 76 78 81 82 81 80 76 73 69 65 60 56 54 51 47 45 44 44 43 43 43 43 41 41 39 37 37 41 42 42 42 45 50 53 55 54 53

GEFSMA_500_meanwind_012.txt.gz
Wind_Speed
36 38 39 39 40 39 38 39 40 40 39 38 38 39 39 39 39 38 39 39 40 41 41 41 42 42 43 43 43 43 43 43 44 44 45 47 48 48 49 50 51 51 50
39 39 40 41 41 41 40 41 42 43 43 43 43 43 44 44 44 44 44 44 43 43 43 43 43 44 45 45 45 45 44 43 44 45 46 47 48 49 50 51 53 53 52
38 39 41 41 42 41 41 42 44 45 47 47 48 49 49 49 48 48 48 48 47 46 45 45 45 46 47 47 47 46 45 45 46 46 47 48 49 50 51 52 53 54 54
37 38 39 40 41 41 42 43 44 46 49 50 52 53 53 53 52 51 50 51 50 50 49 48 48 49 49 49 49 48 47 47 47 47 48 48 49 50 51 53 54 55 54
35 36 37 38 40 41 42 44 46 47 49 51 54 55 55 55 54 52 52 53 53 53 53 51 51 51 51 51 51 51 50 50 48 47 47 48 48 49 51 53 54 55 54
34 35 36 38 41 42 43 45 47 49 50 52 55 56 56 57 55 54 56 57 57 57 56 53 53 53 53 52 53 52 52 50 48 47 46 47 47 48 49 51 53 53 52
35 36 37 39 41 42 43 44 47 48 50 53 55 57 58 58 57 57 59 60 59 59 58 56 55 54 53 53 53 53 52 49 47 46 46 46 46 46 47 48 50 51 51
40 42 43 45 47 48 49 51 52 54 54 56 58 61 61 60 58 61 62 62 61 61 59 58 56 55 54 53 53 53 51 48 46 45 45 45 45 45 44 45 47 48 49
46 49 50 52 53 54 55 56 58 59 60 60 61 64 66 65 63 61 62 63 62 61 59 59 58 57 55 54 53 53 52 49 47 45 44 44 43 43 42 43 44 45 47
51 53 54 55 56 58 59 60 62 63 64 64 64 66 68 70 71 69 64 63 64 63 61 60 59 57 55 54 55 54 53 50 46 44 43 43 43 42 41 41 42 44 46
53 55 57 59 60 62 64 65 67 68 69 70 71 71 71 72 72 74 72 66 64 63 61 61 59 57 55 54 54 53 53 50 45 43 42 42 42 41 40 40 42 44 45
57 59 61 63 64 65 67 68 69 70 71 72 72 72 71 70 68 68 69 67 64 60 59 60 60 58 56 54 53 53 53 50 45 43 43 43 42 41 40 40 41 43 45
59 61 62 64 65 66 67 68 68 69 69 70 70 70 69 68 67 65 65 65 64 63 61 61 59 59 58 56 55 54 54 52 47 44 44 45 44 42 40 39 40 43 45
61 63 65 67 69 70 71 72 73 73 74 74 74 74 74 74 73 72 70 69 68 67 65 64 61 60 60 60 58 57 56 54 51 47 46 46 46 44 42 40 41 43 45
65 67 70 72 74 76 77 78 79 79 80 80 80 80 79 78 78 77 76 75 75 74 72 69 67 64 62 62 60 60 58 55 53 51 49 48 46 45 44 42 42 43 46
71 74 76 78 80 82 83 83 84 84 84 84 84 83 82 81 80 79 79 78 78 79 79 74 71 69 66 65 63 61 59 57 55 53 51 49 47 46 46 46 45 46 48
78 80 82 84 86 87 88 88 88 88 88 86 85 84 84 83 82 81 80 79 78 77 79 76 71 68 65 63 60 59 58 57 55 53 51 50 49 47 47 47 48 48 50
85 88 90 91 91 91 91 91 90 89 88 86 85 84 83 81 80 79 78 77 76 75 75 75 70 65 62 59 58 57 56 55 54 53 52 51 50 49 47 47 49 50 52
93 95 96 96 95 93 92 91 90 88 86 84 82 81 80 79 78 76 75 73 73 72 72 72 69 64 60 56 56 55 53 53 53 53 52 52 51 49 47 47 48 51 52
98 98 97 95 93 91 89 87 86 84 82 79 78 78 77 77 76 75 74 72 71 71 69 69 67 63 59 56 56 54 53 51 51 52 53 53 52 49 47 46 48 50 51
100 98 95 91 88 85 82 81 79 78 76 75 74 73 73 73 73 74 73 72 71 70 68 67 65 62 58 56 55 54 53 51 51 52 53 54 52 50 49 47 47 50 52
94 91 87 83 79 77 75 75 74 73 73 73 73 72 72 72 73 73 73 72 71 71 69 68 65 62 58 56 55 55 54 52 51 51 53 51 50 49 48 46 48 50 52
82 78 75 73 72 71 72 72 73 74 74 75 76 75 74 74 76 77 76 74 73 73 73 72 69 65 62 58 58 56 54 53 51 51 52 50 49 49 50 49 49 49 51
71 69 69 69 69 71 73 75 77 79 80 81 82 82 81 79 80 81 80 78 75 73 72 73 72 68 65 61 58 56 54 53 51 50 49 47 46 47 46 45 46 48 49
67 67 69 71 74 76 80 82 84 84 84 84 84 83 82 80 78 79 78 76 73 70 68 68 67 65 62 58 56 54 52 50 49 47 45 45 44 43 43 44 46 46 47
70 72 75 78 81 84 86 87 88 88 86 84 80 76 74 72 69 68 68 67 65 62 60 58 56 55 53 51 49 48 46 45 44 44 43 43 42 41 40 40 41 42 43

GEFSMA_500_meanwind_018.txt.gz
Wind_Speed
37 39 40 41 42 43 43 43 44 45 45 45 46 46 46 46 46 47 49 50 52 53 54 55 55 55 55 54 53 52 50 48 48 48 48 48 48 48 47 45 43 41 41
41 41 42 42 42 41 40 40 41 42 43 44 45 45 46 46 47 48 49 50 51 52 53 54 55 56 56 55 54 53 52 51 50 50 50 50 50 50 50 49 46 44 43
41 41 40 40 40 39 38 39 39 40 41 42 43 44 45 46 47 48 50 50 51 52 53 54 55 56 56 56 55 54 53 52 52 52 52 52 51 51 51 51 49 47 45
39 38 37 36 37 37 37 37 38 39 40 41 43 44 45 46 47 48 50 51 52 53 54 55 56 56 56 56 56 56 55 54 54 54 53 53 52 52 51 51 51 48 47
36 35 34 35 35 35 36 38 39 41 42 44 46 47 48 49 51 52 53 54 56 57 57 59 60 60 59 59 59 59 58 57 55 54 54 53 52 52 51 51 50 49 48
34 34 34 35 37 38 39 42 44 45 47 49 51 51 51 52 53 54 56 58 59 60 62 63 63 64 64 63 63 62 61 59 57 55 54 54 53 52 51 50 49 48 48
35 36 37 39 41 42 44 46 49 50 52 55 57 57 57 57 58 58 60 61 62 62 64 65 66 66 66 66 66 65 63 61 59 57 56 55 54 52 51 50 48 48 48
38 40 41 43 45 47 49 51 54 56 57 59 61 63 63 61 59 60 61 62 62 63 63 64 64 65 65 66 66 66 65 63 61 59 57 56 54 53 50 48 47 47 47
42 44 46 48 50 52 54 55 57 59 60 60 62 65 67 67 66 63 63 63 64 65 65 66 66 66 66 66 65 64 64 63 61 59 58 56 54 52 49 47 46 46 47
46 48 50 52 53 55 56 57 59 61 62 63 65 67 69 72 73 73 71 71 70 70 69 69 69 68 68 67 66 64 63 62 61 60 58 56 54 52 49 48 47 47 47
49 51 52 54 56 58 59 61 63 65 67 69 71 73 75 77 80 83 82 81 81 80 79 77 74 72 69 69 68 67 66 65 65 63 61 59 57 55 52 51 49 48 49
51 53 56 59 61 63 66 68 70 73 75 77 79 81 84 86 87 90 91 90 90 88 87 85 83 79 75 72 71 70 69 68 68 67 65 63 61 59 56 54 53 51 51
55 58 61 64 67 70 72 75 77 79 81 83 85 88 90 93 95 96 98 99 98 95 93 90 87 85 81 78 74 72 72 71 70 69 67 66 64 62 59 57 55 54 52
61 64 67 70 73 75 78 80 82 84 86 89 91 94 96 98 99 99 99 101 102 100 96 92 87 83 81 79 78 76 75 73 73 72 71 68 66 64 63 60 58 55 54
68 71 74 76 78 80 82 84 87 89 92 95 97 99 100 101 100 98 96 93 93 96 95 88 83 79 77 76 75 76 75 75 74 74 74 72 69 66 64 61 59 56 55
73 76 78 81 83 85 87 90 92 95 97 99 101 102 101 99 96 91 86 82 80 81 83 77 73 70 68 68 68 71 73 73 73 73 74 75 73 71 68 65 61 58 56
78 80 82 84 86 89 92 94 97 99 100 101 101 99 96 92 86 81 76 72 71 73 75 70 67 65 64 65 65 67 69 70 70 70 71 72 72 71 69 67 65 62 59
81 83 85 87 90 92 95 97 99 100 100 99 96 92 87 82 77 73 71 70 70 72 74 73 68 66 65 65 66 66 66 67 67 67 67 67 67 68 68 67 66 65 63
82 85 88 90 93 95 98 99 99 98 96 92 89 84 81 78 76 74 74 74 75 75 77 79 76 72 70 68 69 68 67 66 65 64 64 63 63 64 65 66 66 66 65
85 88 91 94 96 97 98 97 95 92 88 85 83 81 81 81 81 82 81 82 83 83 83 85 84 81 77 74 74 73 70 67 65 63 62 62 61 62 63 64 65 65 65
89 92 94 96 96 95 93 91 89 86 85 84 83 84 86 87 88 90 90 90 90 91 90 90 89 86 82 78 77 75 74 69 65 64 63 61 61 61 60 61 63 64 65
91 93 94 94 92 90 88 87 88 88 88 89 89 89 90 91 92 93 94 94 94 94 93 91 88 85 80 75 73 71 71 69 64 61 63 60 60 59 59 60 61 62 63
92 92 91 89 87 86 86 88 90 92 92 91 90 89 87 86 87 88 87 87 86 84 84 83 80 75 70 65 63 61 62 62 60 58 61 58 58 57 57 59 59 59 60
90 89 87 85 84 85 88 91 92 90 87 83 80 78 76 74 73 74 73 71 69 65 64 64 63 61 58 54 51 50 51 53 54 54 57 56 56 57 57 57 57 57 56
85 83 82 83 84 87 90 90 88 83 78 73 70 69 68 65 63 62 61 58 53 49 47 47 47 47 46 43 41 40 40 43 44 46 51 54 54 55 55 55 54 54 54
82 80 80 84 88 90 88 85 81 77 73 69 65 62 60 58 55 53 51 48 43 38 34 32 32 33 33 32 31 31 32 33 35 36 40 46 48 50 51 50 50 50 49

GEFSMA_500_meanwind_024.txt.gz
Wind_Speed
28 30 32 34 36 38 40 41 41 41 41 41 41 41 42 42 43 44 44 45 46 46 47 48 49 50 50 51 51 52 52 53 52 52 51 50 49 48 47 46 45 45 45
29 31 34 36 37 39 40 40 39 38 37 38 38 39 39 40 41 43 44 45 46 47 48 49 50 51 52 53 54 54 55 55 55 54 54 53 53 52 51 51 50 49 48
31 33 35 37 37 38 38 38 37 37 37 38 39 40 41 43 45 46 48 49 50 51 52 54 55 55 56 56 57 57 57 57 57 57 56 56 56 56 56 55 55 54 53
33 35 36 36 37 37 38 38 39 39 40 41 42 44 45 47 48 50 52 53 54 54 55 56 57 58 58 58 58 59 59 59 59 59 59 58 58 59 59 58 58 57 56
36 37 37 37 38 38 39 40 41 43 44 45 46 47 49 50 51 52 54 55 57 58 58 59 60 61 61 61 61 61 60 60 60 60 60 59 59 59 60 60 60 60 59
39 39 39 39 40 41 41 42 44 45 47 48 49 50 51 52 54 56 57 59 60 61 63 64 65 65 65 66 66 66 65 65 64 63 63 62 61 61 61 61 60 60 60
40 41 41 41 42 43 43 45 46 47 49 51 52 53 55 56 58 60 62 64 66 67 68 70 71 71 72 72 72 73 73 73 71 70 69 67 66 65 65 64 63 62 62
41 41 42 42 43 44 45 46 48 49 51 54 57 59 60 61 63 65 67 68 70 72 73 74 75 76 77 78 78 78 79 79 78 77 75 74 72 71 69 68 67 66 65
41 42 43 44 44 46 47 49 51 54 56 59 62 66 68 70 70 69 71 73 74 75 76 78 79 80 82 82 83 83 83 83 83 83 82 80 78 76 73 70 68 68 68
42 43 44 45 46 48 50 53 56 59 62 65 67 70 74 77 79 79 79 80 81 81 81 82 83 85 87 88 88 88 87 87 87 87 86 85 83 79 75 72 71 70 70
43 44 46 47 49 52 55 59 62 66 69 72 74 76 78 80 82 85 86 86 87 87 88 88 90 91 92 93 94 93 92 90 88 86 86 86 85 81 76 75 74 73 73
45 47 49 51 54 58 61 65 68 71 73 76 78 81 83 85 86 88 89 89 90 91 92 94 95 97 98 99 97 95 93 90 87 85 84 86 87 86 82 79 77 77 77
47 50 53 56 60 64 67 70 73 75 77 79 82 84 86 88 91 93 96 96 97 96 97 98 100 102 103 102 99 94 90 86 85 83 83 83 86 89 89 87 84 81 80
50 54 58 62 65 69 72 74 76 78 80 82 84 87 89 91 94 97 100 103 105 104 103 102 102 103 103 100 96 90 85 80 77 77 78 79 82 86 89 91 89 86 83
56 60 63 67 70 72 74 77 79 81 83 85 87 90 92 94 97 100 102 104 107 109 107 102 98 96 96 94 90 86 82 76 72 70 70 70 72 76 81 87 91 91 88
61 65 68 71 73 75 77 80 82 84 86 88 90 92 95 98 100 101 102 103 103 104 103 96 91 86 87 88 88 86 84 79 74 70 68 67 66 66 68 73 81 89 92
66 69 71 73 75 78 80 82 84 86 89 91 93 96 98 100 101 101 100 99 98 98 98 92 86 82 80 81 83 85 85 83 80 76 72 70 67 65 64 64 67 75 84
69 71 74 76 78 81 83 85 86 89 91 93 96 98 99 99 99 98 96 94 93 92 92 88 81 77 74 73 75 77 78 80 81 80 78 75 72 69 66 64 63 65 70
72 74 77 79 80 82 84 87 89 91 93 95 97 98 97 96 94 93 91 89 87 85 83 82 78 74 70 68 69 70 71 73 76 78 80 80 77 74 71 67 65 64 64
74 77 78 80 82 84 87 89 91 93 95 95 95 94 92 91 90 89 87 84 81 77 75 74 72 69 66 62 62 62 61 62 65 69 74 78 80 79 75 72 69 66 65
76 78 79 81 84 87 89 91 93 94 94 93 91 89 87 87 87 85 81 78 74 71 69 68 66 64 61 58 56 54 53 50 50 55 63 69 75 76 76 75 72 70 68
77 78 80 83 86 89 91 93 94 93 91 89 86 84 83 84 82 78 74 71 69 67 65 63 61 59 56 54 51 48 45 42 39 40 49 53 61 67 70 71 71 70 69
77 79 82 85 88 90 91 91 90 88 86 84 83 82 82 80 77 73 68 64 61 60 60 60 58 55 53 49 46 41 38 35 31 29 35 39 46 53 59 63 64 66 66
78 81 85 88 89 90 90 88 86 83 81 80 82 83 81 76 72 68 64 59 55 54 54 53 52 50 47 42 39 36 31 26 21 21 26 27 32 39 45 49 52 55 57
81 85 88 89 89 88 86 84 82 80 78 79 81 81 76 71 66 64 60 56 51 49 47 46 45 42 38 36 35 32 28 23 14 13 19 20 21 26 31 35 40 44 47
85 87 89 89 87 84 82 80 80 79 79 79 79 75 69 64 61 58 55 52 48 43 39 35 32 31 31 29 29 29 26 21 12 8 13 15 14 17 20 25 29 34 38

GEFSMA_500_meanwind_030.txt.gz
Wind_Speed
25 25 25 26 27 29 31 33 34 36 37 37 38 37 37 36 36 36 36 36 37 38 40 41 42 43 44 45 47 48 48 49 49 50 51 51 52 52 52 52 52 52 52
28 28 28 28 30 31 33 34 35 36 37 37 37 37 36 36 36 37 38 38 39 39 40 42 43 45 46 47 48 49 51 52 53 53 54 54 55 55 55 55 55 55 54
31 31 31 32 33 34 35 36 37 37 37 36 36 36 36 36 37 38 39 40 40 41 42 43 45 47 50 51 53 54 55 56 57 58 58 59 59 59 59 58 58 58 57
32 33 34 35 36 37 37 37 37 37 37 36 36 36 36 37 38 40 41 42 43 45 46 48 50 52 54 56 58 59 60 61 62 63 63 64 64 64 63 63 62 61 61
33 35 36 37 37 38 38 37 37 37 37 37 37 37 38 39 41 43 44 46 48 50 53 55 57 59 60 62 64 65 67 67 68 68 69 69 69 69 69 68 67 66 65
35 36 38 38 38 38 38 38 38 39 39 40 40 40 42 43 45 47 49 52 54 57 59 61 64 65 67 68 69 71 72 73 74 75 75 75 75 74 74 74 73 72 70
37 39 40 40 40 40 40 40 40 41 43 44 45 46 47 49 51 54 56 59 61 63 66 68 70 71 72 74 75 76 77 78 78 79 80 80 80 80 79 78 78 77 76
40 41 41 41 41 42 43 44 45 46 47 50 52 53 53 54 56 59 62 65 67 69 71 72 74 75 77 78 79 80 81 82 82 82 83 84 85 85 85 84 83 82 82
41 42 42 42 43 44 46 47 49 50 52 54 57 61 63 64 64 65 67 69 71 73 75 76 78 78 79 80 82 83 84 85 86 86 87 88 89 90 90 90 90 89 88
42 42 42 43 45 46 48 50 52 54 57 59 62 66 70 73 75 74 73 74 76 78 79 80 81 82 83 84 85 86 88 89 90 91 93 93 94 95 96 96 97 97 96
42 42 43 44 46 48 50 52 55 59 62 66 69 71 73 76 78 80 80 81 82 83 83 84 85 87 88 90 91 93 94 95 96 97 98 99 99 100 100 101 102 102 102
42 43 44 46 48 50 53 56 60 63 67 70 73 76 78 80 82 84 85 85 86 86 88 89 91 93 95 97 99 101 102 102 102 102 101 101 101 101 101 101 101 102 103
43 44 46 48 51 54 58 61 65 68 71 73 76 78 80 82 85 87 89 90 91 90 92 93 96 99 101 104 105 106 105 104 103 102 100 98 96 95 95 95 95 95 97
45 46 49 52 56 59 63 66 69 72 74 76 78 80 82 84 87 90 93 96 97 96 97 98 100 102 104 105 104 103 101 98 96 95 93 91 89 87 86 85 86 87 89
47 50 53 57 61 64 67 70 73 75 77 79 80 82 84 87 90 93 97 100 104 106 104 103 103 102 101 100 97 95 92 89 87 86 84 83 82 80 78 78 79 80 82
50 54 58 62 65 69 71 73 75 77 78 80 82 85 88 91 95 98 101 104 106 109 110 104 101 97 93 91 89 88 86 83 81 79 77 75 74 73 72 71 72 74 77
55 59 62 66 69 72 73 75 76 77 79 82 85 89 93 97 100 102 104 104 104 103 104 99 92 88 84 81 79 79 79 77 74 71 70 69 69 68 67 67 67 69 71
59 63 67 70 72 73 74 75 76 79 83 87 91 95 98 101 103 103 102 101 99 96 96 94 86 81 77 75 73 70 69 68 66 65 64 63 62 62 62 62 63 64 66
64 67 70 71 71 72 74 76 80 84 88 92 97 100 101 102 101 99 97 95 92 90 89 88 83 78 73 68 65 62 59 57 57 56 56 55 56 56 57 57 57 59 60
67 69 69 70 71 73 77 81 85 89 93 97 100 101 101 99 96 94 91 89 87 86 84 83 79 73 66 60 58 55 50 47 47 47 47 48 49 49 50 51 51 52 53
68 68 68 70 73 77 82 86 90 95 98 100 100 99 96 92 89 86 85 84 84 83 82 78 72 65 58 54 50 48 44 39 37 40 41 40 42 42 43 44 45 45 46
66 66 68 72 77 82 87 92 96 99 101 101 98 94 88 84 82 80 81 81 81 80 76 69 63 57 52 48 45 41 38 33 28 30 36 33 36 37 38 39 38 39 39
65 68 72 77 82 87 92 96 99 101 100 97 92 86 81 79 78 79 79 77 73 68 63 60 55 50 47 43 40 35 32 30 28 28 31 29 31 32 33 33 32 31 31
67 72 77 82 87 92 96 99 101 99 95 89 83 79 78 76 77 78 75 70 63 57 53 51 48 45 42 39 36 34 30 26 25 27 31 28 26 27 27 26 26 24 24
71 76 81 86 91 95 99 100 99 95 87 81 77 76 76 76 75 72 68 61 54 49 45 42 40 39 38 37 37 34 31 28 23 24 28 27 25 24 23 22 20 16 15
75 80 85 90 95 98 99 98 94 89 83 78 74 73 73 72 68 63 58 53 47 40 35 31 31 33 34 34 35 34 32 28 22 21 24 25 24 21 18 17 14 11 8

GEFSMA_500_meanwind_036.txt.gz
Wind_Speed
27 28 29 30 30 30 31 32 33 34 35 36 37 38 38 39 40 40 40 40 40 40 40 40 41 41 42 42 43 44 44 45 45 46 46 47 48 49 49 50 50 50 50
29 30 31 31 31 32 32 33 34 36 37 38 39 40 40 41 41 41 41 41 41 41 42 42 43 43 44 45 46 47 48 49 49 50 51 52 52 53 54 54 55 55 55
30 31 31 31 32 32 33 33 35 36 38 39 40 40 41 41 42 42 42 42 43 43 44 45 46 47 48 49 51 52 53 54 55 56 57 58 58 59 59 60 60 60 60
30 31 31 31 32 32 33 35 36 38 39 39 40 41 42 42 42 43 44 45 46 46 48 49 50 52 53 55 56 57 59 60 61 63 64 65 65 65 66 66 66 66 66
31 31 31 32 33 34 35 37 39 40 40 41 41 42 43 43 44 45 46 47 49 50 52 54 56 58 59 61 63 64 66 67 68 70 71 72 72 72 73 73 72 72 72
32 33 33 34 35 37 39 40 42 42 43 43 43 43 44 45 45 47 49 50 52 54 57 59 61 63 65 67 69 71 72 73 74 75 76 77 77 78 78 79 79 78 78
34 34 35 37 38 40 42 43 44 45 45 45 45 44 45 47 48 50 52 55 58 60 63 65 67 69 71 73 74 76 77 78 79 80 80 81 82 83 83 84 84 84 83
35 36 38 40 41 43 44 44 45 46 47 47 47 47 47 48 51 54 57 60 63 66 68 70 72 74 75 76 78 79 80 81 82 83 84 85 86 87 87 87 88 88 88
38 40 41 42 43 44 45 45 46 47 48 50 51 53 54 55 55 57 60 64 67 69 71 73 74 76 77 79 80 82 83 85 86 87 88 90 90 91 91 92 92 92 92
40 41 42 43 44 45 46 46 47 49 50 52 55 58 61 64 66 66 65 66 68 69 71 73 75 77 80 82 84 86 88 90 91 93 94 95 97 97 98 98 99 99 99
41 42 43 44 45 46 47 48 50 52 54 56 59 62 65 69 72 75 74 72 71 71 72 75 78 81 85 88 91 93 95 97 98 100 101 102 103 104 105 105 106 106 106
42 43 44 45 46 47 48 50 53 55 58 61 64 67 69 70 72 74 76 77 77 76 77 80 84 89 93 96 99 102 104 105 106 107 108 108 109 109 109 109 108 109 109
42 43 44 46 47 49 51 53 55 58 62 65 67 69 71 72 74 76 78 79 80 81 84 87 92 97 102 105 108 109 110 110 109 109 108 108 107 107 106 105 105 105 105
43 44 46 47 49 51 53 56 59 62 65 67 68 70 71 73 75 79 83 86 87 88 90 94 99 104 108 111 112 111 110 108 106 104 102 100 99 97 96 96 95 95 95
44 46 47 49 50 53 56 59 62 64 66 68 68 70 72 75 79 83 88 93 98 99 98 101 106 109 111 111 109 106 104 101 98 95 92 90 88 87 85 85 85 84 85
45 47 48 50 53 56 59 62 64 65 66 68 69 72 75 80 84 89 95 100 106 111 111 108 109 108 106 103 100 98 95 92 88 86 84 82 80 79 77 76 76 76 76
46 48 50 53 55 59 61 63 64 66 67 69 72 76 81 86 91 96 101 106 111 114 116 111 104 98 93 90 87 86 86 84 80 77 75 73 71 70 68 68 67 66 66
48 50 52 55 58 61 63 64 65 66 69 73 77 82 87 93 98 103 107 111 112 111 109 104 94 87 81 78 76 75 74 73 69 66 63 61 60 59 58 58 58 57 57
50 52 55 58 61 62 63 64 66 69 73 78 84 89 94 99 104 108 111 111 108 103 98 93 86 78 72 69 67 64 61 58 55 53 52 51 51 50 50 49 50 50 50
52 55 58 60 62 62 64 66 69 73 79 84 90 95 101 105 109 111 110 106 100 93 87 83 77 70 64 60 57 52 46 43 42 43 44 44 44 44 43 44 43 43 43
55 58 60 61 62 63 66 69 73 79 84 90 95 101 106 109 110 109 104 98 90 84 78 73 68 61 54 48 44 39 36 33 33 37 38 39 41 41 42 42 41 40 40
57 59 61 61 63 65 69 74 79 84 90 96 101 105 108 108 105 99 92 86 80 75 70 64 57 50 43 39 35 33 32 29 28 32 34 33 36 36 37 38 38 37 37
58 60 61 62 65 69 74 79 84 90 95 101 105 107 107 103 96 89 82 75 68 63 58 53 46 41 37 34 32 29 27 26 27 28 28 27 30 31 32 32 33 33 34
58 59 61 64 68 73 79 84 89 94 100 104 106 105 101 93 86 80 73 65 57 50 46 41 38 35 33 31 29 26 24 23 26 29 28 25 26 27 28 29 29 28 28
58 60 64 68 73 78 83 89 94 99 102 104 102 98 92 84 77 71 63 54 46 39 35 33 32 31 30 29 28 25 24 24 23 26 28 27 25 25 26 25 25 24 24
59 62 67 72 77 83 88 94 99 102 103 101 94 87 81 75 67 59 52 44 36 30 27 26 27 27 27 26 27 27 25 24 23 23 24 25 24 23 20 22 22 21 21

GEFSMA_500_meanwind_042.txt.gz
Wind_Speed
24 24 25 26 28 29 30 30 31 32 32 33 34 35 36 37 38 39 40 41 42 43 43 43 43 44 44 45 45 45 44 44 44 44 45 45 46 46 46 46 47 47 47
26 26 26 28 29 30 31 31 32 32 33 33 34 36 37 39 40 41 42 43 43 44 44 45 45 45 46 46 47 47 48 48 48 49 49 50 50 51 51 51 52 52 52
27 27 28 29 29 30 31 32 32 33 34 35 37 38 40 41 42 43 44 44 45 46 46 47 47 47 48 48 49 50 51 52 53 54 54 55 56 57 57 57 58 58 58
28 29 30 30 30 31 32 33 34 35 36 38 40 41 43 44 45 46 46 46 46 47 47 48 49 50 50 51 52 53 54 55 57 58 59 60 61 62 63 63 64 64 64
29 30 30 31 32 33 34 34 35 37 39 40 42 44 45 46 47 47 47 47 48 48 49 50 51 52 53 55 56 57 58 60 61 62 63 64 65 66 67 68 69 69 70
30 30 31 32 33 34 35 36 38 39 41 42 43 45 46 47 47 47 48 49 49 50 51 53 54 56 57 59 60 62 63 64 65 66 67 68 69 69 70 71 72 73 73
30 31 32 33 35 36 37 39 41 42 43 43 44 45 47 47 47 48 49 50 52 53 55 57 59 60 62 63 64 65 66 68 68 69 70 71 71 72 73 73 74 75 76
31 33 34 35 36 38 40 41 43 44 45 45 45 45 46 47 48 50 51 53 55 57 59 61 63 64 65 66 67 68 69 70 71 72 74 75 76 77 78 78 79 80 80
33 34 36 37 39 40 42 43 44 46 47 47 48 48 48 48 48 49 52 55 57 59 61 63 64 65 67 68 70 71 73 74 76 78 80 81 83 84 85 86 87 87 88
35 36 38 40 41 42 43 45 46 47 48 49 50 51 53 54 55 53 53 56 58 59 61 63 64 66 69 71 74 76 78 81 83 85 87 89 91 93 94 95 96 97 97
36 38 40 41 42 44 45 46 47 49 50 51 52 54 56 58 60 60 59 59 60 60 62 64 66 69 73 76 79 82 85 88 91 94 96 99 101 103 104 105 106 107 107
37 39 40 42 43 45 46 47 49 51 52 53 55 57 59 61 63 64 64 64 64 64 65 67 71 75 79 83 87 91 94 97 100 103 106 109 111 112 113 114 114 114 114
38 39 41 43 44 46 47 49 51 52 54 56 58 60 62 65 66 67 68 68 68 68 70 73 77 83 88 92 97 101 104 108 111 113 115 115 116 116 116 115 114 113 113
38 40 42 44 45 47 49 50 52 54 56 58 60 63 65 67 68 70 71 73 73 73 75 79 84 90 97 102 107 111 114 116 116 115 114 112 110 108 106 103 102 101 100
39 41 43 45 47 48 50 52 54 56 58 61 63 65 67 68 69 72 75 78 81 82 82 85 92 98 105 110 114 117 117 116 112 107 102 97 92 89 86 84 83 82 82
40 42 44 46 48 50 52 53 55 58 61 64 66 67 68 69 72 75 78 83 88 92 93 95 101 105 110 113 113 113 110 104 97 90 84 78 74 71 68 67 66 66 66
41 44 46 48 50 52 53 55 58 61 64 66 67 68 69 72 74 79 83 88 94 100 104 104 107 108 107 104 100 95 90 84 77 70 66 62 59 56 54 52 51 51 52
43 45 47 49 51 53 55 58 61 64 65 67 68 69 71 74 79 84 89 94 100 106 110 110 106 102 95 88 82 75 69 64 60 56 53 50 47 44 42 41 41 40 41
44 46 48 50 52 55 57 60 63 65 67 68 69 71 75 79 84 89 94 100 105 107 108 107 100 90 80 72 65 57 52 49 48 46 44 41 40 39 37 36 35 35 35
45 47 49 52 54 57 60 63 65 66 67 69 71 75 79 84 89 95 100 105 106 105 101 94 86 75 65 56 50 44 39 37 38 38 37 37 36 36 36 35 34 33 32
46 49 51 53 56 59 62 64 66 66 68 70 74 79 84 90 95 101 105 105 102 96 88 80 70 60 52 45 39 34 31 29 31 33 32 34 36 36 36 36 35 33 31
48 50 52 55 58 61 63 65 66 67 70 74 78 83 89 95 100 103 104 99 91 83 75 66 56 48 42 36 31 29 28 27 28 31 29 30 33 33 34 33 33 32 32
49 51 54 57 60 62 64 65 66 69 73 78 83 88 94 99 103 102 96 86 76 68 61 54 46 40 35 31 28 27 27 27 29 30 28 27 31 31 32 32 32 31 30
50 53 56 59 61 63 63 65 68 72 77 82 88 94 98 101 100 95 85 72 62 54 49 44 41 36 33 31 29 27 25 25 28 33 32 30 29 30 31 31 30 29 29
52 55 58 60 61 62 64 67 71 76 81 86 92 98 101 99 93 84 72 59 50 43 40 39 37 35 34 33 31 28 27 26 25 29 33 32 30 28 29 30 29 27 27
53 56 58 60 61 63 66 70 75 80 85 90 96 99 97 91 81 69 58 47 39 35 34 34 33 33 33 33 33 32 31 29 27 26 28 28 28 26 22 25 26 27 27

GEFSMA_500_meanwind_048.txt.gz
Wind_Speed
27 27 27 26 26 25 25 26 27 28 28 28 29 29 29 30 31 31 32 34 35 36 38 39 40 41 42 43 43 43 44 45 45 45 45 45 45 45 45 45 45 45 45
28 28 28 28 28 28 28 28 29 29 30 30 30 30 31 32 33 34 36 37 38 40 41 42 43 44 44 45 45 46 46 47 47 48 48 48 48 48 48 49 49 49 50
29 29 29 30 30 30 30 30 31 31 32 32 32 33 33 34 36 37 39 40 42 43 44 45 45 46 46 47 47 48 49 49 50 51 52 52 53 53 53 53 54 54 54
31 30 31 31 31 31 31 32 33 33 34 34 34 35 36 37 38 39 41 43 44 45 46 46 47 48 48 49 50 51 52 52 53 54 55 56 57 58 58 58 59 59 59
33 32 32 32 32 32 32 33 34 34 35 36 37 38 38 39 40 42 44 45 46 47 48 49 49 50 51 52 53 54 55 56 57 59 60 61 61 62 63 63 63 64 64
34 34 33 33 33 33 34 35 35 36 37 39 40 40 41 42 43 45 46 48 49 50 51 52 52 53 54 56 57 58 59 60 62 63 64 64 65 66 66 67 67 68 68
34 34 34 34 34 35 35 36 37 38 39 41 42 43 44 45 46 47 49 50 51 52 54 55 56 57 58 59 60 62 63 64 65 66 67 68 69 69 70 70 71 71 72
35 35 35 35 36 36 37 37 38 39 41 42 43 45 47 47 48 49 51 53 54 55 57 58 59 60 62 63 64 65 66 68 69 70 71 71 72 73 74 75 76 76 77
36 36 36 37 37 38 38 39 40 41 43 43 45 46 48 49 49 50 53 55 56 58 59 61 62 64 66 67 68 69 69 71 72 73 74 75 77 78 79 81 82 83 84
37 37 37 38 38 39 39 41 42 43 44 45 47 48 50 51 52 52 53 55 57 59 61 63 65 67 69 70 71 71 72 74 75 76 78 80 82 84 85 87 89 90 91
37 38 38 38 39 40 41 42 43 45 46 47 49 50 52 54 56 57 56 56 58 60 62 64 66 68 69 71 72 73 75 76 78 81 83 85 88 90 93 95 97 99 100
37 38 38 39 40 41 42 43 44 46 48 49 51 53 54 56 58 60 60 61 61 62 64 65 67 68 70 72 74 76 78 80 83 86 89 92 95 98 100 103 105 107 108
37 38 39 39 40 41 42 44 45 47 49 51 53 55 57 59 60 62 64 65 66 67 68 68 69 71 72 75 77 80 83 87 90 94 97 99 101 103 104 105 106 107 108
38 39 39 40 41 42 43 45 47 50 52 53 55 57 59 61 63 65 67 69 69 69 70 72 74 76 78 81 84 87 90 94 98 100 101 101 100 98 97 95 95 95 96
38 39 40 40 41 42 44 46 49 51 53 55 57 59 61 63 65 68 69 71 72 73 72 74 77 80 84 88 92 96 99 101 101 100 98 94 89 84 80 78 77 76 76
39 39 40 40 41 43 45 48 51 53 55 57 59 61 63 66 68 69 71 72 74 75 75 77 81 85 91 95 99 102 102 101 97 92 86 79 71 66 61 57 54 54 54
38 39 39 40 42 44 47 50 53 55 57 59 61 63 66 68 69 71 72 73 75 77 79 80 86 91 96 99 101 101 97 91 83 75 68 61 54 49 45 43 41 41 41
38 38 39 40 43 46 49 52 54 56 58 61 63 65 67 69 71 72 73 75 77 81 84 87 90 95 97 98 96 89 81 72 65 59 53 47 43 40 38 37 36 35 36
37 38 39 42 45 48 51 53 55 58 60 62 65 67 68 70 71 73 75 78 81 86 90 94 95 96 95 91 81 70 61 55 51 47 43 40 39 37 36 34 33 32 33
37 38 41 44 47 50 52 55 57 59 61 64 66 68 69 71 72 74 78 82 87 91 95 97 96 92 84 73 62 53 46 44 43 42 40 39 38 37 36 34 33 32 31
37 40 43 46 49 51 54 56 58 60 63 65 67 68 70 72 74 78 82 87 92 96 97 96 90 80 67 55 47 42 38 38 39 40 38 37 38 37 36 36 35 33 32
39 42 45 48 50 53 55 57 60 62 64 66 67 69 71 73 77 82 87 92 96 97 94 87 75 62 51 44 39 36 35 35 35 37 36 35 37 37 37 36 35 33 32
41 44 47 49 51 54 56 59 61 63 65 66 68 70 73 77 82 86 91 94 94 90 82 71 58 50 42 38 35 34 34 34 35 36 35 33 35 36 36 35 34 33 31
42 45 48 50 52 55 57 60 62 63 65 67 69 73 77 81 87 91 93 91 85 76 66 56 49 42 39 37 35 34 33 32 33 36 36 33 33 34 35 35 34 31 29
43 46 48 51 54 56 58 60 62 63 65 67 72 77 81 86 91 93 90 83 73 62 52 46 42 39 38 37 36 35 34 34 33 33 35 34 34 33 34 34 33 31 29
44 47 50 52 55 57 59 60 62 63 66 70 76 81 87 91 92 90 82 71 59 49 43 41 39 38 37 37 37 37 37 36 35 33 33 32 32 31 28 30 30 29 28

GEFSMA_500_meanwind_054.txt.gz
Wind_Speed
28 27 26 26 27 28 29 30 31 31 31 32 32 32 32 32 31 31 31 31 31 32 32 32 33 34 36 37 37 38 39 39 40 40 41 41 42 42 43 43 43 43 43
30 29 29 28 29 29 30 31 32 33 33 34 34 34 34 34 34 33 33 33 34 34 34 35 35 37 38 39 40 40 41 41 42 43 44 44 45 45 46 47 47 47 47
32 32 31 31 31 31 32 32 33 34 34 35 36 36 36 36 36 35 35 35 36 37 37 37 38 39 40 41 42 43 43 44 45 46 47 48 48 49 50 50 51 51 52
33 34 34 33 33 34 34 34 34 35 35 36 36 37 37 37 37 37 38 38 38 39 40 40 41 42 43 44 45 46 47 48 48 49 50 51 52 53 53 54 54 55 56
35 35 35 35 35 35 35 36 36 36 37 37 37 38 38 39 39 40 40 40 41 41 42 42 44 45 46 47 48 49 50 51 52 52 53 54 55 55 56 57 58 59 59
36 36 37 37 37 37 37 37 37 37 38 38 38 39 39 40 41 42 42 42 43 44 44 45 46 47 48 50 51 53 54 54 55 55 56 57 58 58 59 60 61 62 63
36 37 38 38 37 37 37 37 38 38 38 39 39 40 41 42 43 43 44 44 45 45 47 48 49 50 51 53 54 56 56 57 58 59 60 60 61 62 63 64 65 66 66
37 37 38 38 38 38 38 38 38 38 40 40 41 41 42 42 43 44 45 46 47 48 49 50 52 53 55 56 57 59 59 60 61 62 63 64 64 65 66 67 68 69 70
38 38 38 39 39 39 39 39 39 39 40 41 42 43 44 44 44 44 46 47 48 50 51 53 55 57 59 60 61 62 63 64 65 65 66 67 68 69 70 71 72 73 74
39 39 39 40 40 40 40 40 40 40 40 41 42 44 45 46 46 46 47 48 50 51 53 54 57 59 61 63 64 65 66 67 68 69 70 71 72 73 74 75 76 77 78
39 39 40 40 40 40 40 41 41 41 42 42 43 44 46 47 48 49 49 50 52 53 55 57 59 60 62 64 66 67 69 70 71 72 73 74 75 77 78 80 81 82 84
40 40 40 40 40 40 41 41 42 42 43 44 45 46 47 49 50 51 52 52 53 55 57 59 61 63 64 66 67 69 70 72 73 74 75 77 79 81 83 85 87 89 91
40 40 40 40 40 40 41 42 43 43 45 46 47 48 49 51 52 53 55 56 57 57 59 61 63 65 67 68 69 71 72 73 74 76 78 81 83 86 88 90 91 93 95
41 40 40 40 40 40 41 43 44 45 46 47 48 49 51 52 54 55 58 60 61 61 62 63 65 68 69 70 72 73 74 76 78 81 83 86 88 90 92 92 92 92 90
41 40 40 40 40 41 41 43 44 46 47 48 49 50 52 53 55 57 60 62 65 66 65 65 68 70 71 72 74 75 78 80 83 87 89 91 91 91 90 87 83 78 74
41 40 40 40 41 41 42 43 45 46 47 48 50 52 53 55 57 60 62 64 67 69 70 70 71 73 74 75 77 80 83 86 89 91 92 92 89 85 78 71 65 59 55
40 40 40 40 40 41 43 44 45 47 48 49 51 53 55 57 60 62 64 66 68 70 71 71 73 75 77 79 82 85 88 90 91 91 89 85 78 70 62 55 51 46 44
39 39 39 40 40 42 43 45 46 47 49 50 53 55 57 60 62 64 66 68 70 71 73 73 74 76 80 84 87 89 91 91 89 85 79 72 64 56 50 46 42 40 39
39 39 39 40 41 43 44 45 46 48 50 52 54 57 59 62 64 66 68 69 70 72 74 76 77 80 85 89 90 90 89 85 79 73 66 58 52 48 44 42 40 39 38
38 38 38 39 41 43 44 45 46 49 51 54 56 59 61 64 66 67 68 70 72 73 76 79 82 86 89 91 91 86 79 73 65 59 53 48 45 43 42 42 41 40 39
37 37 38 40 41 43 44 45 47 50 53 56 58 61 63 65 67 68 69 71 73 76 80 84 87 90 91 89 83 77 69 60 52 49 45 43 42 41 42 42 42 41 40
35 36 38 40 41 43 44 46 49 52 55 57 60 62 64 66 67 68 70 73 77 82 86 89 91 90 86 80 73 66 58 49 43 43 42 40 41 41 42 42 43 42 41
35 37 38 40 41 43 45 48 51 54 56 59 61 63 64 65 67 69 72 76 82 88 91 92 89 84 77 69 62 54 47 42 40 41 41 39 41 41 42 42 43 42 41
35 36 38 40 42 44 47 50 52 55 58 60 62 63 65 67 69 72 75 80 85 89 89 87 81 74 66 58 52 45 41 40 39 41 42 40 39 39 39 41 43 42 40
34 36 38 40 43 46 48 51 54 56 58 60 61 64 66 69 72 76 80 84 87 86 83 77 70 62 54 49 45 42 41 40 39 39 42 41 40 38 37 39 41 40 39
34 36 38 41 44 47 50 53 55 57 58 59 62 65 69 73 77 81 84 86 84 78 71 64 57 51 47 44 43 43 42 42 41 40 41 40 39 38 32 33 37 38 37

GEFSMA_500_meanwind_060.txt.gz
Wind_Speed
27 26 25 25 25 25 25 26 26 26 27 28 29 30 31 33 34 34 35 35 35 35 35 34 34 34 34 34 34 33 34 34 34 35 36 36 36 36 37 37 38 38 39
28 27 26 26 26 26 27 27 27 27 28 29 30 31 32 33 34 35 36 36 36 36 36 36 36 36 36 36 36 35 36 36 37 37 38 38 38 38 39 40 41 41 42
29 29 28 27 27 28 28 28 28 29 30 30 31 31 33 34 35 36 37 37 37 37 37 37 37 37 38 38 38 38 38 38 39 40 40 40 40 41 42 43 44 45 45
30 30 30 29 29 29 29 29 29 30 31 32 33 33 33 34 35 36 37 37 38 38 38 39 39 39 39 39 39 40 40 41 41 42 42 43 43 44 45 46 47 48 48
32 31 31 31 31 30 30 30 30 31 31 32 33 33 34 34 35 36 37 38 38 39 39 40 40 40 40 41 41 42 42 43 43 44 45 45 46 47 48 49 50 51 51
33 33 33 32 32 32 31 31 32 31 32 33 33 34 35 35 36 37 38 39 39 40 41 41 42 42 42 42 43 44 44 45 46 47 47 48 49 50 51 52 53 54 55
34 34 34 33 33 33 33 33 33 33 33 33 34 35 35 36 37 38 39 39 40 41 42 42 43 43 43 44 45 46 47 48 48 49 50 51 52 53 54 56 56 57 58
37 36 36 35 35 34 34 34 34 34 34 35 35 36 37 37 39 39 40 40 41 42 42 43 44 44 45 46 47 48 49 50 51 52 53 55 56 57 58 59 60 60 60
39 39 38 37 36 36 35 35 35 35 35 36 36 37 37 38 39 40 41 42 42 43 44 45 46 46 47 48 49 50 52 53 54 56 57 58 59 60 61 61 62 63 63
42 41 40 39 38 37 36 36 36 36 37 37 38 38 39 39 40 41 42 43 44 44 45 46 47 48 49 50 52 53 55 56 58 59 60 62 62 63 64 65 65 66 67
44 43 42 41 40 39 38 38 37 37 38 39 39 40 41 41 42 43 43 44 45 46 47 48 49 50 51 53 54 56 58 59 61 62 63 64 65 66 67 68 69 70 71
46 45 45 43 42 41 40 40 39 39 39 40 41 42 43 43 43 44 45 46 46 47 49 51 52 54 55 56 58 60 61 62 64 65 66 67 68 69 70 71 72 74 75
47 47 46 45 44 43 42 41 40 40 41 41 42 43 43 44 45 47 48 48 48 48 50 52 54 57 58 60 62 63 64 66 67 67 68 69 71 72 73 75 76 78 79
48 48 47 46 45 44 43 42 41 41 42 43 44 44 45 46 48 49 50 51 51 51 52 53 56 59 61 62 64 66 67 68 69 70 71 72 74 75 77 79 80 82 84
49 49 48 47 46 45 44 43 42 43 43 45 45 46 47 48 50 52 53 54 55 55 55 56 58 61 63 64 66 68 69 70 71 72 74 76 78 80 82 83 85 86 86
50 49 48 47 46 45 44 43 43 43 44 45 46 47 49 50 52 54 55 57 58 59 60 60 62 63 65 66 68 69 70 72 73 76 78 81 83 84 86 87 87 87 86
50 49 47 46 45 44 44 43 43 44 45 46 47 49 51 53 55 57 58 59 61 62 63 64 66 68 69 70 70 72 73 75 77 81 83 85 87 88 88 87 85 83 80
48 47 46 45 44 43 42 42 43 43 45 47 48 50 53 55 57 59 60 61 63 65 66 67 68 70 71 72 73 75 77 80 83 85 87 88 88 87 84 81 77 73 70
45 44 43 42 42 41 40 41 42 44 45 47 50 52 54 57 59 60 61 63 65 67 68 70 70 71 72 75 77 79 81 85 87 89 89 87 84 80 75 72 68 64 61
42 41 40 39 39 39 39 41 42 43 47 50 52 54 57 58 60 61 63 65 66 68 70 71 72 73 75 78 81 83 84 86 86 86 84 80 75 70 67 64 60 56 53
37 36 36 35 36 37 38 40 42 45 48 52 54 56 58 59 61 63 65 66 68 69 71 73 74 76 79 82 85 86 86 83 80 79 75 70 66 62 59 57 53 50 48
32 31 31 32 34 36 37 40 44 47 51 53 55 57 59 61 63 65 66 68 70 72 74 76 78 80 83 85 86 86 83 78 71 68 65 60 58 55 53 51 50 49 47
27 28 30 31 33 36 39 43 46 49 51 53 56 58 60 62 64 65 67 69 71 74 77 79 81 83 85 85 85 81 76 70 63 59 57 52 52 50 49 49 49 49 47
26 27 29 31 34 38 41 44 47 50 52 54 57 59 60 62 64 66 68 70 73 76 79 81 84 85 85 83 78 72 65 59 53 52 53 50 48 47 46 48 49 49 47
24 27 29 33 36 39 41 45 48 50 52 55 57 59 61 63 66 68 70 72 74 78 81 83 84 82 78 73 67 61 56 53 49 49 52 51 48 47 45 46 48 49 47
24 27 30 33 36 39 42 46 48 50 52 54 57 60 63 65 67 70 72 74 76 78 79 78 77 73 67 62 58 55 53 52 50 49 50 50 49 48 43 41 44 46 45

GEFSMA_500_meanwind_066.txt.gz
Wind_Speed
24 24 24 25 25 25 25 26 26 26 26 27 27 28 28 29 29 30 30 31 31 32 32 33 33 33 34 34 34 34 34 34 34 34 34 33 33 33 33 33 34 34 34
26 26 26 26 26 27 27 27 27 27 28 28 28 29 30 30 31 32 32 32 33 33 34 34 34 34 35 35 35 35 35 36 36 36 36 36 36 35 36 36 36 36 36
28 27 27 27 28 28 28 29 29 29 29 30 30 30 31 32 32 32 32 33 33 33 34 34 34 34 35 36 36 36 37 37 37 38 38 38 38 38 38 38 39 39 39
30 30 29 30 30 30 30 30 30 31 31 31 32 32 32 32 32 33 33 33 33 34 34 34 34 34 35 35 36 37 37 38 39 39 39 39 40 40 40 40 41 41 41
32 32 32 32 32 32 32 32 33 33 33 33 33 33 33 33 33 34 34 34 34 34 34 34 35 35 36 36 37 37 38 39 40 40 41 41 42 42 42 43 43 43 44
34 34 34 34 35 34 34 35 35 35 35 35 35 35 35 35 35 35 35 35 36 35 35 36 36 36 37 38 38 39 40 40 41 41 42 43 43 44 44 45 45 46 47
36 36 36 36 37 37 37 37 37 36 36 37 37 37 36 36 36 36 36 37 37 37 36 37 38 38 39 39 40 41 41 42 43 43 44 44 45 46 46 47 48 48 49
38 39 39 39 40 40 40 39 39 39 39 38 38 38 38 37 37 37 37 38 38 37 38 39 39 39 40 41 41 42 43 44 45 46 46 47 47 48 49 50 51 51 52
42 42 42 42 43 42 42 42 42 41 41 41 40 40 40 39 39 39 39 39 39 40 40 40 41 41 42 42 43 44 45 46 47 48 49 50 50 51 52 53 54 55 56
45 45 45 45 45 45 45 45 44 44 43 42 42 42 42 42 41 41 40 40 41 41 42 42 43 43 44 45 46 46 47 48 49 50 51 52 53 54 55 57 58 59 60
47 47 47 47 47 47 47 47 46 45 45 45 44 44 43 43 43 43 42 42 42 43 44 45 45 46 47 48 48 49 49 50 52 53 54 55 57 58 59 60 61 62 63
50 50 50 50 49 49 49 48 48 48 47 47 46 46 45 45 44 44 44 44 44 45 46 47 48 49 50 51 51 52 53 54 55 57 58 59 60 61 63 64 65 66 67
53 53 53 52 52 52 51 51 51 50 49 49 49 48 48 47 46 46 47 46 47 47 48 49 51 52 53 54 55 56 57 58 60 61 62 63 64 65 67 68 68 69 70
56 55 55 54 53 53 52 52 52 51 51 51 50 50 50 49 48 48 48 48 49 49 50 51 53 55 56 58 59 60 61 63 64 65 66 67 68 69 70 71 72 72 73
58 57 56 55 54 54 53 54 53 53 53 52 51 51 50 50 49 49 49 49 50 52 52 54 56 58 60 61 63 64 65 66 68 68 69 70 71 72 73 74 75 76 77
60 59 57 56 55 55 54 53 53 53 53 52 52 51 50 49 49 50 50 51 52 54 55 56 59 62 63 65 66 67 68 69 70 71 72 73 75 76 77 78 79 80 81
59 58 56 54 53 53 52 52 53 53 53 51 51 50 49 49 50 50 52 53 55 57 58 60 63 65 66 68 69 71 71 72 73 75 76 78 79 80 81 82 83 84 85
56 55 53 52 51 51 51 52 52 52 51 51 51 50 49 49 51 51 53 55 57 59 61 62 65 67 68 70 71 72 73 75 76 78 80 81 83 84 85 86 87 87 86
54 53 52 51 50 49 49 49 49 49 49 50 49 49 49 50 51 53 55 57 59 62 64 66 67 69 70 72 73 74 75 77 79 82 83 85 87 88 89 88 87 85 82
50 50 49 48 47 46 45 45 45 45 46 46 46 47 49 50 52 54 57 59 61 64 66 68 69 71 72 74 75 76 77 79 82 85 86 87 88 87 85 83 80 77 74
43 44 43 43 42 41 41 42 42 42 43 43 44 46 49 51 53 56 58 61 63 65 67 69 70 72 73 75 77 79 80 81 82 84 84 82 80 77 75 73 71 69 67
35 37 37 37 37 37 37 37 38 38 40 42 44 46 49 51 54 57 59 62 64 66 68 70 71 73 75 77 79 80 81 81 79 78 76 72 71 69 67 66 65 64 63
28 29 30 32 32 32 33 34 36 38 40 42 44 46 48 52 55 57 59 62 65 67 70 71 73 75 76 78 79 79 78 76 73 71 69 66 65 63 62 61 61 60 59
21 23 25 26 27 28 29 32 34 35 38 40 43 46 49 53 55 57 60 62 65 68 70 72 74 76 78 78 77 75 72 68 66 66 66 61 58 57 56 56 57 57 56
16 18 21 22 23 25 27 30 32 35 37 40 44 48 51 53 56 59 61 64 66 68 70 73 75 76 75 74 71 67 64 62 59 56 57 54 51 50 48 48 50 51 51
12 14 17 20 22 24 27 29 32 35 38 42 46 48 51 54 57 59 62 64 65 67 70 72 72 72 69 65 62 60 58 55 51 48 49 48 46 45 41 39 42 44 44

GEFSMA_500_meanwind_072.txt.gz
Wind_Speed
23 22 22 22 23 23 23 23 23 23 23 23 23 24 24 24 25 25 26 26 27 27 28 28 29 29 29 30 30 31 31 32 32 32 33 33 33 33 33 33 33 33 33
25 24 24 24 24 24 24 24 24 24 25 25 25 25 26 26 27 27 27 27 28 28 28 29 29 29 29 30 30 31 31 32 32 32 33 33 34 34 34 35 35 35 35
27 27 27 26 26 26 26 26 26 26 27 27 27 27 27 28 28 28 29 29 29 29 29 29 30 30 31 31 31 32 32 33 33 33 33 34 34 35 35 35 36 36 37
30 30 29 29 29 29 29 29 29 29 29 29 29 29 29 30 30 30 30 30 30 30 31 31 31 31 31 32 32 32 32 33 33 34 34 34 35 35 36 36 37 37 38
34 33 32 32 32 32 31 31 31 31 31 31 31 31 31 32 32 32 32 32 32 32 32 32 32 32 32 32 32 33 33 33 34 34 34 35 36 37 37 38 38 39 39
37 36 35 35 35 35 34 34 34 34 34 34 34 34 34 34 34 34 34 34 35 35 35 34 34 34 34 34 34 34 34 34 34 35 36 36 37 37 38 39 40 40 41
39 38 38 38 38 38 38 38 37 37 37 37 37 37 37 37 37 37 37 37 37 37 37 37 36 37 37 37 36 36 36 36 36 37 37 38 38 38 39 40 40 41 42
41 41 41 41 41 41 41 40 40 40 40 40 40 40 40 39 39 40 39 39 39 39 39 39 39 40 40 39 39 39 39 39 39 39 40 40 40 41 41 42 42 43 44
44 44 44 44 44 44 44 44 44 44 44 43 43 43 43 42 42 42 42 42 41 42 42 42 42 43 42 42 42 42 42 42 42 42 42 42 43 43 44 45 45 46 46
46 47 47 47 47 47 47 47 47 47 47 46 46 46 46 46 46 45 44 44 44 44 45 45 45 45 45 45 45 45 45 45 45 45 46 46 46 47 47 48 49 49 50
48 49 49 50 50 50 50 50 50 50 49 49 49 49 49 49 49 48 48 47 47 47 47 48 48 48 48 48 48 48 48 48 48 49 49 49 50 50 51 51 52 52 53
49 50 51 52 52 52 53 53 53 53 53 52 52 52 52 52 52 51 51 50 49 49 50 50 50 50 51 50 50 50 50 50 50 51 52 53 53 54 54 55 56 57 57
49 51 52 53 54 55 55 56 56 55 55 54 54 54 54 53 53 54 53 52 52 52 52 52 52 52 53 53 53 52 52 52 53 55 56 56 57 58 58 59 60 61 62
51 52 54 56 57 58 58 58 58 58 57 57 56 55 56 55 55 56 55 55 55 54 54 54 55 55 55 55 55 54 54 55 56 58 58 59 60 61 62 63 64 65 66
53 55 57 58 59 60 60 61 61 60 59 58 57 57 57 56 56 56 56 56 56 56 55 57 57 58 58 56 56 57 58 59 60 60 61 62 63 64 65 66 68 69 70
54 56 58 59 60 61 61 61 61 60 59 58 57 57 57 57 59 57 56 56 56 56 56 57 58 58 58 57 59 59 60 61 62 63 64 65 67 68 69 70 72 73 74
55 56 58 59 60 60 60 58 57 56 55 55 55 55 55 56 57 55 55 56 58 56 57 57 58 58 58 59 60 61 62 63 64 65 67 68 69 71 72 73 75 76 77
53 55 56 57 57 57 57 56 54 54 53 52 52 54 55 54 53 54 55 55 55 56 56 57 58 58 59 60 61 62 64 65 65 67 69 71 72 73 75 76 78 78 79
50 50 51 52 52 52 51 51 51 50 50 50 51 51 51 51 52 53 53 53 54 55 56 58 58 58 59 61 62 63 65 65 67 69 71 73 74 76 77 78 78 78 77
45 45 45 44 44 45 45 45 45 45 46 47 47 47 48 48 49 50 51 52 53 54 55 56 56 58 60 62 63 64 65 67 69 71 73 75 76 76 77 76 74 73 71
38 38 36 35 35 36 37 37 38 39 40 41 43 43 44 45 45 46 48 49 50 51 53 54 57 59 61 62 63 65 66 68 71 73 73 74 74 73 71 70 69 67 66
31 30 29 28 28 28 29 31 32 32 34 36 38 39 40 41 43 44 45 47 49 51 52 55 57 59 60 62 64 66 68 69 70 71 70 68 67 65 64 63 63 63 62
25 24 23 22 23 23 23 25 27 28 31 32 34 35 36 38 39 41 43 45 48 50 53 55 56 58 60 63 65 66 67 67 66 65 63 61 60 59 59 59 59 59 57
19 19 19 20 20 20 21 21 23 25 26 28 30 31 33 36 38 41 43 46 48 51 53 55 57 59 61 63 64 64 63 62 60 60 59 56 54 53 53 54 55 54 53
15 15 15 15 16 17 19 19 21 23 24 26 29 31 34 36 38 41 44 47 50 52 54 56 58 60 62 62 60 59 58 57 56 56 56 54 51 49 48 49 51 51 50
13 13 13 12 13 14 15 17 19 21 24 27 29 32 34 37 40 43 45 48 50 53 55 57 59 60 59 58 57 56 55 55 54 53 52 49 47 46 43 43 46 47 46

GEFSMA_500_meanwind_078.txt.gz
Wind_Speed
22 22 22 21 21 21 21 21 21 21 21 21 21 21 21 21 20 21 22 22 23 23 24 24 25 25 25 25 25 26 26 26 26 26 26 26 26 26 26 26 27 27 27
24 24 24 23 23 23 23 23 23 23 24 24 24 24 24 24 23 23 24 24 25 25 25 26 26 26 26 26 27 27 27 27 27 27 26 26 27 27 27 27 27 27 27
26 26 26 26 26 26 26 26 26 26 27 27 27 27 27 27 27 26 26 27 27 27 27 27 28 28 28 28 29 29 28 28 28 28 28 28 28 28 28 28 28 28 28
29 28 28 29 29 29 29 29 29 29 30 30 30 30 30 30 30 30 29 29 30 30 30 30 30 30 30 30 30 30 30 30 30 30 30 30 30 30 29 29 29 29 29
31 31 31 31 32 32 32 32 32 33 33 33 33 33 33 34 34 33 33 33 32 32 33 33 33 33 33 33 33 33 33 33 33 33 33 33 33 32 32 31 31 32 32
34 34 34 34 35 35 35 35 36 36 37 37 37 37 37 37 37 36 36 36 36 36 35 35 36 36 36 36 36 36 36 36 35 35 35 35 36 36 35 35 34 34 34
37 37 37 37 37 37 38 38 39 39 40 40 41 41 41 40 40 40 40 40 39 39 39 38 39 39 39 39 39 39 39 39 38 38 38 38 39 39 38 38 38 38 37
39 39 39 39 40 40 41 41 41 42 43 43 44 45 44 44 43 43 43 43 43 43 43 42 42 42 41 42 42 42 42 42 42 41 42 42 41 41 41 41 41 41 41
41 41 41 42 42 43 43 43 44 45 46 46 47 48 48 47 47 47 47 47 47 46 45 45 45 44 44 44 45 46 46 46 45 45 45 45 45 44 44 44 44 44 44
42 43 43 44 44 45 45 46 47 47 48 49 50 50 51 52 51 50 50 50 49 49 48 48 48 47 47 47 48 49 49 49 48 47 47 47 47 47 47 47 47 47 47
44 44 45 45 46 47 47 48 48 49 50 51 52 53 54 55 54 54 53 53 52 52 51 50 50 50 50 50 50 51 51 51 51 50 49 49 49 49 49 49 49 49 49
45 46 47 47 47 48 49 49 50 51 52 53 54 54 55 56 56 57 57 56 56 54 54 53 53 53 53 53 53 52 53 54 53 51 50 51 51 51 51 51 51 51 52
46 46 47 48 48 49 49 50 51 52 54 55 56 56 57 58 58 58 59 58 58 57 56 55 54 54 56 56 55 56 56 55 53 53 53 53 53 53 53 52 52 53 54
46 46 46 47 48 48 49 51 52 54 55 56 57 58 59 59 60 60 59 58 58 58 57 57 56 56 57 56 56 56 55 54 54 53 53 53 53 54 54 54 55 55 56
45 45 45 46 46 47 49 51 53 54 55 57 58 58 59 60 60 60 59 58 58 58 58 58 57 57 58 56 56 56 55 55 53 52 53 53 53 53 54 55 56 57 58
44 44 44 45 46 47 49 51 52 53 54 56 57 57 58 59 59 58 57 56 56 56 57 56 57 57 58 57 55 55 56 55 55 55 54 54 55 56 57 57 58 59 59
42 42 42 43 45 46 48 49 50 52 53 53 54 54 54 53 54 54 54 55 54 54 54 55 55 56 57 57 56 55 55 54 54 54 54 55 57 58 59 59 60 61 62
39 39 41 42 43 45 46 47 48 49 49 49 50 50 49 48 49 49 50 51 51 51 52 52 52 54 55 56 55 54 55 54 53 54 56 57 57 58 59 60 61 62 63
37 38 38 39 41 42 43 44 45 45 45 45 44 44 44 43 43 43 44 46 47 49 49 50 51 51 52 53 54 54 54 53 54 55 57 57 58 59 60 61 62 63 64
35 36 37 38 39 40 40 41 41 41 40 40 40 39 39 39 38 38 40 41 43 45 47 48 48 49 51 53 53 53 53 55 55 57 57 59 59 60 61 62 63 63 63
34 34 35 36 37 37 37 37 36 36 36 35 35 35 34 34 34 36 37 38 40 42 45 46 46 48 50 50 52 52 53 55 57 58 58 59 60 61 61 62 62 62 62
31 32 32 33 33 34 34 34 33 33 32 32 32 32 32 32 33 34 35 37 39 41 42 44 45 47 49 50 51 52 54 55 57 58 58 59 60 60 60 60 60 60 60
29 29 30 30 31 31 31 32 32 31 30 30 29 30 30 30 31 32 34 36 37 38 41 42 45 47 48 50 52 53 54 56 57 58 58 58 59 58 58 58 58 58 57
27 27 28 28 28 28 28 28 28 28 27 28 27 27 28 29 30 33 35 36 37 39 41 43 45 46 48 50 52 53 55 56 57 58 58 55 55 55 54 55 57 57 56
25 26 26 27 27 27 27 27 27 27 27 27 27 28 29 30 31 33 35 37 38 40 42 44 46 48 50 52 53 54 55 55 55 56 56 54 53 52 52 53 55 54 53
24 25 25 25 26 26 26 25 25 25 26 26 27 28 29 30 32 34 36 38 40 42 44 46 48 50 51 52 53 54 54 54 54 53 53 52 51 50 47 48 50 51 50

GEFSMA_500_meanwind_084.txt.gz
Wind_Speed
23 23 23 23 23 22 22 22 22 22 23 23 23 23 23 23 24 25 25 25 25 26 26 26 26 26 26 26 26 26 26 25 25 25 25 25 24 24 23 23 23 23 23
24 24 24 24 24 24 24 24 24 24 25 25 26 26 26 26 27 28 28 28 28 29 29 29 29 29 29 29 29 28 28 28 28 27 27 27 26 26 26 25 25 24 24
26 26 26 26 26 25 25 26 26 27 27 28 28 29 29 29 30 30 31 31 32 32 32 32 32 32 32 32 32 32 31 31 31 30 30 30 29 29 28 28 28 27 27
28 27 27 27 27 27 27 28 29 30 30 31 32 32 32 32 32 33 33 34 35 35 35 35 35 35 35 35 35 35 35 35 34 34 33 33 32 31 31 31 30 30 30
29 29 29 29 29 29 29 30 31 32 33 34 35 35 35 36 36 36 36 37 37 38 38 38 38 39 39 39 39 39 38 38 38 37 36 36 35 35 34 34 34 33 33
31 31 31 31 31 31 32 33 33 34 35 36 37 37 38 38 38 39 39 40 40 41 41 41 41 42 42 42 42 42 42 41 40 40 40 39 39 38 37 37 36 36 36
33 33 32 32 33 33 34 35 35 36 37 38 39 39 40 40 40 41 42 43 43 43 43 44 44 45 45 45 45 45 45 44 43 43 42 42 41 41 40 40 40 39 39
35 35 34 34 34 35 35 36 38 38 39 40 41 42 42 42 42 44 45 45 45 45 46 46 47 47 47 47 47 48 47 47 46 46 45 44 44 44 44 43 43 42 42
36 36 36 36 37 37 38 39 40 40 41 42 43 44 45 45 45 45 46 47 47 48 48 49 49 50 50 50 50 50 50 50 49 49 48 47 47 46 46 45 44 44 44
38 38 38 38 39 39 40 40 41 42 43 44 45 46 47 47 47 47 46 47 49 50 50 51 51 51 51 51 52 52 51 51 51 50 50 49 49 48 47 45 45 46 46
39 39 39 40 41 41 42 43 43 44 45 46 47 47 47 48 48 48 48 49 50 50 51 52 52 52 52 52 52 52 51 52 52 52 52 52 50 49 47 47 46 46 47
41 41 41 42 43 43 44 45 45 46 47 47 47 48 48 48 48 49 50 51 51 51 52 53 54 54 54 54 54 53 52 52 52 52 52 51 49 50 49 48 48 47 47
43 43 44 44 44 45 45 46 47 47 47 47 48 48 48 48 50 51 52 52 52 52 52 53 54 54 54 55 54 54 52 52 50 51 51 51 50 49 48 48 47 46 46
44 45 45 45 45 46 46 47 47 47 47 47 47 47 48 49 50 51 51 52 52 52 52 51 52 53 53 53 53 53 52 50 51 50 50 49 49 48 47 44 45 46 47
45 45 45 45 46 46 46 46 46 46 46 46 47 47 48 48 49 49 50 51 52 52 50 50 50 50 50 49 51 50 49 50 50 49 50 50 49 49 48 46 46 48 48
45 45 45 45 45 46 46 45 45 45 46 45 45 46 47 47 47 48 49 49 50 50 49 49 49 48 49 49 49 48 49 48 47 48 49 49 47 47 47 48 48 48 48
45 45 45 45 45 45 45 44 44 44 44 44 45 45 45 46 46 46 47 48 48 48 49 48 48 47 46 46 46 46 46 46 46 46 46 45 45 47 47 47 47 48 49
43 44 44 44 44 43 43 42 42 42 42 43 43 44 44 45 45 45 46 46 46 46 46 46 46 46 46 45 44 45 45 45 45 45 45 45 47 48 49 49 49 50 51
42 42 42 42 42 41 41 40 40 40 41 41 42 42 43 43 43 43 44 43 44 44 43 43 43 43 42 43 43 43 43 44 45 46 46 47 48 49 50 50 50 51 52
41 40 40 40 39 39 38 38 38 39 39 40 41 41 41 40 41 41 41 41 41 41 40 40 40 41 41 41 41 42 43 44 45 46 47 48 49 50 50 51 52 53 53
38 38 37 37 37 37 37 37 36 37 37 38 38 38 38 38 39 39 39 38 38 38 38 39 39 40 40 41 42 43 43 45 45 46 48 49 49 51 52 52 53 54 54
35 35 35 35 35 35 35 34 35 35 36 36 36 36 36 37 37 37 37 36 36 37 37 38 39 39 40 41 42 43 44 45 46 48 49 50 51 52 53 53 54 54 55
33 33 33 33 33 33 33 33 34 35 34 34 34 35 35 36 36 36 36 36 37 37 38 38 39 40 41 42 43 44 45 46 47 48 49 50 52 52 54 54 55 55 54
31 31 31 31 31 31 32 32 33 32 32 33 33 33 34 34 34 35 36 37 37 38 38 39 40 41 42 43 44 45 47 48 49 50 50 50 52 53 54 54 54 54 53
29 29 29 29 29 30 30 30 31 31 32 32 32 33 33 34 34 35 36 36 37 38 39 40 41 42 44 45 46 47 48 48 49 50 50 50 51 51 52 52 53 52 51
27 27 27 27 28 28 29 29 30 31 31 31 32 32 33 34 35 35 36 37 38 40 41 42 43 44 45 46 47 48 48 48 48 49 49 49 49 49 49 50 51 50 49

GEFSMA_500_meanwind_090.txt.gz
Wind_Speed
22 22 22 23 23 23 23 23 23 24 24 25 26 26 27 28 28 29 29 30 31 31 31 32 32 32 33 33 33 33 33 33 33 33 33 32 32 31 30 30 29 28 27
25 24 24 24 24 24 24 25 25 25 26 27 28 28 29 30 30 31 31 32 33 34 34 34 35 35 35 36 36 36 36 36 36 36 36 35 35 34 33 33 32 31 30
27 26 26 26 26 26 26 26 27 27 28 29 29 30 30 31 32 32 33 35 35 36 37 37 37 38 38 39 39 39 39 39 39 38 38 38 37 37 36 36 36 35 33
29 28 28 28 28 28 28 28 28 29 29 30 31 31 32 33 33 34 35 36 37 38 39 39 40 40 40 41 41 41 41 41 41 40 40 40 40 39 39 39 38 37 37
31 30 30 30 30 29 29 30 30 31 31 32 33 33 34 34 35 36 37 38 39 40 40 41 41 42 42 43 43 43 43 43 42 42 42 42 42 42 41 41 40 40 39
33 32 32 32 32 31 31 32 32 32 33 34 34 35 36 36 37 38 39 40 41 41 42 43 43 44 44 44 44 44 44 44 44 44 44 44 44 44 44 43 43 42 42
35 34 34 34 34 33 33 34 34 34 35 36 37 37 37 38 38 40 41 42 42 43 43 44 44 45 44 44 45 45 45 45 45 45 45 46 46 46 45 45 45 44 44
37 37 36 36 36 36 35 35 36 36 37 38 39 40 39 39 40 41 42 43 44 44 44 45 45 45 45 45 45 46 46 46 46 46 47 47 47 47 46 45 46 46 45
40 39 38 38 38 37 37 37 38 39 39 40 41 42 42 41 42 42 43 44 44 44 45 46 46 46 46 46 47 46 46 46 47 47 47 48 46 46 47 48 48 47 47
42 41 40 40 39 39 39 40 40 41 42 42 43 44 44 45 45 44 43 44 44 44 45 45 45 46 46 47 47 47 47 47 47 48 47 47 48 46 46 48 48 48 48
43 43 42 42 41 41 41 42 42 43 43 44 44 45 45 46 46 47 45 44 44 44 44 44 45 45 46 47 47 48 48 48 48 49 48 47 47 47 47 47 46 46 45
45 44 44 43 43 43 43 43 43 44 45 45 46 46 46 47 46 47 46 45 45 44 44 44 45 46 46 46 46 47 47 47 47 48 47 46 46 47 46 45 44 44 43
46 46 45 45 45 45 45 45 45 45 46 47 47 47 47 47 47 47 47 45 45 44 44 44 45 46 46 47 47 48 48 48 47 47 46 46 45 45 44 43 42 42 42
47 47 47 46 46 47 47 47 46 47 47 47 47 47 47 47 47 47 46 45 45 44 44 44 45 46 46 47 47 47 47 47 47 47 47 46 45 44 42 41 42 42 42
49 48 48 48 48 48 48 48 48 48 48 47 47 47 47 47 46 46 45 45 45 44 44 44 45 45 45 46 46 46 46 46 46 46 45 45 44 43 44 43 43 43 43
50 49 49 49 49 49 49 49 48 48 47 47 47 47 46 46 45 45 45 44 44 44 44 44 43 44 44 45 45 45 45 45 45 43 43 43 42 43 43 43 43 44 44
50 50 49 49 49 49 49 48 48 48 47 46 46 46 45 45 44 44 44 44 44 44 44 43 43 43 43 44 44 44 43 43 43 43 43 42 42 43 43 43 43 43 42
50 49 49 49 48 48 48 47 47 47 46 46 45 44 44 43 43 43 42 42 43 43 43 42 43 42 43 43 42 42 42 42 42 41 41 41 42 43 44 44 44 44 43
48 47 47 46 46 46 45 45 45 44 44 44 43 42 42 41 41 41 41 41 42 42 42 42 42 42 42 41 41 41 41 41 41 41 41 41 42 43 44 45 45 45 45
46 45 45 45 44 44 43 43 43 43 42 41 41 40 40 40 39 39 40 41 41 41 41 41 41 41 41 41 41 41 41 41 42 42 42 43 43 44 45 45 46 46 47
44 43 43 43 43 42 42 42 41 40 39 39 38 38 38 38 38 39 39 40 40 40 40 40 41 41 41 41 41 41 42 42 42 42 42 43 44 45 45 46 47 48 48
42 42 42 41 41 41 40 39 38 37 37 37 36 36 37 37 37 38 38 39 39 39 40 40 40 41 41 41 42 42 43 43 43 43 43 44 45 45 46 46 46 46 47
41 40 40 39 38 38 37 36 36 35 35 35 35 35 36 36 37 38 38 38 39 39 39 40 40 40 41 42 43 43 44 44 43 43 44 44 45 45 46 46 46 46 46
38 38 37 36 35 35 35 34 34 34 34 34 34 35 35 36 37 37 37 37 38 38 39 40 40 41 42 42 43 43 44 44 44 45 45 45 46 46 47 47 47 46 46
34 34 34 33 33 33 33 32 33 33 33 34 34 35 35 36 36 36 36 37 37 38 39 40 41 41 42 42 43 44 44 44 45 46 46 46 46 46 46 47 48 48 48
32 32 32 31 31 31 31 32 32 32 33 33 34 35 35 35 35 36 36 37 38 39 40 40 41 42 42 43 44 45 45 46 46 46 47 47 47 47 46 47 49 50 49

GEFSMA_500_meanwind_096.txt.gz
Wind_Speed
21 20 20 20 20 19 19 20 20 21 21 22 23 23 24 25 26 27 28 28 29 30 31 32 32 32 33 33 33 33 33 33 33 33 34 34 34 34 34 33 33 33 32
24 23 23 23 22 22 22 22 22 23 23 24 25 25 26 27 28 28 29 30 31 32 33 33 34 34 34 34 34 34 34 35 35 35 35 35 35 35 35 35 35 34 34
27 27 26 26 25 25 25 25 25 25 26 26 27 27 28 28 29 30 31 32 33 34 34 35 35 35 35 36 36 36 36 36 36 36 36 36 36 36 36 36 35 35 36
30 30 29 29 28 27 27 28 28 28 28 28 29 29 29 30 31 31 32 34 35 35 36 36 37 37 37 37 37 37 37 37 37 37 37 37 36 37 37 37 37 37 37
34 33 33 32 31 30 30 30 30 30 30 31 31 31 31 32 32 33 34 35 36 37 37 38 38 38 38 38 38 38 38 38 38 38 37 37 37 37 38 38 38 38 38
38 37 36 36 35 34 34 33 33 33 33 33 33 33 33 34 34 35 36 37 38 39 39 39 39 39 39 39 39 39 39 38 38 38 37 37 37 38 38 39 39 40 40
41 40 39 39 38 37 37 36 36 36 36 36 36 36 35 35 36 37 38 39 40 40 40 41 41 41 41 41 41 40 40 39 39 38 38 38 39 39 40 39 40 40 41
45 44 42 41 41 40 40 39 39 39 38 39 39 39 37 37 37 39 40 41 41 42 42 43 43 43 43 42 42 41 40 39 38 38 39 39 40 40 40 40 40 41 41
46 45 44 44 44 43 42 42 41 41 41 41 41 41 41 40 40 39 40 41 42 43 44 44 44 44 43 43 42 42 41 40 40 40 40 41 41 41 41 41 41 41 40
48 47 47 47 46 46 45 44 44 43 43 43 43 43 43 43 43 42 41 41 42 43 44 44 44 44 43 43 42 41 41 40 41 41 41 41 40 41 41 41 41 41 40
51 50 49 48 48 47 47 47 46 46 45 45 45 44 44 44 44 45 44 44 44 44 45 44 44 43 43 43 42 41 41 41 41 41 41 41 41 40 40 40 40 40 39
51 51 52 51 50 50 49 48 48 48 47 47 46 46 46 46 46 46 46 46 46 45 45 45 44 44 44 43 42 42 41 41 41 41 41 41 40 40 40 40 39 39 39
52 52 52 52 51 51 50 50 50 49 49 49 48 48 48 48 47 47 47 46 46 45 45 45 45 45 44 43 43 42 42 42 41 41 40 40 39 39 39 39 38 38 38
53 53 52 52 52 52 52 52 52 52 51 51 50 49 49 49 49 48 48 47 46 46 45 45 45 45 44 44 43 42 42 42 41 40 39 39 39 38 38 38 38 38 38
53 53 53 53 53 52 52 52 52 51 51 52 51 50 49 48 47 47 47 47 47 46 45 45 45 44 44 43 42 41 41 41 40 40 39 39 39 38 38 38 38 38 38
51 52 52 53 52 52 52 52 52 52 52 51 50 49 49 48 47 47 47 46 46 46 45 44 43 43 42 41 41 41 41 41 40 40 40 39 39 39 38 38 38 38 39
51 51 52 52 52 52 52 52 52 51 50 50 49 48 47 47 47 47 47 47 46 45 44 43 42 42 41 40 40 41 41 40 40 40 40 40 39 39 39 39 39 39 40
51 51 51 52 51 51 51 51 51 50 49 48 48 48 48 48 47 46 46 46 45 44 43 41 41 40 40 40 40 41 40 40 40 40 40 40 40 40 41 41 40 40 41
50 50 50 50 51 51 51 50 49 48 48 48 48 48 47 47 46 45 45 44 43 42 41 40 39 39 39 40 40 40 40 40 40 40 40 41 41 41 41 41 41 41 42
47 48 48 48 48 48 48 48 47 47 47 47 46 45 45 44 44 43 43 42 41 40 39 39 39 39 39 39 39 39 40 40 40 40 41 41 41 41 42 42 42 42 42
44 45 45 45 45 45 45 45 45 45 45 44 44 43 43 42 42 41 40 39 39 38 38 38 39 38 39 39 39 39 39 40 40 41 41 41 42 42 42 42 42 42 43
42 43 43 43 43 43 43 43 43 43 43 43 42 42 41 40 40 39 38 38 38 38 38 38 38 38 39 39 39 39 39 40 40 40 41 42 42 42 42 43 43 43 43
41 41 41 41 41 41 41 42 42 42 42 41 41 40 39 39 38 38 37 37 37 37 38 38 38 38 38 38 39 39 40 40 41 41 41 42 43 43 44 44 45 45 45
39 39 39 39 39 40 40 40 40 40 40 39 38 38 37 37 37 36 36 36 36 37 37 37 38 38 38 39 39 39 40 41 41 41 42 43 44 44 45 45 46 46 47
37 38 38 37 37 38 38 38 38 37 37 36 36 36 36 36 35 35 35 35 36 37 37 37 38 38 38 39 39 40 40 41 41 42 43 44 44 44 45 45 46 47 47
35 36 36 35 35 35 35 35 35 35 34 35 35 35 34 34 34 34 34 35 36 36 36 37 37 38 38 39 40 41 41 42 42 43 44 44 44 44 44 45 47 47 48

GEFSMA_500_meanwind_102.txt.gz
Wind_Speed
20 20 19 19 18 18 18 18 18 18 19 19 20 20 21 22 23 24 24 25 26 27 28 28 29 29 30 31 31 32 32 32 32 32 32 32 32 32 31 31 31 31 31
23 22 22 21 21 21 21 21 21 21 22 22 23 23 24 25 25 26 27 27 28 29 30 30 31 31 32 33 33 33 33 33 33 33 33 33 33 33 33 33 32 32 32
25 25 24 24 24 24 24 24 24 24 25 25 25 26 26 27 28 28 29 30 30 31 32 32 33 33 34 34 34 34 35 35 35 35 35 35 35 35 34 34 33 33 32
28 27 27 27 27 27 27 27 27 27 28 28 28 28 29 30 30 31 32 32 33 33 34 34 35 35 35 35 35 36 36 36 36 36 36 36 36 36 35 34 34 33 33
31 30 30 30 30 29 30 30 31 31 31 31 31 31 32 32 33 33 34 35 35 36 36 36 37 37 37 38 38 37 37 37 37 37 38 37 37 37 36 35 34 34 34
34 34 33 34 34 33 33 33 33 34 34 34 34 34 35 35 35 36 37 37 38 38 38 38 39 39 40 40 40 39 38 38 38 38 38 38 38 37 36 36 35 35 35
37 37 36 37 37 37 37 38 37 37 37 37 37 37 37 38 38 38 39 39 40 40 41 40 41 41 41 41 41 40 40 40 40 39 39 38 38 37 36 36 36 36 36
39 40 40 40 40 40 40 41 41 40 40 41 41 41 40 40 40 41 41 41 42 42 42 43 43 44 44 43 42 41 41 41 41 40 39 39 38 37 37 36 36 36 36
42 43 43 43 43 43 43 44 44 44 43 43 44 44 44 43 43 42 42 42 43 43 44 45 45 45 45 44 43 43 43 42 42 41 40 39 38 38 37 36 36 36 36
44 45 45 46 47 47 47 47 47 46 46 46 46 46 47 47 46 45 44 44 45 45 45 45 45 46 45 45 44 44 44 43 42 41 41 39 38 37 37 37 37 36 36
46 46 47 48 49 50 49 49 49 49 49 48 48 48 49 49 49 50 48 47 47 46 46 46 46 46 45 45 44 44 44 43 42 42 41 39 38 38 38 37 37 36 36
48 49 49 50 51 51 51 50 50 50 50 51 51 51 51 50 50 50 50 49 48 48 47 47 47 46 45 44 44 44 44 43 43 42 40 39 38 38 37 37 37 36 36
51 51 52 52 52 52 52 52 52 52 52 52 52 52 52 51 51 51 51 50 50 49 48 47 46 46 45 44 44 44 44 43 43 41 40 38 38 37 37 36 36 36 36
53 53 54 53 53 53 53 53 54 54 54 53 53 52 52 52 52 52 52 51 50 49 47 46 45 45 45 45 45 44 44 43 42 41 39 38 38 37 37 36 36 36 36
54 54 54 54 54 53 53 53 53 53 53 52 53 53 52 52 51 51 50 50 49 48 46 45 45 45 45 45 45 45 44 43 42 41 40 39 38 37 36 36 35 35 35
52 53 52 52 52 53 53 52 52 52 51 51 51 51 51 51 51 49 49 48 48 47 45 45 45 45 45 45 45 44 42 42 41 40 39 38 37 37 36 36 36 36 36
51 51 51 51 51 50 51 51 52 51 51 50 50 50 51 50 49 49 48 48 48 47 46 46 45 45 44 44 44 43 42 41 40 39 38 37 37 37 36 36 36 36 36
50 49 49 49 49 49 49 50 50 50 50 50 50 50 49 49 48 48 48 47 47 47 46 46 45 44 43 42 42 41 40 39 38 38 37 37 37 37 37 37 37 36 36
48 48 48 48 48 48 48 48 48 48 48 48 48 48 48 47 47 46 46 46 46 46 45 44 43 42 42 41 40 40 39 38 38 37 37 37 37 37 37 37 37 37 37
47 46 47 46 47 47 46 46 45 45 45 46 46 46 46 46 46 46 45 45 44 44 43 42 41 41 41 40 39 38 38 37 37 37 37 37 37 37 37 37 38 38 38
45 45 45 45 45 45 45 44 44 44 44 44 44 45 44 44 44 44 44 43 43 42 41 41 40 40 39 38 38 38 37 37 37 37 37 37 37 37 38 38 38 38 39
43 44 44 44 44 44 44 44 44 44 44 43 43 43 43 43 43 42 42 42 41 40 40 39 39 39 38 38 38 37 37 36 36 37 37 37 37 38 39 39 39 39 39
42 43 43 43 43 43 43 43 42 42 42 42 42 42 41 41 41 41 40 40 40 39 39 39 39 38 37 37 37 36 36 36 36 37 37 38 38 39 40 40 40 40 40
41 41 42 42 42 42 42 41 41 41 40 40 40 40 40 39 39 39 39 39 38 38 38 38 37 37 37 36 36 36 36 36 37 37 37 38 39 39 40 40 40 41 41
41 41 41 41 41 41 40 40 39 39 38 38 38 38 38 37 37 37 36 37 37 36 36 36 36 36 36 36 36 36 36 37 37 37 38 38 39 40 40 40 41 41 41
39 40 39 39 39 39 38 38 37 37 37 36 36 36 35 35 35 34 35 35 35 35 35 35 35 35 35 35 36 36 36 37 37 38 38 39 40 40 39 40 41 41 42

GEFSMA_500_meanwind_108.txt.gz
Wind_Speed
22 22 22 21 21 20 20 19 19 19 19 19 19 19 20 21 21 22 22 23 24 24 25 25 26 27 28 29 29 30 31 31 32 32 33 33 33 32 32 32 32 31 31
24 24 23 23 23 23 22 22 21 21 21 21 21 22 22 23 24 24 25 26 26 27 27 28 29 30 30 30 31 32 33 33 33 34 34 34 34 34 34 33 33 33 32
26 26 26 26 25 25 25 24 24 24 23 23 24 24 25 25 26 27 27 28 28 29 30 31 32 32 32 32 33 34 34 34 35 36 36 36 36 35 35 34 34 34 34
28 28 28 28 27 27 27 27 26 26 26 26 26 26 27 28 28 29 30 30 31 32 33 34 34 35 35 35 35 35 36 36 37 37 38 37 37 36 36 35 35 35 35
29 29 29 29 29 29 29 29 29 28 28 28 29 29 30 30 31 32 32 33 34 34 35 36 36 37 37 37 37 37 38 38 38 38 39 39 39 38 37 36 36 36 35
31 31 31 31 31 31 31 31 31 31 31 31 31 31 32 33 34 34 35 36 36 37 38 38 38 38 39 39 40 39 39 39 39 39 40 40 40 39 38 38 37 36 35
33 33 34 34 33 33 32 32 33 34 34 34 35 35 36 37 37 38 38 39 39 40 39 40 40 40 41 41 41 41 41 41 41 41 41 40 40 40 39 38 38 37 35
36 36 36 35 35 35 35 36 36 37 37 37 37 38 38 39 39 40 40 41 42 42 42 42 42 42 43 43 43 43 43 43 43 42 41 41 41 40 39 38 38 37 35
37 38 38 38 38 38 37 37 38 39 40 41 41 42 42 42 42 42 43 43 44 45 45 45 45 45 45 45 45 45 44 44 43 43 42 41 40 39 39 38 38 37 36
39 39 39 39 39 39 39 40 40 40 41 42 43 44 45 46 46 46 45 45 46 46 47 47 47 47 47 46 46 46 45 45 44 43 42 41 40 39 39 39 38 37 36
41 41 41 41 41 41 41 42 42 43 44 44 45 47 48 48 48 48 47 47 47 47 48 49 49 48 48 47 48 47 46 45 44 43 43 42 41 40 39 39 38 37 36
43 43 44 43 43 43 43 44 45 46 47 47 48 48 49 48 48 49 49 48 48 48 49 49 48 49 49 49 48 47 45 44 44 44 44 42 41 40 40 39 38 37 36
45 45 46 46 46 46 47 47 47 48 48 49 49 49 50 50 50 50 50 50 50 50 49 49 49 49 48 48 47 46 45 45 45 44 43 42 41 41 40 39 38 37 36
48 48 48 48 49 49 49 49 49 49 49 49 50 50 51 51 50 50 50 51 51 51 51 50 50 49 48 47 47 47 46 45 44 44 42 41 42 41 40 38 37 36 35
49 49 50 50 50 50 51 50 50 50 51 50 50 51 51 51 52 51 51 51 52 52 49 48 48 47 47 47 47 46 45 45 44 43 42 42 41 40 38 37 36 35 34
51 51 52 52 52 51 50 51 51 52 51 51 51 51 51 51 51 51 51 51 51 50 49 48 47 47 46 47 46 46 45 44 44 42 42 41 40 38 37 36 35 34 33
52 52 52 51 51 50 50 50 50 50 50 50 50 50 50 50 50 50 50 50 49 49 49 47 47 46 46 45 44 44 44 44 42 42 40 39 37 37 36 35 34 33 33
51 51 50 50 50 50 50 49 50 49 49 50 50 50 49 49 49 49 49 48 48 48 47 47 46 45 45 44 44 44 43 42 42 40 38 37 36 36 35 34 34 33 33
50 50 50 50 50 50 50 49 49 49 48 48 48 48 48 48 48 47 47 47 47 47 46 46 45 45 45 44 43 43 42 41 40 39 37 37 36 36 34 34 33 33 33
48 49 49 48 48 48 48 47 47 47 47 47 47 47 47 46 46 46 46 46 46 46 45 45 45 44 43 42 42 41 40 39 38 37 36 36 35 34 34 34 34 34 33
46 46 46 46 46 46 46 46 45 45 45 45 46 46 46 46 46 45 45 45 45 45 44 44 43 43 41 41 40 39 38 37 37 37 36 35 35 34 34 34 34 34 34
44 44 44 44 44 44 44 44 44 44 45 45 45 45 45 45 44 44 44 43 43 43 43 42 41 41 40 39 38 38 37 36 36 36 36 35 35 35 34 34 34 34 34
43 43 43 43 43 43 43 43 43 44 44 45 45 45 44 43 43 42 42 42 42 41 41 40 39 39 38 38 37 37 36 36 35 35 36 35 35 35 34 34 34 35 35
42 42 42 42 43 43 44 44 45 45 45 45 44 43 42 42 41 41 40 40 40 39 38 38 38 37 37 36 36 36 36 36 36 36 35 35 35 34 34 34 35 35 36
42 42 42 42 43 43 44 44 44 44 44 44 43 42 41 41 40 40 39 39 38 38 38 37 37 37 36 36 35 35 35 35 35 35 34 34 34 34 34 35 35 36 36
41 41 41 42 42 42 41 41 41 41 41 41 41 40 40 39 39 39 38 38 37 37 36 36 36 35 35 35 35 35 35 35 35 34 34 34 34 34 34 35 36 36 37

GEFSMA_500_meanwind_114.txt.gz
Wind_Speed
23 23 22 21 21 21 21 20 20 20 20 20 21 21 21 22 22 22 22 23 23 24 25 25 26 27 28 29 30 31 31 32 32 33 34 34 34 35 35 35 35 35 34
25 24 24 23 23 23 22 22 22 22 22 23 23 23 24 24 24 24 24 25 25 26 27 27 28 29 30 31 32 32 33 33 34 34 35 35 35 36 36 36 36 36 36
27 26 26 25 25 25 25 24 24 25 25 25 25 26 26 26 26 26 26 26 27 28 28 30 31 32 32 33 33 34 35 35 35 35 36 36 37 38 38 38 37 37 37
29 28 28 27 27 27 27 27 27 27 27 27 27 27 27 28 28 28 28 29 29 30 31 32 33 34 35 35 36 36 36 36 37 37 38 38 39 39 40 39 39 38 38
31 30 30 29 29 29 30 29 29 29 29 29 29 29 29 29 29 30 30 31 32 33 34 35 36 36 37 37 37 38 38 39 39 40 40 40 41 41 41 41 40 40 39
33 33 32 32 32 32 32 32 31 31 31 31 31 31 31 31 31 32 33 34 35 36 36 37 38 38 38 39 39 39 40 41 42 42 43 43 43 43 42 41 41 40 39
36 35 35 35 35 34 34 34 33 33 33 34 33 33 33 33 34 35 35 36 37 37 38 39 40 40 41 41 41 41 42 42 43 44 44 44 44 44 43 43 42 41 40
39 38 38 38 38 38 37 36 36 35 35 35 35 35 35 35 35 36 36 37 39 39 40 41 42 42 42 43 43 43 44 44 45 45 45 45 45 45 44 44 43 42 41
40 40 40 39 39 39 38 38 37 36 35 35 36 36 36 35 36 37 38 39 40 41 42 43 44 44 44 44 44 44 45 46 46 46 46 47 46 45 45 44 42 41 41
42 41 40 40 39 38 38 38 36 36 37 37 38 38 39 39 39 39 40 41 42 43 44 44 45 45 45 46 46 47 47 47 47 47 47 47 46 45 43 42 42 41 41
44 42 40 39 40 39 38 38 39 39 38 38 39 40 41 41 42 43 42 42 43 44 44 45 45 46 46 46 47 47 48 48 48 48 47 46 45 44 43 42 41 40 40
43 42 42 41 41 40 39 39 40 39 39 39 40 41 42 43 44 45 45 44 44 44 45 46 46 47 47 48 48 48 48 49 49 48 47 46 45 44 43 42 40 39 38
44 44 44 42 41 41 41 42 41 40 40 41 41 42 42 44 44 45 45 45 46 46 46 46 47 48 48 48 48 49 49 49 49 48 46 45 44 43 42 41 40 39 38
44 42 43 43 43 43 43 42 41 41 41 42 43 43 44 44 45 46 47 48 49 48 48 48 48 49 49 49 49 49 49 49 48 47 45 44 43 42 41 41 40 38 37
44 45 44 45 44 43 43 43 43 42 43 44 44 44 45 46 47 48 48 49 50 49 48 48 48 48 49 49 49 49 49 48 47 46 45 43 42 42 41 40 38 37 36
44 44 45 45 45 45 46 45 45 45 45 44 46 47 47 47 48 48 49 49 50 50 49 48 48 49 49 49 49 49 48 46 46 45 44 43 42 41 40 38 37 36 36
47 47 47 46 46 46 46 47 47 47 47 47 48 48 48 48 49 49 49 50 50 50 49 48 48 49 49 49 48 47 46 45 44 43 42 42 41 40 39 38 37 36 35
48 48 48 47 47 47 48 48 48 48 48 48 48 48 48 49 49 49 49 49 49 49 48 48 47 48 48 48 47 46 45 44 43 42 42 41 40 39 38 37 36 35 35
49 50 49 48 48 48 48 48 47 47 47 47 48 48 48 48 49 49 49 48 48 48 48 47 47 47 47 47 46 45 44 43 43 42 40 39 39 38 36 36 35 34 34
50 51 49 48 48 48 48 48 47 46 46 47 48 48 47 47 47 47 47 48 47 47 47 47 46 46 46 46 45 44 43 42 41 40 39 38 37 36 36 35 34 34 33
50 49 48 48 47 47 47 47 47 46 46 47 47 46 46 46 46 46 47 47 47 46 46 46 46 45 45 44 43 42 41 40 39 38 37 37 36 36 35 34 34 34 34
49 49 48 48 47 46 47 47 47 47 46 46 46 46 45 46 46 46 46 46 46 46 46 46 45 44 44 43 41 40 40 39 38 38 37 36 35 35 35 34 34 34 34
47 47 47 47 47 47 46 46 46 46 46 45 45 45 45 45 45 45 46 46 46 46 45 45 44 43 42 41 40 39 39 38 37 36 36 36 35 35 35 35 34 35 34
46 46 46 45 45 45 45 44 45 44 44 44 44 44 44 45 45 45 45 45 44 44 43 43 42 42 41 40 39 38 37 37 36 36 35 35 36 35 35 34 34 35 34
46 45 45 44 44 44 44 44 43 43 43 43 43 43 44 44 43 43 43 43 42 42 41 41 40 40 39 38 37 37 36 35 35 36 35 35 35 34 34 34 34 34 33
43 43 43 43 43 43 42 42 42 42 42 42 42 42 42 42 42 42 41 41 40 40 39 39 38 37 37 37 37 36 35 35 35 35 35 34 34 34 33 33 34 34 33

GEFSMA_500_meanwind_120.txt.gz
Wind_Speed
28 27 27 26 25 24 24 23 23 22 22 22 22 21 21 21 21 21 22 22 23 23 24 24 25 25 26 27 27 28 29 30 31 32 32 33 34 34 35 35 35 36 37
30 29 28 27 26 26 25 25 24 24 24 23 23 23 23 23 24 24 24 24 25 25 25 26 26 27 28 28 29 30 31 32 33 34 34 35 35 36 36 36 37 38 38
32 31 30 29 28 27 27 26 26 26 26 26 26 26 26 26 26 26 27 27 27 27 27 28 28 29 30 30 31 32 33 34 35 35 36 36 36 36 37 38 38 39 39
34 33 32 31 31 30 30 29 28 28 28 28 28 28 28 28 28 29 29 29 29 29 29 30 30 31 31 32 33 34 35 36 36 36 37 37 37 38 39 39 40 40 40
35 35 34 33 33 32 32 31 31 31 30 30 30 30 30 31 31 31 31 31 31 31 31 32 32 32 33 34 35 36 36 37 37 37 38 38 39 40 40 41 41 42 41
38 37 36 35 35 34 34 34 34 33 33 33 33 32 32 32 32 32 32 32 32 33 34 34 34 34 35 36 36 37 38 38 39 39 39 40 40 41 42 42 43 42 42
40 39 38 37 36 36 36 36 36 35 36 36 35 35 34 34 34 34 34 34 36 36 36 36 36 36 37 38 38 39 39 39 39 40 40 41 42 42 43 43 44 43 42
42 42 40 39 39 38 38 38 37 37 37 38 38 38 37 36 36 36 36 37 38 38 38 37 38 38 39 39 39 40 40 41 41 42 42 43 43 44 45 45 44 44 43
44 44 42 42 41 40 40 40 40 40 40 40 39 38 38 37 37 37 37 38 38 38 39 38 39 40 41 40 40 41 42 43 44 44 45 45 45 45 45 45 45 44 43
46 46 44 44 43 42 42 42 42 42 42 41 40 39 39 40 39 38 38 39 39 40 40 41 42 42 41 42 43 44 45 46 46 46 46 46 46 46 46 45 45 44 42
47 47 46 45 46 45 45 45 45 44 43 42 41 41 40 40 40 40 40 40 41 41 41 42 42 42 43 44 45 46 47 47 47 46 46 46 47 47 46 45 44 43 42
50 49 48 48 48 48 48 47 46 44 44 43 43 42 41 41 40 41 41 41 41 41 41 42 43 43 44 45 46 47 47 47 46 46 47 47 47 47 46 45 44 42 41
51 50 50 50 50 50 48 48 47 46 45 45 44 43 42 42 42 42 42 42 42 41 41 42 43 44 45 47 47 47 47 47 47 47 47 47 47 46 45 44 43 42 40
51 52 53 52 51 50 49 49 47 46 44 43 43 43 42 43 43 42 42 42 42 41 42 43 44 46 47 48 48 48 47 47 47 47 47 46 46 45 44 43 42 41 39
51 51 51 50 50 50 51 50 48 45 44 44 43 43 44 44 43 43 43 43 42 42 43 45 46 47 48 48 48 47 47 47 47 47 47 46 45 44 43 42 41 40 38
49 51 49 48 48 48 49 49 47 46 45 44 44 45 44 44 44 44 44 44 44 45 45 46 47 48 48 48 47 47 47 47 47 47 46 45 44 42 42 41 40 39 37
46 47 47 47 47 47 46 46 46 46 46 45 44 44 44 44 43 43 44 44 45 46 47 47 47 47 47 47 47 47 47 47 47 46 45 44 43 42 41 40 38 38 37
45 46 47 46 48 48 47 45 45 44 45 45 44 44 44 44 44 44 45 45 46 46 47 47 47 48 48 48 48 47 47 46 46 45 44 43 43 41 40 39 38 37 36
44 45 45 45 46 46 46 46 45 45 44 44 44 44 45 46 45 46 46 46 46 47 47 47 48 48 48 47 47 47 46 46 45 44 43 42 41 40 40 38 37 36 36
45 45 45 45 46 45 45 45 46 46 45 45 46 46 46 46 46 46 46 46 47 47 46 46 46 46 46 46 46 45 45 45 44 43 41 41 40 40 39 37 36 35 34
44 44 45 45 45 45 44 45 45 45 46 45 45 46 45 45 45 46 45 46 46 46 46 46 45 45 45 45 44 44 43 43 42 41 40 39 39 38 37 36 35 34 33
45 45 44 45 45 44 44 45 45 45 46 45 45 45 45 45 45 45 46 45 45 45 45 45 44 44 44 44 43 42 42 41 40 40 39 39 38 37 36 35 34 33 33
45 45 45 45 45 44 44 45 45 45 45 46 45 45 45 45 45 45 45 44 44 44 44 43 42 42 42 41 41 41 40 39 39 39 38 37 37 36 35 34 33 33 33
43 44 45 44 44 44 44 44 44 44 44 44 44 44 44 44 43 43 43 43 43 42 42 41 41 41 40 40 39 39 39 39 38 38 37 36 36 35 34 34 33 33 32
41 42 42 42 42 42 42 42 42 42 43 43 42 43 42 42 42 42 42 42 42 41 40 40 40 40 39 39 38 38 38 38 37 37 37 36 35 34 34 33 33 33 32
40 40 39 40 40 40 40 41 41 41 42 42 42 42 41 40 40 40 40 41 41 40 40 40 40 39 38 38 38 37 37 37 36 36 36 35 34 34 33 33 33 32 32

GEFSMA_500_meanwind_126.txt.gz
Wind_Speed
33 32 30 29 28 27 26 25 25 24 24 24 23 23 22 22 22 22 22 22 22 22 22 23 23 24 24 25 25 26 26 27 28 28 29 30 31 31 31 32 33 35 35
35 34 32 31 30 29 28 27 27 26 26 25 25 25 24 24 24 24 24 24 24 24 25 25 25 26 26 27 27 27 28 28 29 30 31 31 32 32 33 34 35 36 37
37 36 34 33 32 31 30 29 29 28 27 27 27 27 27 27 26 26 26 26 26 27 27 27 27 28 29 29 29 29 29 30 30 31 32 32 32 33 34 35 36 38 39
38 37 36 35 34 33 32 31 30 29 29 29 29 29 29 29 29 29 29 29 29 29 29 30 30 30 31 31 30 30 31 31 32 33 33 33 34 35 36 37 38 40 41
40 39 38 37 36 35 34 33 33 32 32 31 31 31 31 31 31 31 32 32 32 32 32 32 32 32 32 32 32 32 32 33 33 34 34 35 36 37 38 39 40 41 42
41 41 40 39 38 37 36 35 34 34 34 34 34 34 34 34 34 34 34 34 34 34 34 33 34 34 34 33 33 33 33 34 35 35 35 36 37 38 39 41 42 43 44
42 42 41 40 40 39 37 37 36 36 36 36 36 36 36 36 36 36 36 36 36 36 37 37 36 35 35 35 35 35 35 36 37 37 37 37 38 40 41 43 44 44 45
43 43 42 41 40 40 39 39 39 38 38 37 38 38 38 37 37 37 37 37 38 38 38 37 37 37 36 36 37 37 38 38 38 38 38 39 40 42 43 44 45 46 46
44 44 44 43 42 42 42 41 41 41 40 40 40 40 40 39 38 37 37 38 38 38 37 37 37 37 37 37 38 39 39 39 39 39 39 40 42 43 45 46 47 47 47
45 46 45 44 44 44 43 44 44 43 43 43 42 42 41 41 40 39 39 39 39 39 38 38 38 39 40 39 39 40 40 40 41 41 42 43 44 45 46 47 48 48 47
45 45 45 45 44 45 46 46 45 45 45 45 45 45 44 43 43 42 42 41 41 40 40 39 40 40 41 41 41 41 41 42 42 43 44 45 46 47 47 48 48 48 47
45 45 46 46 47 47 48 48 47 48 48 47 47 46 45 44 45 45 44 43 43 42 41 40 41 42 42 42 42 43 43 43 44 44 45 46 47 48 48 48 48 48 47
46 46 46 47 48 48 48 48 49 49 49 49 49 48 47 47 47 47 46 45 45 44 43 43 43 43 43 43 43 43 44 44 44 45 46 47 48 48 48 48 49 49 47
46 47 47 47 49 50 50 50 51 51 51 51 52 51 49 49 49 48 48 48 47 47 46 46 45 44 44 45 44 45 44 44 45 46 47 48 49 49 49 49 49 49 46
45 46 47 49 50 52 52 53 53 53 53 52 52 52 52 52 52 50 48 49 48 48 46 45 47 46 45 45 45 44 45 45 46 46 47 49 49 50 50 50 49 47 45
43 44 46 47 48 50 52 53 54 54 53 53 53 54 52 52 51 50 49 49 48 46 44 45 46 46 45 45 45 45 45 45 46 47 49 49 49 49 50 49 47 45 44
40 42 43 44 45 47 50 52 53 53 54 54 53 53 53 53 52 50 50 48 47 47 46 45 45 45 46 46 46 46 47 48 49 49 49 49 49 49 49 47 45 44 42
42 44 44 45 47 49 49 50 51 51 51 51 52 52 52 52 51 51 50 49 48 48 47 46 47 47 47 47 47 47 48 49 49 49 48 48 48 48 47 45 44 42 40
41 42 43 44 46 47 47 48 50 50 49 49 49 49 50 50 49 49 48 47 46 46 45 46 46 46 48 48 48 48 49 48 48 48 48 47 47 46 45 44 42 40 38
37 38 40 41 43 44 45 46 47 47 48 48 48 48 48 48 47 48 47 46 45 45 44 45 46 47 48 48 48 47 47 47 47 47 47 46 46 45 43 41 40 39 38
34 34 36 38 40 41 42 44 44 45 46 46 47 46 45 45 45 44 44 44 45 45 45 46 46 46 46 46 46 46 46 46 46 46 46 46 45 43 41 40 39 38 37
35 35 35 36 37 39 40 41 42 43 43 44 43 42 42 42 43 44 44 44 45 45 46 45 45 45 45 45 44 45 45 45 46 45 45 44 43 42 40 39 38 37 36
35 37 38 38 38 38 38 39 39 41 41 41 41 41 41 42 42 43 44 44 44 44 44 44 44 44 44 43 44 44 45 45 45 44 43 42 41 40 38 38 37 36 36
36 37 39 39 39 39 39 39 40 40 40 40 40 40 41 42 44 45 44 44 44 43 43 44 44 44 44 44 45 45 44 44 43 42 41 41 40 39 38 37 36 36 35
37 39 39 39 40 40 40 40 40 39 39 40 40 40 41 42 42 43 44 44 44 44 43 43 44 44 44 44 44 44 43 42 41 41 40 39 39 38 37 36 35 35 34
38 39 39 39 40 40 40 40 40 39 39 39 40 40 41 41 41 42 43 43 44 44 44 43 42 43 43 43 43 42 42 41 41 40 40 39 38 37 36 35 35 34 33

GEFSMA_500_meanwind_132.txt.gz
Wind_Speed
38 37 35 33 32 31 30 29 28 27 26 26 26 26 26 26 25 25 25 25 25 25 25 25 25 25 25 25 26 26 26 27 28 29 28 28 29 29 29 29 29 29 29
39 38 37 35 34 33 32 31 30 29 29 28 28 27 27 27 27 27 27 26 27 27 27 27 27 27 27 28 27 28 28 29 30 30 30 30 30 31 31 30 30 30 30
41 40 39 38 36 35 34 33 33 32 31 30 30 29 29 29 29 29 28 28 28 28 28 29 29 29 29 29 29 30 30 30 31 31 31 31 31 32 32 32 31 31 32
42 42 41 39 39 38 37 35 35 34 33 32 31 31 31 31 31 30 30 30 30 30 31 31 31 32 32 31 31 32 32 32 32 32 32 32 33 33 33 33 33 33 34
45 44 42 41 40 39 38 37 37 36 35 34 34 34 33 33 32 32 32 32 32 33 33 33 34 34 34 33 33 33 34 34 34 34 34 34 34 34 34 34 35 35 37
46 45 44 42 41 40 39 39 38 37 37 36 36 35 35 34 34 34 34 35 35 35 35 35 35 35 35 35 35 35 35 35 35 35 35 35 35 35 35 35 37 38 39
46 45 43 42 42 41 40 40 39 38 38 38 39 39 38 37 37 37 37 37 37 37 37 37 37 37 37 37 37 37 37 37 37 36 36 36 36 36 36 37 38 40 41
47 45 45 44 43 43 43 42 41 41 41 41 42 42 41 40 39 39 39 38 39 39 38 38 38 38 39 39 39 38 37 37 37 37 37 37 37 38 38 40 41 42 43
48 46 45 46 46 45 45 44 43 43 42 43 44 44 42 41 41 40 40 40 41 41 41 40 40 40 40 40 39 38 38 38 38 38 39 39 39 40 40 41 42 43 44
48 47 46 46 47 47 46 46 45 45 45 45 46 45 44 43 43 43 42 43 43 43 43 43 42 41 41 40 40 40 40 40 40 41 41 41 42 42 43 43 44 45 46
48 47 46 46 47 46 47 46 45 46 47 47 47 46 45 46 46 46 46 46 46 46 46 45 44 43 42 42 42 42 42 42 42 43 43 43 44 44 45 45 45 46 46
47 48 47 47 47 47 46 46 45 45 46 46 45 46 46 47 47 47 48 48 48 48 47 46 45 45 45 45 45 45 45 45 46 46 46 46 46 46 46 46 46 47 47
45 47 46 47 47 47 47 47 46 46 45 45 46 47 47 48 48 48 49 49 49 48 48 48 47 48 48 48 47 47 48 48 48 48 47 47 47 47 47 47 47 48 48
43 44 45 46 47 47 46 45 46 47 47 48 48 48 49 50 50 49 49 49 49 49 49 49 49 48 48 49 49 49 49 49 49 49 48 48 47 47 47 47 47 47 48
41 43 42 44 45 45 45 45 46 47 47 48 49 50 50 51 51 51 51 52 52 52 50 50 50 50 50 50 50 50 50 49 48 48 48 48 48 47 47 47 47 47 47
38 41 42 42 45 47 48 47 48 47 47 48 50 52 52 52 52 53 53 53 53 53 51 50 51 52 52 51 50 50 49 48 48 48 48 47 47 46 47 47 47 47 46
34 37 38 40 41 43 43 44 44 45 46 48 50 52 52 52 53 53 54 54 53 53 53 52 52 52 51 51 50 49 47 47 48 48 47 47 47 46 46 47 46 46 45
33 34 35 36 37 39 41 42 42 43 45 46 47 48 49 51 53 53 52 52 52 51 52 52 51 51 52 52 51 49 47 47 47 48 48 48 47 45 45 45 45 44 43
33 34 35 35 37 38 39 40 41 42 43 45 46 47 48 51 51 50 51 51 51 52 53 52 51 52 53 53 50 47 46 46 47 47 47 46 44 44 44 45 44 43 42
33 35 37 37 38 39 40 41 42 43 44 46 46 47 48 50 51 51 51 51 52 53 53 52 52 51 50 51 49 49 47 46 47 48 47 46 44 44 43 43 42 42 42
34 36 38 39 40 40 42 42 43 44 45 46 47 48 48 49 50 50 50 51 52 52 52 51 49 49 48 48 50 50 48 47 46 46 45 45 43 42 42 42 42 42 42
34 35 37 39 41 43 44 45 45 45 46 46 46 47 47 47 47 48 49 50 50 50 49 48 47 48 47 47 48 49 48 47 46 45 44 43 43 42 42 42 41 41 40
34 35 37 38 40 42 43 45 46 46 47 47 47 47 47 46 47 47 47 47 48 47 47 46 47 47 47 47 48 48 48 47 45 44 44 43 43 42 42 41 40 40 39
34 35 37 38 39 40 41 42 43 44 46 46 46 47 46 45 45 45 45 46 45 45 45 46 45 46 47 48 47 47 47 47 45 44 43 42 43 42 41 41 39 39 39
35 36 38 38 39 40 41 41 41 43 44 45 44 44 44 44 44 45 45 46 46 45 45 46 46 46 46 47 47 46 45 45 44 43 43 42 41 41 41 40 38 38 38
38 39 39 39 39 41 41 42 43 44 44 45 44 44 44 43 43 44 44 44 44 44 44 44 45 44 44 45 44 44 44 44 43 42 41 40 40 40 39 39 38 38 38

GEFSMA_500_meanwind_138.txt.gz
Wind_Speed
39 38 37 36 34 33 32 31 31 29 28 27 27 26 26 27 27 27 27 27 27 27 27 27 27 27 27 27 28 28 28 29 30 30 30 30 30 30 30 29 30 30 30
41 39 39 38 36 35 33 33 32 31 31 29 29 29 29 29 29 29 29 28 28 29 29 29 29 29 29 29 29 30 30 31 31 32 32 32 32 32 32 32 32 31 31
43 42 41 39 37 36 36 35 35 34 32 31 31 31 31 31 31 31 31 31 31 31 31 31 31 31 31 31 32 32 32 32 33 33 33 33 34 33 33 33 33 33 32
45 43 42 40 39 38 38 37 36 35 34 33 33 33 32 32 32 32 33 33 33 33 33 33 33 33 33 33 34 34 34 34 35 35 35 36 36 35 35 35 34 34 33
46 44 43 42 41 41 40 38 37 37 36 36 35 35 34 34 34 34 34 35 35 35 35 35 35 35 35 36 36 36 37 37 37 37 37 37 37 36 36 35 35 35 35
47 45 43 43 43 42 40 39 38 38 39 38 38 37 37 37 37 37 37 37 38 38 37 37 37 38 38 38 38 39 39 39 39 39 39 39 38 37 37 37 36 36 37
49 47 45 44 43 42 41 40 41 40 41 41 40 39 39 39 39 39 40 39 39 39 39 39 38 39 39 40 40 41 41 41 41 41 40 40 40 40 39 39 38 38 38
51 48 46 44 43 43 42 41 42 42 41 42 43 43 42 41 41 40 41 41 41 42 41 42 42 42 41 41 41 42 42 42 42 42 41 41 41 41 42 41 40 40 41
52 50 49 47 46 45 44 43 44 44 43 43 43 44 44 44 44 43 43 43 44 44 44 44 45 45 44 44 43 43 44 44 43 43 43 44 44 44 43 43 43 43 43
53 51 50 48 46 45 45 46 45 44 44 45 46 46 46 46 46 45 44 45 45 46 46 47 47 46 46 46 46 46 46 46 45 45 45 45 44 45 44 44 45 45 44
53 52 51 49 49 48 47 47 46 46 47 48 49 48 48 48 48 48 47 47 47 48 48 48 47 47 47 47 47 48 48 48 47 46 46 46 46 46 46 45 45 45 45
54 53 52 51 50 50 48 47 48 49 51 51 50 50 50 49 49 49 49 48 48 48 48 48 48 48 48 47 47 48 49 49 48 48 48 48 48 48 47 46 45 46 46
53 51 51 51 51 50 51 51 51 50 50 50 51 51 51 50 50 50 50 50 49 49 48 48 48 48 49 49 49 49 49 49 49 49 49 48 48 48 47 46 46 47 47
50 49 49 50 50 50 50 50 50 49 49 50 52 51 51 51 51 51 51 51 52 50 49 48 49 51 50 50 50 50 49 50 49 49 49 48 47 47 47 46 47 47 46
48 48 47 47 49 50 50 50 49 50 51 51 52 52 51 50 51 51 51 52 52 51 50 49 50 50 51 51 51 50 50 50 49 48 49 50 48 48 47 46 46 46 46
46 47 46 45 45 46 47 48 49 50 50 50 50 51 50 50 52 53 53 53 52 53 53 51 51 51 51 51 51 51 51 50 50 50 50 50 50 48 47 46 46 46 46
39 40 41 42 44 46 46 46 47 48 48 49 50 50 50 50 51 51 52 52 53 53 53 52 52 52 51 51 52 52 52 51 51 51 51 51 51 50 48 48 47 47 46
36 37 38 40 43 44 45 46 47 46 47 47 48 48 49 49 50 51 52 52 52 53 54 53 51 51 52 51 52 52 52 52 52 51 51 51 51 50 49 49 48 47 45
34 36 37 39 41 43 44 44 44 44 44 44 45 47 47 49 50 50 51 51 51 53 53 53 52 52 51 51 52 52 52 52 51 50 50 50 49 49 48 48 47 46 45
30 32 34 36 39 42 44 44 44 44 44 45 46 47 48 48 49 50 51 51 51 52 53 53 54 53 52 52 53 53 53 52 51 50 50 49 48 48 47 46 45 45 43
30 32 33 35 37 39 41 43 44 45 45 46 46 46 46 47 48 50 50 50 51 52 53 53 53 54 53 53 52 51 52 51 49 49 49 48 47 47 46 44 43 43 42
30 32 35 37 38 38 40 43 44 45 45 46 45 45 46 47 48 49 50 51 52 53 53 53 54 53 52 51 51 50 50 49 48 47 47 46 46 46 45 43 43 42 41
32 34 36 37 39 40 41 42 44 45 45 45 45 46 47 48 49 49 49 50 51 53 53 52 52 52 50 50 49 48 47 46 46 45 45 45 45 44 44 43 42 41 41
32 34 36 39 39 40 41 42 44 45 45 46 46 47 46 47 48 48 49 50 51 51 51 50 51 50 49 47 47 46 46 45 45 44 44 44 43 43 42 42 41 40 39
34 35 36 38 38 39 41 42 44 45 46 47 47 48 48 48 48 48 48 48 48 48 48 48 47 47 46 45 45 44 44 44 43 43 42 42 42 41 41 41 40 39 38
35 35 35 35 38 40 41 43 45 46 47 48 48 49 49 49 49 49 49 48 46 45 45 45 45 44 44 44 43 42 41 40 40 40 40 40 40 40 40 39 38 37 36

GEFSMA_500_meanwind_144.txt.gz
Wind_Speed
43 42 41 39 38 36 34 33 33 32 32 31 30 29 28 28 27 27 26 26 26 27 27 27 28 28 28 28 29 29 29 29 30 30 30 30 30 31 31 31 31 31 31
45 44 43 42 40 39 37 35 34 34 33 33 32 31 30 30 29 29 29 28 29 29 29 29 29 29 30 30 30 31 31 31 31 32 32 32 33 33 33 33 32 32 32
48 46 45 44 43 41 40 38 37 36 35 34 34 33 32 31 31 31 31 31 30 30 30 30 30 30 31 32 32 32 33 33 33 33 33 34 34 34 34 34 34 33 33
50 49 47 46 45 44 42 40 39 37 36 35 35 34 34 34 34 33 33 32 32 32 32 32 32 33 33 34 34 34 35 35 35 35 36 36 36 36 36 36 35 34 34
52 51 49 48 48 46 44 41 40 39 38 37 36 36 36 36 35 35 34 34 33 34 34 35 35 36 36 36 37 37 37 37 38 37 37 38 38 38 38 37 36 36 36
55 54 52 50 49 47 45 44 43 42 41 40 39 38 38 38 38 37 36 36 36 36 37 37 38 38 39 39 39 39 40 39 40 40 40 40 41 40 39 38 38 38 37
56 55 54 52 50 49 46 45 45 44 42 42 42 41 40 40 40 39 38 38 38 38 39 40 41 42 42 42 42 42 42 42 43 43 43 43 43 42 41 41 40 40 39
56 55 54 54 52 51 49 47 47 45 44 43 43 43 42 42 42 41 41 40 41 41 41 42 43 44 44 44 44 45 45 45 45 45 46 45 45 44 43 43 42 41 40
56 55 53 53 54 53 51 49 49 47 46 45 45 44 44 44 42 42 42 43 43 43 44 44 44 45 45 46 46 47 47 48 47 47 47 47 46 46 45 44 44 43 42
55 55 55 54 53 53 53 51 50 48 47 46 46 45 46 46 45 44 44 44 45 45 45 45 45 46 46 47 47 48 48 48 48 48 48 47 46 46 46 46 45 44 44
55 55 55 53 52 53 53 51 51 51 49 47 48 47 48 48 47 48 46 46 47 47 47 47 47 48 49 49 49 50 50 50 50 49 49 48 48 47 47 46 46 45 45
53 53 54 53 52 53 54 53 52 52 51 49 49 48 49 49 49 49 49 48 48 47 48 49 49 50 51 52 52 52 52 51 51 50 50 49 49 49 47 46 46 47 46
50 50 51 52 53 53 55 55 54 53 52 52 52 51 51 51 51 49 49 49 49 49 49 50 51 52 53 53 54 53 52 53 53 52 52 51 51 50 48 47 47 47 47
46 47 49 51 52 53 54 55 56 54 54 54 53 52 53 52 52 51 51 51 51 51 51 51 51 52 53 54 54 54 54 54 54 55 54 53 53 52 51 49 48 47 47
42 44 45 47 50 52 53 54 54 54 54 54 54 54 54 53 53 53 54 54 54 53 52 51 51 52 53 53 54 55 55 55 55 55 55 54 53 52 51 50 49 49 48
39 41 43 44 47 50 51 53 53 53 53 54 55 55 54 54 55 54 54 54 54 54 53 51 52 53 54 54 55 55 55 55 54 54 54 53 51 51 51 50 49 48 48
37 39 41 43 44 47 49 50 52 53 53 53 53 53 54 55 55 55 55 54 54 55 54 52 53 53 54 55 55 55 56 55 54 53 52 51 50 49 49 49 49 48 47
33 36 39 40 41 43 45 47 50 51 52 52 52 53 53 53 54 54 54 53 53 54 54 53 53 53 53 54 53 53 53 53 52 51 50 49 48 49 48 48 48 47 47
30 33 37 39 41 42 44 46 47 49 50 50 51 51 51 52 53 53 53 52 52 53 53 54 54 53 53 53 53 53 52 51 50 50 50 49 49 49 49 48 47 46 46
28 31 34 37 39 41 42 44 45 47 49 49 49 49 50 52 53 52 52 52 52 53 54 55 54 54 53 53 53 53 52 52 51 50 50 49 50 50 49 47 45 45 44
27 29 31 33 35 38 40 43 44 46 48 49 49 50 51 52 52 51 51 51 52 54 55 54 54 54 53 53 53 54 54 53 52 52 51 50 49 48 47 46 44 43 43
25 27 28 31 34 36 39 42 44 45 47 48 49 50 51 52 51 51 51 52 52 53 52 52 52 53 53 53 53 53 53 53 52 51 51 49 48 47 46 45 43 42 40
25 27 29 31 33 35 38 41 43 45 46 47 47 49 51 50 51 53 54 53 53 53 53 53 53 53 53 53 54 53 52 52 51 49 49 47 47 46 45 43 43 42 40
25 26 28 30 32 34 37 39 41 42 43 45 46 47 49 49 51 52 53 54 54 54 54 55 54 53 53 53 53 52 51 51 50 49 48 48 47 46 45 43 42 42 40
26 27 28 30 31 33 36 38 39 40 41 42 43 44 46 47 48 50 51 52 52 52 52 52 52 52 52 51 51 50 50 50 50 49 48 48 47 46 44 42 41 40 38
26 28 28 30 33 34 35 36 37 38 39 40 42 42 44 45 46 47 48 49 50 50 50 51 51 50 49 49 49 49 49 49 49 48 47 45 44 43 41 40 39 38 37

GEFSMA_500_meanwind_150.txt.gz
Wind_Speed
46 44 42 40 39 38 36 35 35 35 34 34 33 33 32 31 31 30 29 29 28 27 27 27 26 26 27 27 27 28 28 28 28 29 29 29 29 29 29 29 29 29 29
49 47 45 43 42 40 39 37 36 36 36 35 34 34 34 34 33 31 31 30 30 29 28 28 28 28 28 29 29 30 30 31 31 31 31 31 31 31 31 31 31 31 31
51 50 48 46 45 44 42 41 39 38 38 38 37 36 35 35 35 34 33 32 32 31 31 30 30 30 30 30 31 31 32 33 33 33 33 33 33 33 33 33 33 33 32
54 53 51 49 47 46 45 44 42 40 40 40 39 38 37 36 36 35 35 34 33 33 33 33 33 32 32 33 33 33 34 34 35 35 35 35 35 35 35 35 35 35 34
57 56 54 52 51 49 47 46 45 43 42 41 41 40 39 38 37 37 36 35 35 35 35 35 35 34 35 35 36 36 36 36 36 37 37 37 37 37 37 37 37 36 36
58 57 56 54 53 52 50 49 48 47 45 44 43 42 42 40 39 39 38 37 37 37 37 37 37 37 37 38 38 38 38 38 38 38 39 39 39 39 39 39 38 38 38
58 58 57 56 55 53 51 50 50 49 47 47 46 45 44 43 42 40 40 39 38 38 38 39 39 39 39 40 40 40 40 40 40 40 40 40 40 41 41 41 41 40 40
58 57 57 56 56 54 52 52 51 50 49 48 48 48 47 45 43 41 41 41 40 40 40 40 41 41 41 41 41 42 42 41 41 41 42 42 43 43 44 44 44 43 43
56 56 56 56 56 55 53 53 52 50 49 49 49 49 49 47 45 44 43 43 42 42 43 42 42 42 42 43 43 43 43 43 43 44 44 45 46 46 46 46 46 46 45
55 56 56 56 56 56 54 53 52 52 51 51 51 50 50 50 49 47 45 45 45 45 45 46 45 45 45 45 45 44 45 45 45 46 47 48 49 49 50 49 48 47 46
53 55 55 55 54 54 53 52 50 51 52 52 53 53 52 52 52 51 49 48 48 47 46 47 47 46 46 46 46 46 46 47 48 49 49 49 50 51 51 50 49 48 47
49 51 52 54 52 52 53 53 50 50 51 52 53 53 53 54 54 54 53 50 50 49 48 48 47 47 48 47 47 47 47 48 49 50 51 51 51 51 50 49 49 49 49
45 47 49 50 50 50 50 51 50 49 49 51 51 51 52 53 54 55 56 53 52 51 50 49 48 48 48 48 48 49 49 49 49 50 52 52 53 52 51 51 51 50 50
40 40 42 46 47 48 48 49 50 50 50 50 51 50 52 53 53 54 55 56 54 52 50 50 50 50 49 49 48 49 49 50 50 51 52 53 53 52 52 51 51 51 50
35 36 38 41 42 44 44 46 48 49 50 50 51 52 52 53 54 54 54 54 55 54 52 51 50 49 50 50 49 50 51 51 50 50 51 52 52 51 51 51 51 50 49
32 32 35 38 40 41 42 43 45 47 48 48 50 51 53 54 54 54 54 54 54 54 53 52 51 50 50 50 50 51 51 51 51 51 51 51 50 50 50 50 49 49 49
30 31 32 36 38 40 41 43 44 46 47 48 49 51 53 52 53 53 53 53 54 54 54 52 52 52 52 52 52 52 52 52 52 52 51 51 52 52 52 51 50 49 48
27 29 32 35 36 38 39 41 43 44 46 48 49 50 50 51 51 52 53 53 54 54 55 53 52 52 52 52 52 52 52 52 53 53 52 53 53 53 52 52 51 50 48
22 24 27 31 34 35 37 39 40 42 44 47 48 48 49 49 49 50 52 53 54 55 55 54 53 52 51 51 53 53 53 53 54 54 53 54 54 53 52 51 51 50 48
22 24 27 29 31 33 35 37 39 41 42 44 45 46 46 47 48 49 50 52 53 54 55 55 54 53 52 52 53 53 53 54 55 55 55 55 55 53 52 51 50 49 48
23 25 27 28 30 31 33 35 38 40 41 42 43 43 44 46 47 49 50 50 51 53 54 54 53 53 53 53 53 54 55 55 55 55 55 55 55 54 51 50 49 48 47
23 24 26 27 28 30 31 34 36 38 38 39 41 42 42 43 45 48 50 50 51 51 52 53 52 53 53 54 54 55 55 55 55 54 55 54 54 53 51 50 49 49 47
23 24 26 27 29 30 32 33 33 35 37 38 39 39 40 42 44 46 47 48 48 49 50 50 52 52 52 52 53 55 55 54 53 53 53 53 53 51 49 49 49 47 46
23 24 26 28 29 30 31 31 32 34 36 37 37 37 38 39 40 42 44 46 47 46 47 48 49 49 49 49 49 49 50 50 50 50 49 50 49 48 48 47 46 46 45
24 24 26 27 28 29 29 30 32 33 34 35 36 37 37 38 39 41 42 43 42 43 43 45 46 45 45 45 45 46 46 46 46 45 45 45 45 45 46 45 45 44 43
24 24 25 26 28 29 29 30 31 32 33 34 36 36 37 38 39 39 39 39 39 40 41 41 42 42 43 42 42 43 44 45 45 44 43 43 42 42 42 41 42 41 41

GEFSMA_500_meanwind_156.txt.gz
Wind_Speed
47 46 45 44 43 42 41 40 38 37 37 36 34 35 35 34 33 33 33 33 32 32 31 30 29 29 29 29 29 29 29 29 29 29 29 29 29 28 28 28 28 28 27
48 48 47 46 45 45 44 43 41 40 39 38 37 36 36 36 35 35 34 34 34 33 33 32 31 31 31 30 31 31 31 30 30 31 31 31 31 30 30 30 30 30 30
51 50 49 49 48 47 46 45 44 43 42 41 40 39 38 38 37 36 36 36 36 35 34 34 34 33 33 33 33 33 33 33 33 33 33 33 33 32 32 32 32 32 32
53 52 52 52 51 50 48 47 46 45 44 44 43 42 41 40 39 38 38 37 37 37 36 36 36 36 35 35 35 34 34 34 34 34 34 34 34 34 34 34 34 34 33
55 54 54 53 53 52 51 50 49 48 47 46 46 45 44 43 42 40 39 39 39 38 37 37 37 38 37 37 37 37 36 36 36 36 36 35 36 36 36 36 36 36 36
54 55 55 55 55 54 53 52 51 50 49 48 48 47 46 45 45 42 41 40 41 40 40 39 39 39 39 39 39 39 39 39 38 38 38 38 38 38 38 38 38 39 39
53 53 53 54 55 55 55 53 53 53 51 50 49 48 48 47 47 44 43 42 42 42 42 42 41 41 40 41 41 41 41 41 41 41 41 41 41 40 41 41 41 41 42
52 53 53 54 54 55 55 54 54 53 52 51 50 49 49 49 49 47 45 44 43 43 43 43 43 43 42 42 43 43 43 43 43 43 43 43 43 43 43 43 43 44 44
51 53 54 54 53 53 53 54 53 52 52 52 52 51 51 51 48 47 45 45 45 45 44 44 44 44 45 44 44 45 45 45 45 46 46 46 46 45 45 45 45 46 46
49 51 52 53 54 53 53 52 52 53 54 54 54 53 53 51 50 48 47 47 46 46 46 46 47 46 46 46 46 46 47 47 48 47 47 47 47 47 46 46 46 47 46
47 48 49 50 52 52 52 52 52 52 53 54 53 52 52 53 52 51 50 50 50 48 48 48 48 49 49 49 48 48 48 48 48 48 48 48 48 48 47 47 46 45 45
43 45 47 48 49 50 50 51 52 52 51 51 52 53 53 52 52 52 52 51 51 49 49 49 50 50 51 51 50 49 48 48 48 49 49 49 49 48 48 47 47 46 46
42 42 43 45 47 48 49 50 51 51 51 51 51 52 52 52 52 52 53 52 51 50 50 50 50 50 51 51 50 49 48 48 49 49 49 49 50 49 48 48 48 48 49
38 39 40 42 44 46 47 48 49 50 50 51 51 51 51 52 53 53 53 53 52 51 50 51 50 50 50 51 51 50 50 50 50 50 50 50 50 50 50 50 49 49 50
35 36 37 39 41 44 46 46 46 47 48 50 50 50 50 51 52 52 52 51 52 52 50 50 51 53 52 51 51 52 52 52 52 51 51 51 50 51 50 50 50 49 50
32 32 33 36 38 40 43 45 46 47 47 48 48 48 49 49 50 51 51 51 51 52 52 51 52 53 52 53 53 54 54 53 53 53 53 51 50 50 50 50 50 50 50
29 30 31 32 34 36 39 41 43 45 47 48 47 48 48 49 48 50 51 51 52 53 54 53 52 52 53 54 54 53 53 52 52 52 52 52 51 50 51 51 51 51 51
27 29 30 30 31 33 36 38 40 44 46 46 45 46 48 49 49 50 51 52 52 52 53 53 53 53 54 54 54 54 54 52 52 52 51 52 52 52 52 52 52 52 51
24 27 28 29 30 31 33 35 38 41 42 42 43 45 46 48 48 49 50 51 52 53 53 54 54 54 54 54 53 53 54 53 52 52 52 53 53 53 53 53 53 53 52
20 22 24 25 27 29 31 33 36 38 39 41 42 43 44 45 46 47 48 50 50 52 52 52 52 52 51 51 52 52 52 52 51 50 51 52 52 53 53 54 54 53 51
19 20 22 23 26 27 29 30 31 34 37 39 39 40 42 44 45 46 47 48 49 50 50 49 49 49 48 47 48 48 49 49 48 48 49 50 50 51 51 52 53 52 51
18 20 22 24 26 26 28 29 30 33 35 37 39 41 42 44 44 45 46 47 46 47 47 47 47 47 46 46 46 46 47 47 46 46 47 48 49 50 50 50 51 51 50
20 22 23 24 25 27 28 29 31 33 35 36 37 39 41 43 43 44 44 44 44 44 45 45 45 44 44 44 45 44 45 45 44 44 45 45 46 47 48 48 48 48 47
21 22 24 25 27 28 29 30 31 33 34 36 38 38 40 41 41 42 43 42 42 42 43 44 44 44 44 43 44 44 45 45 44 43 43 44 44 45 45 46 46 46 45
23 25 26 28 29 28 29 30 31 32 34 36 37 37 38 38 39 40 41 41 41 41 42 42 43 43 44 44 44 45 45 45 44 43 43 44 43 43 43 43 42 43 43
27 28 29 30 30 30 30 30 31 32 33 33 34 36 37 38 39 40 40 40 40 40 40 41 42 41 41 42 42 43 43 42 42 42 41 42 41 42 41 40 40 40 40

GEFSMA_500_meanwind_162.txt.gz
Wind_Speed
44 43 44 44 44 44 43 43 42 41 40 40 39 39 38 37 36 35 34 34 34 33 33 32 31 31 31 30 30 30 30 30 29 29 29 29 30 30 30 29 29 29 29
46 45 45 46 46 46 46 45 45 45 44 43 42 41 41 40 39 38 37 36 36 36 35 35 34 33 33 33 32 32 32 32 32 31 31 31 32 32 32 31 31 31 31
47 47 47 47 47 47 48 48 47 46 46 45 45 44 43 43 42 41 41 40 38 38 37 36 36 36 36 36 35 35 34 34 34 34 34 33 34 34 34 33 33 33 32
48 48 48 48 47 48 48 49 49 49 48 47 47 46 46 45 45 44 43 43 41 40 39 38 38 38 38 38 37 37 37 36 35 35 35 36 36 36 36 35 35 35 35
48 49 49 49 48 49 49 49 50 50 50 49 49 48 47 47 47 47 46 45 44 43 41 41 41 40 40 39 39 38 39 38 38 38 38 38 38 38 37 37 37 37 37
47 48 49 49 50 50 50 50 50 51 51 51 51 50 49 49 49 48 48 47 46 45 43 43 43 43 42 42 41 40 40 40 40 39 39 39 39 39 39 39 40 40 39
46 47 48 49 50 51 51 51 51 51 52 52 53 52 51 51 50 50 49 49 48 47 46 45 44 44 44 43 42 41 41 41 41 41 41 40 41 41 41 41 41 41 41
47 47 48 49 50 51 52 52 53 53 52 52 53 52 53 52 51 51 50 49 49 49 48 47 47 47 46 44 43 43 43 43 43 43 43 42 43 43 42 42 42 42 42
47 48 48 49 50 50 51 52 53 54 53 53 53 53 53 52 52 52 51 50 50 50 50 49 49 48 48 46 45 45 45 45 45 45 45 46 45 45 44 43 43 43 43
47 47 47 48 49 49 50 50 51 52 53 52 53 54 55 54 53 52 51 51 51 51 51 51 50 49 48 48 47 47 46 47 47 46 47 48 47 47 46 45 45 45 46
44 45 45 46 47 48 48 49 50 50 52 52 52 53 55 55 54 54 53 51 51 51 50 50 51 49 49 49 49 49 48 48 47 47 48 49 49 48 48 47 46 46 47
43 43 43 45 45 46 47 48 49 49 51 52 52 52 53 54 53 54 54 53 52 51 51 50 50 51 51 50 50 50 49 49 48 48 48 48 48 48 48 48 47 47 47
42 42 43 44 44 44 45 45 46 47 48 50 51 51 52 53 54 54 55 53 52 51 52 52 51 52 52 52 50 50 50 50 50 49 48 48 48 48 48 48 49 48 47
39 41 42 43 43 43 43 43 43 43 44 46 48 49 50 51 51 52 52 52 53 52 53 53 54 54 53 52 51 51 52 50 50 50 49 49 48 49 49 49 49 48 48
37 38 39 40 41 40 40 40 42 42 43 45 46 47 48 47 47 48 50 51 52 52 52 52 53 53 53 53 52 53 53 52 51 50 49 49 49 49 49 50 49 49 49
33 33 35 37 38 39 40 40 41 42 43 45 47 47 47 48 48 49 50 52 52 52 52 52 52 53 54 55 55 53 52 52 52 51 51 51 50 50 51 51 50 49 49
31 32 33 34 36 37 38 39 40 41 42 44 46 46 47 49 49 50 50 51 53 53 53 52 52 52 52 53 53 53 53 53 53 53 53 53 52 52 52 52 51 51 51
28 29 31 32 33 33 35 36 38 39 40 41 43 45 47 48 49 49 50 51 51 52 52 52 52 52 52 52 52 52 54 55 55 54 54 54 53 53 52 52 51 51 51
25 26 27 28 29 30 32 34 36 37 38 40 43 45 46 47 48 50 51 51 51 51 52 53 52 52 53 52 51 51 53 54 54 54 54 54 53 52 52 52 52 51 50
23 23 24 26 27 29 31 33 35 37 37 38 40 42 44 45 47 49 50 50 50 50 52 53 53 53 53 52 52 51 51 51 52 53 53 52 52 52 52 52 51 51 50
23 23 25 26 27 29 31 32 34 35 36 37 37 39 41 43 44 46 47 49 49 50 51 52 52 53 53 52 51 50 49 49 50 51 51 50 50 51 52 51 50 50 50
24 25 26 27 28 29 30 31 32 33 34 35 37 38 40 42 43 44 46 46 47 48 49 51 51 51 52 52 51 50 49 48 48 49 49 49 49 50 50 49 48 48 47
26 27 27 28 29 29 30 31 32 32 34 35 37 39 41 40 42 43 45 45 45 45 47 48 48 49 50 51 50 49 48 47 46 47 47 46 47 47 47 47 46 45 45
27 28 29 29 29 30 31 32 33 34 35 36 37 38 39 39 41 42 43 44 44 44 44 45 46 46 47 48 48 48 48 48 46 45 46 45 44 45 44 44 45 45 44
28 29 30 31 31 31 32 33 35 35 36 36 37 38 39 41 41 43 43 44 43 42 42 43 44 44 44 45 46 47 47 47 45 45 45 45 44 44 43 42 42 43 43
30 31 32 32 33 34 34 35 35 35 36 36 37 37 39 40 41 42 43 43 42 42 42 43 43 42 43 43 43 44 45 45 45 44 43 43 42 42 40 39 40 41 41

GEFSMA_500_meanwind_168.txt.gz
Wind_Speed
39 40 40 40 40 40 40 41 41 41 41 41 40 40 40 40 39 39 38 38 37 36 35 35 34 33 32 32 32 32 31 31 31 30 30 30 30 30 30 30 30 30 30
42 43 43 43 43 43 43 43 43 43 43 44 44 43 43 42 42 42 41 41 41 40 39 38 37 36 35 35 35 34 34 34 33 34 33 33 33 32 32 32 32 32 32
43 43 44 44 44 44 44 43 44 44 44 45 45 46 46 45 45 44 44 44 43 42 42 41 40 40 39 38 37 37 36 36 35 35 35 35 35 34 34 34 33 33 33
42 42 43 43 44 44 44 44 44 45 45 46 46 47 47 47 47 47 46 46 45 44 44 43 42 42 41 41 40 40 39 38 38 38 37 37 37 36 36 36 35 35 35
42 43 43 43 43 43 44 44 45 45 45 45 45 45 46 47 48 48 48 48 47 47 46 45 45 45 44 43 43 42 42 41 40 39 39 38 38 37 37 37 37 37 37
43 43 42 42 42 43 43 44 45 46 46 46 45 45 46 47 49 50 50 49 49 48 48 48 47 47 47 46 46 45 44 44 43 41 41 41 40 39 38 38 38 38 38
42 42 42 43 43 44 44 45 45 46 46 47 47 47 47 48 48 50 51 51 50 50 49 49 49 49 48 47 47 46 45 45 45 44 43 43 42 42 41 41 40 40 40
41 42 43 44 45 45 45 46 47 47 47 47 47 48 48 49 49 51 52 53 52 52 51 50 50 51 51 50 49 48 47 47 47 46 45 45 45 45 44 43 43 42 42
39 40 42 44 45 46 46 46 47 48 49 49 49 50 50 50 50 51 52 53 54 53 53 51 50 50 51 52 51 50 49 48 49 49 47 47 46 46 46 45 45 44 43
40 40 41 43 45 46 47 48 48 48 48 49 50 50 50 50 50 50 51 52 54 54 54 54 53 52 52 52 52 51 50 50 49 49 49 48 47 47 47 47 47 45 45
39 40 41 43 44 45 46 47 47 48 48 48 49 49 49 50 50 50 50 52 53 54 54 54 54 53 52 52 52 52 51 51 50 50 49 48 48 48 47 48 48 48 48
38 39 41 41 42 43 44 45 46 46 47 47 47 48 48 49 50 50 50 51 52 53 55 55 54 54 54 52 52 52 51 50 50 50 50 50 49 49 48 49 49 50 49
38 39 40 40 40 41 43 45 45 45 46 47 47 47 48 48 49 50 50 50 51 51 52 53 54 54 53 52 52 52 52 51 50 51 50 51 51 52 51 50 51 51 51
38 39 39 39 39 40 42 43 44 44 45 46 46 47 48 48 48 49 49 49 50 49 50 51 51 52 51 51 51 51 51 51 52 52 53 53 52 53 53 52 52 52 52
36 37 37 38 39 39 40 41 42 43 44 45 45 45 46 47 47 48 48 49 49 48 47 48 48 49 49 51 50 51 51 51 52 54 54 53 53 52 51 52 53 53 52
34 34 35 36 37 37 38 38 39 40 42 43 43 44 44 45 46 46 46 47 47 47 47 47 49 49 50 51 52 52 52 53 53 54 55 54 53 53 53 54 54 53 52
33 33 33 34 35 35 36 37 37 39 40 41 42 43 43 43 44 45 45 46 47 47 48 48 49 50 51 51 52 52 53 53 54 53 54 55 54 54 54 54 53 52 52
33 33 33 33 33 34 36 36 37 37 38 38 39 40 41 42 43 43 44 45 47 48 49 49 50 50 51 51 52 52 52 53 54 53 53 53 53 53 53 53 53 52 51
31 32 32 32 33 33 34 34 35 35 36 36 37 38 39 40 41 42 43 44 46 48 49 49 49 50 50 51 52 52 53 54 53 52 52 52 51 52 53 52 52 52 51
29 30 31 31 32 31 32 32 33 33 34 35 35 36 38 39 40 41 42 44 45 47 49 49 50 51 51 51 53 53 54 53 52 51 51 50 50 50 50 51 52 51 50
29 30 30 30 31 31 31 31 31 32 33 33 34 35 36 38 40 41 42 43 44 46 48 49 50 50 51 52 53 53 53 52 51 49 49 49 49 49 48 48 50 51 50
29 29 29 30 30 30 31 31 32 32 33 33 34 35 37 38 40 41 42 43 44 45 46 47 48 49 49 49 50 51 51 50 49 48 48 47 47 47 47 47 48 48 49
29 29 29 30 30 31 31 31 32 33 34 34 34 35 37 37 38 39 40 41 42 44 45 46 46 47 48 48 49 48 48 48 48 48 47 46 46 46 46 46 46 47 47
29 30 30 31 31 31 31 31 32 33 34 34 35 36 36 36 36 37 38 39 40 42 43 45 45 45 46 47 47 47 47 46 46 47 47 46 46 46 46 46 46 46 45
30 30 31 32 32 32 32 32 33 33 34 35 35 36 36 36 36 36 37 38 39 41 42 43 43 43 44 44 45 45 46 46 47 47 48 47 46 46 46 45 45 45 43
31 32 32 33 33 33 33 34 34 34 34 35 36 37 36 35 35 36 37 38 39 40 41 41 42 42 43 43 43 44 44 45 46 46 46 47 46 46 46 45 44 43 42

GEFSMA_500_meanwind_174.txt.gz
Wind_Speed
35 35 35 35 35 35 35 36 36 37 37 38 38 38 38 39 39 39 38 37 37 37 37 37 36 36 36 35 35 34 34 33 33 33 33 33 33 32 31 31 31 31 30
35 36 36 36 36 36 36 37 37 38 38 39 39 39 40 40 40 40 40 40 40 40 39 39 39 38 38 38 38 37 37 36 36 35 35 35 35 34 34 33 33 32 32
36 37 37 38 38 38 38 38 38 38 38 39 40 41 41 41 41 41 41 41 41 42 42 41 41 41 41 40 40 40 39 38 38 38 38 37 37 37 36 36 35 34 34
36 37 38 39 39 39 39 39 39 39 39 39 39 40 41 41 41 41 42 42 42 43 44 44 44 43 43 42 42 42 42 42 41 41 40 40 40 39 39 38 38 37 36
38 38 38 39 40 40 40 40 40 40 40 40 40 40 40 41 42 42 42 42 42 43 44 44 44 45 45 45 44 44 44 44 43 43 43 42 42 42 41 41 40 39 38
39 39 39 40 40 41 41 41 41 40 40 40 41 41 41 41 42 42 43 43 43 43 44 44 45 45 46 46 46 46 46 46 46 46 45 45 45 44 44 42 41 41 40
38 38 38 38 39 39 40 40 40 40 41 41 42 42 42 42 43 43 44 44 44 44 44 44 44 44 45 46 46 46 47 48 48 48 48 47 47 46 46 44 44 43 42
37 37 37 37 38 38 39 40 40 40 41 41 42 43 43 44 44 44 45 45 45 46 46 45 44 45 46 46 46 46 46 47 47 48 49 49 49 48 48 47 46 46 45
37 37 37 37 38 39 39 39 40 41 41 42 43 44 44 45 45 45 45 46 47 46 46 46 46 47 47 47 47 47 47 48 48 47 47 48 50 50 50 49 47 47 46
37 37 37 38 39 39 40 40 40 41 42 42 43 44 45 45 46 46 46 46 46 46 46 47 47 46 47 48 48 48 48 49 49 49 48 48 49 49 50 50 49 48 47
38 38 38 39 39 39 39 39 40 41 42 42 43 44 45 46 47 47 46 46 46 47 48 48 49 49 49 49 48 48 48 48 48 48 47 47 47 47 48 49 49 49 49
37 38 38 38 38 38 39 39 40 41 42 42 43 44 44 45 46 47 48 47 47 47 48 49 50 50 50 50 50 49 48 48 48 47 47 46 46 46 47 48 49 49 49
37 37 38 38 38 38 39 39 40 40 41 41 42 43 43 44 44 45 46 47 48 48 48 49 49 50 49 49 49 49 49 49 49 48 48 48 48 49 48 48 49 49 49
37 37 37 38 38 39 39 40 40 40 41 41 41 42 43 43 44 45 46 47 48 48 49 48 49 50 49 49 49 49 49 48 49 49 48 48 49 50 50 49 49 50 50
37 37 37 37 37 38 38 38 38 39 39 40 41 41 42 44 45 46 47 48 48 48 47 47 48 49 49 49 48 49 48 48 49 49 49 48 49 49 50 50 50 51 50
37 37 37 37 37 37 37 37 38 38 39 40 41 41 43 44 46 46 47 47 47 47 47 46 46 47 48 48 47 47 48 48 49 49 49 50 50 49 49 49 49 49 49
36 36 36 36 36 37 37 37 38 38 39 40 41 42 44 45 45 45 45 46 46 46 46 44 44 44 46 47 47 47 48 49 49 50 50 50 51 50 50 50 50 49 49
35 35 35 35 36 36 36 37 38 38 39 40 41 42 44 45 44 45 45 45 44 44 44 44 43 44 45 46 46 47 49 50 50 50 51 51 51 52 51 51 51 51 50
35 35 35 36 36 36 37 37 38 38 39 40 41 42 43 43 43 43 43 43 43 43 43 44 44 45 46 46 47 47 48 48 50 51 51 52 52 53 52 51 50 50 50
35 35 35 35 36 36 37 37 38 38 39 40 40 41 41 42 42 42 42 42 43 43 43 43 44 46 47 47 47 47 48 47 49 50 51 52 52 53 52 51 50 50 50
34 34 35 36 36 37 37 38 38 39 39 40 40 40 40 41 41 41 41 41 42 42 43 43 44 45 46 46 46 47 47 46 47 48 50 51 52 53 52 53 52 51 50
35 35 36 36 37 37 37 38 38 38 39 39 39 39 40 40 40 40 40 40 41 41 42 43 43 43 44 45 46 46 45 45 46 47 49 49 50 51 52 52 52 51 51
34 35 35 36 36 37 37 38 38 38 39 39 39 39 39 40 40 40 40 40 41 41 42 43 43 44 44 44 44 43 44 44 45 46 48 48 49 49 49 49 49 49 49
35 35 35 35 36 37 37 38 38 39 40 40 41 40 40 40 40 40 40 41 41 42 42 43 43 42 42 42 43 44 44 45 45 46 47 47 47 46 45 46 47 47 46
35 35 35 35 36 36 37 38 38 39 40 41 41 41 41 41 41 41 41 41 42 42 43 43 42 41 41 41 42 43 44 44 43 43 45 45 44 44 43 44 44 44 45
36 36 36 36 36 37 38 38 39 40 40 40 41 42 42 42 42 42 41 41 41 41 41 41 41 40 41 41 41 42 43 42 42 42 43 43 43 43 42 42 42 43 43

GEFSMA_500_meanwind_180.txt.gz
Wind_Speed
31 32 33 34 34 35 35 35 36 36 36 36 35 36 36 36 36 36 36 37 37 38 38 37 37 37 37 37 36 36 36 35 35 35 35 34 34 34 34 33 33 32 32
32 33 34 35 35 35 36 36 37 37 37 37 37 37 37 37 37 37 37 37 38 38 39 39 39 40 39 39 39 39 39 39 38 38 38 38 37 36 36 35 35 35 35
33 33 34 35 35 36 36 37 37 37 38 38 38 39 38 38 38 38 38 39 39 39 40 40 41 41 42 42 41 41 41 41 41 40 40 40 39 39 39 38 38 37 37
33 34 35 35 36 36 37 37 38 38 39 39 39 39 39 40 40 40 40 40 40 41 42 42 42 43 43 43 43 43 43 43 42 43 42 41 40 40 41 41 40 40 39
35 35 35 36 37 37 38 38 38 39 39 40 40 41 41 41 41 42 41 42 42 42 43 43 43 43 44 44 44 44 44 43 44 44 43 43 42 42 42 42 41 41 41
36 35 35 36 37 38 38 38 39 39 40 40 40 40 41 42 42 42 43 43 43 43 43 43 43 43 44 44 45 45 45 45 45 45 44 45 45 44 44 44 43 43 43
36 36 36 36 36 37 38 38 39 39 38 39 40 40 41 42 43 43 43 44 43 42 43 44 44 44 44 43 45 45 45 45 45 45 44 45 45 45 45 45 45 44 44
36 36 36 37 37 37 38 38 38 38 39 39 40 40 41 41 42 43 44 44 44 43 42 43 44 44 44 44 44 45 46 46 45 46 46 46 46 47 46 44 44 44 45
37 36 36 38 37 37 38 38 38 39 40 41 41 41 41 40 41 42 43 43 43 43 43 43 44 45 44 45 45 44 45 45 46 46 47 47 46 46 46 46 46 45 45
37 36 36 36 36 37 38 38 38 39 39 40 40 41 41 40 41 41 42 43 43 44 44 44 44 45 47 47 46 45 45 46 46 47 47 48 48 47 46 47 46 47 47
37 37 37 36 36 37 37 37 39 39 39 40 40 40 41 41 41 42 42 43 44 45 46 46 45 45 45 46 47 47 47 47 47 47 48 49 50 50 49 49 48 47 47
38 38 38 38 38 37 37 38 39 39 40 40 40 41 41 41 42 43 43 43 44 45 45 45 45 46 46 47 47 48 49 49 48 47 47 49 50 50 50 50 50 49 48
38 38 38 38 38 38 38 39 39 39 40 40 41 41 42 42 42 43 43 43 43 43 44 44 45 46 48 49 49 50 50 51 50 50 49 51 50 50 51 51 50 49 48
38 38 39 39 39 39 39 39 39 40 40 40 41 41 42 43 44 44 44 44 44 43 44 45 46 48 49 50 51 51 52 52 52 51 51 51 51 51 52 52 52 52 50
39 39 40 40 40 40 40 40 40 40 40 40 41 41 42 43 43 43 44 44 44 44 43 45 47 48 50 51 51 52 52 52 52 52 51 51 50 51 52 53 52 52 52
40 39 39 39 39 39 39 40 40 39 40 40 40 40 41 41 42 43 43 44 45 45 45 45 47 49 50 51 52 52 51 51 52 52 52 52 52 53 53 53 54 53 53
39 39 39 39 39 39 38 39 39 39 39 39 40 40 41 42 42 43 43 44 45 46 47 47 47 48 49 50 51 51 51 51 51 52 52 51 52 53 53 54 53 53 53
38 38 38 39 39 39 39 39 39 39 39 39 40 40 41 41 42 43 44 44 45 47 47 47 47 48 49 49 49 50 50 50 50 51 51 51 51 52 53 54 54 53 54
36 37 38 38 39 39 39 40 40 40 40 40 40 40 40 41 42 43 44 44 45 46 47 47 47 47 48 48 47 48 48 49 50 49 51 52 52 52 53 53 53 54 54
37 38 38 39 40 40 40 40 41 41 41 41 41 41 41 42 42 43 44 44 45 46 47 47 47 46 46 47 47 47 47 48 49 50 51 52 52 52 52 52 52 53 53
39 39 40 40 40 40 40 40 41 41 41 42 42 42 42 42 42 43 44 44 45 46 46 46 45 45 46 46 46 47 47 47 48 49 50 51 51 50 50 50 51 52 52
39 40 40 40 41 41 41 41 41 41 41 41 42 42 43 43 43 44 45 45 46 46 46 46 45 45 45 46 46 46 46 46 47 48 48 49 49 50 50 49 49 50 51
39 40 40 40 41 41 41 41 41 40 40 41 41 42 43 44 45 45 46 46 45 45 45 45 45 45 45 45 45 45 45 45 46 47 47 47 49 50 50 49 49 49 49
39 40 40 41 41 41 41 42 41 41 41 42 42 43 44 44 45 45 45 45 45 45 46 46 44 44 43 44 44 44 44 44 44 46 47 47 48 48 48 48 48 49 49
39 39 40 41 41 42 42 42 42 42 42 43 43 44 44 44 44 44 44 44 44 45 45 45 44 43 43 43 43 44 44 43 43 45 46 46 46 45 45 46 47 46 46
38 39 40 40 41 41 41 42 42 43 43 43 43 43 44 44 44 43 43 44 44 44 44 43 43 43 43 43 43 43 44 43 43 42 43 43 44 44 43 43 44 45 44

GEFSMA_500_meanwind_186.txt.gz
Wind_Speed
26 27 28 29 29 30 30 30 30 31 31 32 32 32 33 33 34 34 34 34 35 35 35 36 36 36 36 36 37 37 37 36 36 36 36 36 35 35 35 35 35 34 33
27 28 29 30 30 31 31 31 31 32 33 33 33 34 34 35 35 36 36 36 36 37 38 37 37 37 38 38 38 39 39 38 38 38 38 38 38 37 37 37 36 36 35
29 30 31 31 31 31 32 32 33 33 34 34 35 35 36 37 37 37 38 38 38 39 39 39 39 39 39 39 39 40 40 40 40 40 40 39 40 40 39 38 39 38 37
30 31 32 32 32 32 33 33 33 34 35 35 36 37 37 38 38 38 39 39 40 40 41 41 41 41 41 41 41 41 41 41 42 42 41 41 41 41 41 40 40 40 39
32 32 32 33 33 33 34 34 35 36 36 37 38 37 38 38 39 39 39 40 40 41 42 42 42 43 43 43 42 43 43 43 43 43 43 43 43 43 42 41 41 41 41
33 33 34 34 33 34 35 35 36 37 37 38 38 37 38 38 39 39 40 41 41 42 42 43 43 44 44 44 44 44 43 43 44 44 44 44 43 43 43 43 43 42 42
34 34 34 34 35 35 36 36 37 37 38 38 38 38 39 39 40 40 41 41 42 43 44 44 45 45 45 45 45 45 45 44 44 44 45 45 44 44 44 44 44 44 44
35 35 34 34 35 36 36 37 37 38 38 39 39 40 40 40 41 41 41 42 42 43 45 46 46 46 47 47 47 47 47 46 45 45 45 45 46 45 45 45 45 45 45
36 36 36 36 36 36 37 38 38 39 39 40 40 41 41 41 41 42 43 44 44 45 45 46 47 47 47 47 47 46 46 46 47 46 46 46 46 46 45 46 46 46 46
36 38 37 37 37 38 39 39 39 40 40 40 41 42 42 42 42 42 43 44 44 44 44 44 44 46 46 46 46 46 47 47 47 47 46 46 46 46 46 47 47 47 46
37 38 39 40 39 39 39 40 41 41 41 41 41 41 42 42 43 43 42 42 43 43 44 44 44 45 45 46 47 47 47 47 47 46 47 47 47 48 48 49 49 48 48
39 40 40 40 40 41 41 42 42 42 42 42 42 41 42 42 42 42 42 42 42 42 43 44 44 44 44 45 46 46 46 46 47 47 48 48 49 49 49 50 49 49 49
40 41 42 42 43 43 43 42 42 42 41 41 41 41 42 42 42 42 42 42 41 42 43 43 43 44 44 45 45 45 45 46 47 47 48 48 49 50 50 51 51 51 51
42 42 43 43 43 44 43 42 42 41 41 41 41 41 41 42 42 42 42 42 41 41 42 42 43 44 44 44 45 45 45 46 47 48 48 48 49 51 52 52 52 52 53
44 45 45 44 43 43 43 43 42 42 42 41 41 41 42 42 42 42 42 42 42 42 41 42 43 44 44 45 45 46 46 47 48 49 50 50 51 52 52 52 52 52 52
44 44 44 44 43 42 42 42 42 42 41 41 41 41 42 42 43 43 43 43 43 43 42 42 43 44 45 45 46 47 48 48 49 50 51 52 52 52 52 52 52 52 51
43 43 42 42 42 43 42 42 42 42 41 41 41 41 42 42 43 43 43 43 44 44 43 42 43 44 45 46 47 48 48 49 50 51 52 53 53 53 53 53 53 53 52
43 42 42 43 43 43 43 43 43 43 43 42 43 43 44 44 44 44 44 44 44 45 45 44 44 45 46 47 48 49 50 50 51 52 52 52 52 53 53 54 54 54 53
44 44 43 43 43 43 43 44 44 44 44 44 45 45 45 45 45 45 45 46 46 46 46 46 46 46 47 48 48 49 50 51 51 52 52 52 52 52 53 53 53 53 53
43 43 43 43 43 43 44 44 44 44 45 46 46 46 46 45 45 45 45 46 47 47 47 47 46 46 47 48 48 49 49 50 51 51 51 51 52 52 52 53 53 52 53
42 42 42 42 42 42 43 43 44 44 45 46 46 46 46 46 46 46 46 46 47 47 46 47 47 46 47 48 48 49 49 50 50 50 50 51 51 51 51 52 52 52 52
41 41 41 41 41 42 43 43 44 45 46 46 46 46 45 46 46 46 46 46 47 47 47 47 47 48 48 48 48 48 49 48 48 49 49 50 51 50 50 50 50 51 51
40 40 40 41 41 42 43 43 44 44 44 44 44 45 45 45 45 45 45 46 46 47 48 48 48 48 48 48 48 48 48 47 47 47 48 48 49 49 50 50 51 51 51
40 40 41 41 42 43 43 43 43 43 43 44 44 44 44 44 44 44 45 45 46 47 47 47 47 48 48 49 48 48 47 47 47 48 48 47 47 48 49 49 49 50 50
40 40 41 42 42 42 43 42 42 42 42 42 42 43 43 43 44 45 45 45 45 46 46 47 47 47 48 48 48 47 47 47 46 46 46 45 45 45 45 45 47 48 49
39 40 40 40 41 41 41 41 41 41 40 40 41 42 42 43 43 44 44 44 44 44 45 45 46 47 47 47 46 46 46 46 45 44 43 43 43 43 41 41 43 44 45

GEFSMA_500_meanwind_192.txt.gz
Wind_Speed
28 28 28 28 27 27 26 26 26 27 27 28 28 29 30 30 31 31 32 32 32 32 33 33 34 34 34 35 35 35 35 35 36 36 36 35 35 35 35 35 35 34 33
30 30 29 28 28 27 27 27 27 27 28 28 29 29 30 31 32 33 33 34 34 34 35 35 36 36 37 37 37 37 37 37 38 38 38 38 38 37 37 37 37 36 35
31 30 30 29 28 28 28 28 28 29 29 29 30 31 32 32 33 34 35 35 36 36 36 37 38 38 38 39 39 39 39 40 40 40 40 40 40 40 40 40 39 39 38
32 31 30 30 30 30 30 30 30 31 31 31 32 32 33 33 34 35 36 37 37 37 38 38 38 39 40 40 40 41 41 41 42 42 42 42 41 42 42 42 42 41 41
33 33 32 32 32 32 32 32 33 33 32 32 32 33 33 34 35 36 36 37 38 38 39 39 39 40 40 41 42 42 42 43 43 43 44 44 43 43 43 43 43 43 43
33 32 33 32 32 33 33 34 34 34 34 34 34 34 34 35 36 37 37 38 39 39 40 40 40 40 41 42 42 42 43 43 44 44 45 45 44 44 44 44 44 45 44
33 33 33 33 33 34 34 35 35 35 35 35 35 35 36 37 37 38 38 38 39 40 40 40 40 40 41 41 42 43 44 44 45 45 46 46 46 46 46 46 45 45 45
35 34 34 34 34 35 35 36 36 36 36 37 37 37 38 38 38 39 39 39 40 41 41 41 41 41 41 42 42 43 44 45 45 46 46 46 46 46 46 46 46 46 45
36 36 35 36 36 36 37 37 37 37 37 38 39 39 39 39 39 39 39 40 40 41 41 41 42 42 43 43 43 44 44 45 46 46 46 46 46 47 47 47 47 47 46
38 38 37 37 37 37 38 38 39 39 39 40 40 41 41 41 40 40 40 40 40 41 41 41 41 42 43 43 43 43 44 45 45 46 46 46 46 47 47 47 47 48 48
39 39 38 38 38 38 39 39 40 40 41 42 42 42 41 41 41 41 40 40 40 41 41 42 42 42 42 43 43 43 44 45 45 46 46 46 46 46 47 47 47 48 49
39 39 39 39 39 40 40 41 42 42 43 43 43 42 42 42 42 42 42 42 42 42 42 42 42 42 43 44 44 44 45 45 46 46 47 47 47 47 47 47 48 49 50
39 39 40 40 40 41 42 43 43 43 44 44 44 44 44 44 44 44 43 43 43 42 42 42 43 43 44 45 45 45 45 45 46 47 47 47 48 48 48 49 49 49 50
40 41 42 42 42 43 43 43 44 44 44 45 45 45 45 45 45 45 45 44 44 43 44 44 44 44 45 45 45 46 46 46 47 47 47 47 48 49 49 50 50 50 50
41 42 43 43 44 44 44 44 44 44 45 46 46 46 46 47 47 47 47 46 46 45 45 46 46 46 46 46 46 47 47 47 48 48 48 49 49 50 50 50 51 51 51
41 42 43 44 45 45 45 45 45 46 47 47 47 48 48 49 49 49 49 48 47 47 46 46 47 47 47 48 47 48 48 48 48 48 49 49 49 49 50 51 52 52 52
40 42 44 45 46 46 46 46 46 48 48 48 48 48 48 49 49 49 49 49 49 49 48 47 48 48 49 49 49 49 49 49 49 49 49 49 49 49 50 51 52 53 53
41 42 43 45 46 47 47 47 47 48 48 47 47 48 49 49 49 49 50 50 50 50 50 49 49 50 50 50 50 50 50 49 49 49 49 49 49 50 50 50 51 52 52
41 42 43 44 45 46 47 47 47 47 47 47 47 47 48 48 48 49 49 50 51 51 52 51 51 50 50 51 51 51 50 50 50 49 49 50 50 50 51 51 51 51 51
42 42 43 44 44 45 46 46 45 45 45 45 45 45 46 47 48 48 49 50 51 51 51 51 50 49 49 50 50 49 49 49 50 50 50 49 49 50 50 51 51 50 50
42 43 43 44 44 44 45 45 44 44 44 44 44 44 45 46 46 47 48 48 49 49 48 48 49 49 49 49 49 49 48 48 48 49 49 49 49 50 50 50 50 50 51
43 43 44 44 44 43 43 43 43 43 44 44 44 44 44 44 45 45 46 47 47 47 47 48 48 48 49 49 48 48 48 48 48 49 49 50 50 50 50 50 50 50 50
43 43 44 43 42 41 41 42 42 42 42 42 42 42 42 42 42 43 44 44 45 46 47 47 47 47 47 47 47 47 48 48 48 49 49 49 50 50 50 49 49 49 50
42 42 42 42 42 41 41 41 41 42 41 41 41 41 42 42 42 42 43 43 44 44 45 45 45 45 45 46 46 46 47 47 47 48 49 48 49 49 49 49 49 49 49
41 41 41 41 41 41 41 41 41 41 41 41 41 41 41 41 42 42 42 41 41 42 42 43 43 43 44 44 45 45 46 46 45 46 47 46 46 47 47 48 48 48 48
40 40 41 40 40 40 40 40 40 40 40 40 40 40 40 40 40 40 39 39 40 40 40 41 41 42 43 43 44 44 44 44 44 44 44 45 45 45 45 45 46 45 45

GEFSMA_500_meanwind_198.txt.gz
Wind_Speed
29 29 29 29 29 29 30 29 29 28 28 27 27 27 27 26 26 26 27 27 28 29 30 31 32 32 33 34 34 35 35 35 36 36 36 36 36 36 36 36 36 36 37
31 31 31 31 31 31 31 30 30 30 29 29 29 29 29 28 28 28 28 29 30 30 31 32 33 34 35 35 36 36 36 37 37 38 38 38 38 38 38 38 38 37 38
33 33 32 33 33 33 33 33 32 31 31 31 31 31 31 30 30 30 31 31 32 33 33 34 35 35 36 37 37 37 37 38 38 38 39 39 39 39 39 39 39 39 39
34 35 34 35 35 34 34 34 33 32 32 32 32 32 32 32 32 33 33 33 34 34 35 35 36 36 37 38 38 39 39 39 39 39 39 39 39 39 39 39 39 39 39
36 36 36 35 35 35 34 35 35 34 34 34 33 33 34 34 34 34 34 35 35 35 36 36 37 37 38 39 39 40 40 39 39 39 39 39 40 40 40 40 40 40 41
37 37 36 35 35 36 36 36 36 35 35 35 35 35 35 35 35 35 36 36 37 37 37 37 38 38 39 40 40 40 40 40 40 40 40 40 41 41 41 42 42 42 42
38 38 38 36 36 36 37 36 37 36 36 36 36 37 36 36 36 37 37 38 38 38 38 38 39 39 40 40 41 41 41 41 41 41 42 42 42 42 42 42 42 42 42
38 38 38 37 37 38 36 36 36 37 37 37 37 37 37 37 38 38 39 39 39 39 40 40 40 40 40 41 41 41 41 42 42 42 42 42 42 43 43 43 42 42 42
39 40 39 39 39 39 38 37 37 38 38 38 39 39 39 38 39 39 40 40 40 40 40 41 41 41 41 41 41 41 41 42 42 42 43 43 42 42 41 42 42 42 42
39 40 40 40 40 40 39 38 38 39 39 40 41 41 41 41 40 40 40 41 41 41 41 42 42 42 42 42 41 41 41 41 42 42 43 43 43 43 42 42 42 42 42
40 40 40 41 40 40 40 39 39 40 40 40 41 42 42 43 43 42 42 42 43 43 43 43 43 43 43 43 43 43 43 43 43 43 43 43 43 44 44 44 44 43 43
40 40 41 41 41 41 41 41 41 41 41 42 42 42 43 44 44 44 44 44 44 44 44 44 44 44 44 44 44 45 45 45 45 44 44 44 44 45 45 46 46 46 46
40 41 42 42 43 43 42 43 43 43 43 43 44 45 45 45 45 45 46 46 45 45 45 45 45 45 46 46 46 46 46 46 46 46 45 45 46 46 46 46 47 47 48
40 41 42 42 43 43 43 44 45 45 45 45 46 46 47 47 46 47 47 48 47 47 46 46 46 47 47 47 47 47 47 47 47 47 47 47 47 48 48 49 49 49 50
39 40 41 42 42 43 44 45 45 46 46 46 47 47 47 47 47 48 48 48 48 48 47 47 47 47 48 48 48 48 48 48 48 48 48 49 49 50 50 50 51 51 52
40 41 41 42 43 43 44 45 46 46 47 47 48 48 48 48 48 48 48 48 48 49 48 47 48 47 48 48 48 49 49 49 49 49 50 50 50 51 52 52 52 53 53
41 41 41 42 43 44 44 45 46 47 47 48 49 49 49 49 49 49 49 48 49 49 49 48 49 49 49 49 49 49 50 50 50 50 51 51 51 52 53 53 54 54 53
43 43 44 43 44 44 45 46 46 47 48 49 49 49 50 50 50 50 49 49 49 50 50 49 49 50 50 50 50 50 50 50 51 51 52 52 52 53 53 53 53 53 53
43 44 45 45 45 45 46 47 47 48 49 49 50 50 50 50 50 50 50 50 50 50 50 50 50 50 50 50 50 50 50 51 51 51 52 52 53 53 53 53 52 51 51
43 44 45 45 45 46 46 46 47 47 48 49 50 50 49 48 49 49 50 50 50 50 50 49 49 49 49 49 49 49 50 50 50 51 52 52 52 52 52 51 50 50 49
43 44 45 46 46 46 47 47 47 47 48 48 49 48 49 49 49 48 49 49 49 48 48 48 48 47 47 47 48 49 49 49 50 51 51 51 51 51 50 50 49 49 48
44 44 44 45 46 46 46 47 47 47 47 47 47 48 48 48 48 47 47 47 47 47 47 47 47 46 47 47 48 48 48 48 48 49 49 49 50 49 49 48 48 47 47
43 44 44 44 45 46 46 46 46 46 46 46 46 46 46 46 45 45 45 45 46 46 46 46 46 46 46 46 47 47 47 47 47 47 47 46 47 47 47 46 46 45 45
44 44 44 44 45 45 45 46 46 45 45 45 44 44 44 44 45 44 44 44 44 44 44 44 44 45 46 46 47 46 46 46 46 46 45 44 44 44 44 44 44 44 44
43 44 44 44 44 44 45 45 44 44 43 43 43 43 44 43 43 43 43 43 43 43 43 43 43 43 44 45 46 46 45 45 44 44 44 43 42 42 42 42 43 44 44
42 42 42 42 43 43 43 43 43 43 42 41 42 42 42 42 42 43 43 42 42 42 42 42 42 43 44 45 45 44 44 43 43 42 42 42 42 42 40 40 42 42 42

GEFSMA_500_meanwind_204.txt.gz
Wind_Speed
31 30 30 29 29 29 29 30 30 30 30 29 29 29 29 29 30 29 29 28 28 27 28 28 29 29 29 30 30 31 31 31 32 33 33 34 35 35 35 35 35 35 35
33 33 33 33 33 32 32 32 32 32 31 31 31 31 30 31 31 31 30 30 29 30 30 30 31 31 31 31 32 33 33 34 34 34 35 35 36 36 36 36 36 36 36
33 34 34 35 35 33 33 34 34 34 33 33 33 33 33 33 34 33 33 33 32 32 33 33 33 33 33 34 34 35 35 36 36 37 37 37 37 37 37 37 37 37 37
35 35 36 36 35 35 35 35 35 34 35 35 35 35 35 35 36 35 35 35 35 35 35 35 35 35 35 36 36 37 37 38 38 38 39 39 39 39 39 38 38 38 38
36 37 37 37 37 37 37 36 36 35 35 36 36 36 36 36 36 37 37 38 38 37 37 37 37 37 37 37 38 38 39 39 40 40 40 40 40 40 40 39 39 39 39
36 37 38 38 38 38 38 37 36 37 36 37 37 37 37 38 38 38 38 39 39 38 39 39 39 39 39 39 39 40 40 41 41 41 41 41 41 41 41 40 40 40 40
38 38 37 38 39 39 39 38 38 37 37 38 38 38 38 39 39 39 39 39 39 39 40 40 40 40 40 41 41 41 42 42 42 42 42 42 42 42 42 42 42 41 42
39 39 39 39 38 38 39 39 39 37 38 38 38 38 38 39 40 40 40 40 41 41 41 41 41 42 42 42 42 43 43 43 43 42 42 43 42 42 42 43 43 42 42
39 39 40 39 39 40 40 40 39 38 38 38 38 38 38 39 39 40 40 41 41 42 42 42 42 42 43 43 43 43 43 43 43 43 42 43 43 43 43 43 44 44 43
40 40 40 40 40 40 41 41 41 41 40 40 40 40 40 40 40 40 40 41 42 43 43 43 43 44 44 44 44 44 44 44 44 43 43 43 43 44 44 44 45 45 44
39 40 40 41 41 40 41 42 43 43 42 42 41 42 43 43 43 43 42 42 43 43 44 44 44 45 45 45 45 45 45 45 44 44 44 44 45 45 46 45 46 46 45
39 40 40 40 41 41 42 42 43 43 43 42 42 42 43 44 44 44 44 43 43 44 45 45 46 46 46 46 46 46 46 46 45 45 45 45 46 46 46 47 47 47 47
39 40 40 40 40 41 42 43 43 43 44 44 43 43 44 45 45 46 46 45 45 45 45 46 46 47 47 47 47 46 47 46 47 47 47 47 47 47 47 47 48 48 48
39 40 40 40 41 42 43 43 43 44 45 45 45 45 45 46 46 46 47 47 47 47 47 47 48 48 48 48 48 48 48 47 47 47 48 48 48 48 48 49 49 49 49
40 40 41 41 42 42 43 44 43 44 45 45 46 46 46 46 47 47 48 48 49 48 48 48 49 49 50 49 49 49 49 48 48 48 48 49 49 49 50 50 51 51 50
39 40 40 40 41 42 43 43 44 44 44 45 46 47 47 47 48 48 48 49 49 50 49 49 50 49 50 50 50 51 51 51 51 51 51 50 50 51 51 52 52 51 52
38 39 40 41 42 42 42 43 44 45 46 46 47 47 47 48 48 49 49 49 50 50 50 50 50 50 50 50 51 51 51 51 52 52 52 52 52 52 52 52 52 52 52
39 40 41 42 43 43 44 45 45 46 46 46 47 47 48 49 49 49 50 50 50 51 51 50 50 50 50 50 50 50 50 50 51 51 52 51 51 51 51 52 52 52 52
39 40 41 42 43 44 44 45 45 45 45 46 47 48 49 50 50 50 50 50 50 50 50 49 50 49 49 50 50 50 50 51 51 51 51 51 50 50 51 51 51 51 51
40 41 42 42 43 44 45 45 45 46 46 47 48 49 49 50 51 50 50 50 50 49 49 50 50 50 50 50 50 49 50 50 51 51 50 49 49 50 50 50 50 51 51
42 42 43 43 44 45 45 45 46 46 46 47 49 49 50 50 50 51 50 50 49 49 49 49 49 49 49 49 49 49 49 49 49 49 49 49 48 48 48 50 50 50 50
43 43 43 43 43 44 45 45 46 46 46 47 47 48 49 49 49 49 50 50 49 49 48 49 48 48 47 47 47 48 48 47 47 47 48 48 48 48 48 48 49 49 49
42 42 42 42 43 43 44 44 45 45 45 46 47 47 47 48 48 48 48 48 48 48 47 47 47 47 47 46 46 46 46 46 46 46 46 46 46 46 46 46 47 47 47
42 42 42 43 43 43 43 44 44 45 45 45 45 45 45 45 45 45 45 46 46 46 47 46 46 46 46 45 46 45 45 45 44 45 46 45 45 45 45 45 45 46 45
42 42 42 43 42 42 42 43 44 44 44 44 44 43 43 43 43 44 44 44 45 45 45 45 46 46 45 44 44 44 44 43 43 43 45 44 43 43 43 43 43 43 42
43 43 42 42 43 42 43 43 44 44 44 43 43 43 43 42 42 43 43 44 44 44 44 44 44 44 44 43 43 43 42 42 42 42 42 42 42 42 41 41 41 41 41

GEFSMA_500_meanwind_210.txt.gz
Wind_Speed
31 31 30 30 30 30 30 30 30 30 31 31 30 30 30 30 30 30 30 30 30 30 30 30 30 30 30 30 30 30 30 30 31 31 31 31 32 32 32 33 33 34 33
32 33 32 32 32 32 33 33 33 33 33 32 32 32 32 32 31 31 32 33 33 33 33 33 33 33 33 32 32 32 32 32 33 33 33 33 33 34 34 34 35 35 35
33 34 34 34 33 34 34 35 35 34 33 33 33 33 34 34 33 34 34 34 34 34 34 35 35 35 35 35 35 35 35 35 35 35 35 35 35 35 35 36 36 37 36
34 35 35 35 35 35 35 35 36 36 35 35 34 35 35 35 35 36 36 36 36 36 36 36 36 36 37 37 37 37 38 38 37 37 37 37 37 37 37 37 38 38 38
35 35 35 36 36 36 36 37 37 37 37 37 36 37 37 37 37 37 36 36 36 36 36 36 37 38 38 39 39 39 40 40 39 39 39 39 39 38 39 39 39 40 40
36 36 36 36 38 38 38 38 38 38 39 39 39 38 38 37 37 37 38 38 37 37 38 38 39 39 40 40 41 41 41 41 41 41 41 41 40 41 41 41 41 41 41
37 37 37 37 38 39 39 39 39 39 39 40 40 39 39 38 38 38 38 39 39 39 39 39 39 40 40 41 41 41 41 42 42 42 42 42 42 42 42 42 42 42 41
37 38 38 39 39 39 39 40 40 40 40 39 39 39 39 39 39 39 39 40 40 41 41 41 41 41 41 42 42 42 42 43 43 43 43 43 43 43 43 43 43 42 42
37 39 40 40 40 40 40 40 40 40 39 39 39 39 39 39 39 39 40 41 42 42 42 42 42 42 43 43 43 43 44 44 44 44 44 44 44 44 44 44 43 43 42
37 39 40 40 40 40 39 39 39 40 39 38 38 39 39 39 39 40 41 42 42 43 43 43 43 43 44 44 44 44 45 45 45 45 45 46 46 46 46 45 44 44 44
37 38 40 41 41 40 40 40 40 41 40 39 40 40 40 40 39 40 41 42 42 43 45 45 45 45 44 45 45 45 45 46 46 46 47 47 47 47 46 46 46 45 45
37 38 40 40 40 40 41 41 41 41 42 42 42 43 43 43 42 43 43 43 43 44 45 45 45 46 46 46 46 47 47 47 47 48 48 48 48 48 48 47 47 47 46
38 38 39 39 40 41 41 41 41 42 43 43 44 44 46 46 45 44 44 45 45 46 46 46 47 47 48 48 48 49 50 50 49 49 50 50 50 50 50 49 49 49 48
38 37 38 39 39 40 41 41 41 42 43 43 44 44 46 46 46 45 45 46 46 47 47 47 48 48 49 50 50 51 51 51 51 51 52 52 52 51 51 50 50 50 50
36 37 37 38 40 40 41 41 42 42 43 44 44 44 45 46 47 47 47 47 47 47 47 48 49 49 50 50 51 52 53 53 52 53 52 52 51 51 51 51 50 50 51
37 38 38 39 40 41 42 43 43 44 44 45 45 46 46 46 47 49 49 49 49 49 49 49 49 50 51 51 52 52 52 52 52 52 52 52 52 51 51 51 51 51 50
38 39 40 40 41 43 44 44 45 45 45 45 46 47 47 48 48 49 49 50 51 51 51 50 51 51 52 52 51 51 51 52 52 52 52 52 51 51 51 51 51 51 51
40 41 41 42 43 44 45 45 46 46 47 47 47 47 48 48 49 49 50 51 52 52 52 52 52 52 52 52 52 51 51 51 52 52 52 51 51 51 51 51 50 50 50
40 41 41 42 42 43 45 46 46 46 46 47 47 47 48 49 49 49 50 51 52 53 53 53 52 52 52 52 52 52 52 51 51 52 51 51 52 51 51 50 50 50 50
40 40 41 42 43 43 45 46 46 46 47 47 47 48 49 49 49 49 51 51 52 52 53 53 53 51 51 51 51 51 50 50 50 51 51 52 51 51 50 49 49 50 50
41 42 43 43 44 45 45 45 45 46 46 46 47 48 48 48 49 49 50 50 50 51 52 52 52 51 50 50 50 50 49 49 49 49 49 50 50 49 48 48 48 49 49
43 44 44 44 44 44 45 45 45 44 45 45 46 46 47 47 48 49 49 49 49 50 51 51 51 50 49 49 49 49 48 48 47 48 48 47 48 48 48 48 48 48 47
44 44 45 45 45 45 45 44 44 44 44 44 45 46 46 47 48 48 48 48 48 48 49 49 49 49 48 48 47 47 47 47 46 47 47 46 47 47 46 46 46 45 45
46 46 46 46 46 46 45 44 44 43 43 44 45 46 46 47 47 48 48 48 47 47 48 48 49 48 47 46 46 46 46 46 46 46 46 46 45 45 45 45 44 44 43
47 46 46 46 46 45 45 45 44 44 44 45 45 46 47 46 47 47 47 47 47 46 46 46 47 46 46 46 46 46 45 45 45 45 45 45 44 43 43 43 43 42 42
46 47 47 47 46 45 45 45 45 44 45 45 45 45 46 46 46 46 47 47 46 45 44 44 44 45 46 46 46 45 44 44 43 43 43 43 42 42 40 40 40 40 39

GEFSMA_500_meanwind_216.txt.gz
Wind_Speed
34 33 32 31 30 29 28 28 29 29 28 28 29 29 29 28 28 29 29 29 29 30 30 30 30 30 30 30 30 30 30 31 31 31 31 30 30 31 31 31 31 31 30
35 35 34 33 32 31 30 30 30 30 31 31 31 31 31 31 31 31 30 31 32 31 31 32 32 32 32 32 32 32 32 32 32 32 32 32 32 33 33 33 32 32 32
36 35 36 35 34 33 32 31 31 31 32 33 33 33 33 33 34 33 33 33 33 33 32 33 33 33 32 33 33 33 34 34 34 35 35 35 35 34 35 34 34 34 34
36 35 36 36 35 33 33 32 33 33 34 34 34 34 35 35 35 36 35 34 34 34 34 34 34 34 34 34 34 35 35 36 36 37 37 37 37 36 36 36 36 36 36
36 36 36 35 35 35 34 34 34 35 35 35 35 36 36 37 37 37 37 36 36 35 35 35 35 35 35 35 35 36 36 37 37 38 39 39 38 38 38 38 38 38 38
38 36 36 36 36 36 36 36 36 36 36 37 37 38 38 38 39 39 38 37 37 37 37 37 37 37 37 37 37 37 38 38 38 39 39 40 40 40 40 40 40 40 40
40 38 38 37 36 36 37 37 37 38 38 39 39 39 39 40 39 40 39 39 39 39 39 39 39 39 39 39 39 39 40 40 40 40 41 41 41 41 41 41 41 41 41
39 38 38 37 37 37 38 39 39 39 39 39 40 40 40 41 41 41 41 40 41 40 41 41 41 41 41 42 41 41 42 42 42 42 42 42 42 42 42 43 42 43 43
38 39 39 38 38 38 39 40 40 40 40 40 41 42 42 42 43 42 41 41 41 41 42 42 43 43 43 43 43 44 44 43 43 43 44 44 44 44 44 44 44 44 44
38 40 40 39 38 39 39 40 40 40 41 42 43 43 43 43 43 43 42 43 43 43 43 44 43 44 45 45 45 45 45 45 45 45 46 46 46 46 46 46 46 46 46
37 39 40 39 39 39 39 40 41 42 42 42 42 42 42 43 43 44 43 43 44 44 44 45 45 46 46 46 47 47 47 47 47 47 47 47 48 48 48 48 48 48 48
38 38 40 40 40 40 40 40 41 42 42 42 42 42 42 43 44 44 45 44 45 45 45 45 46 46 46 47 47 47 47 47 47 48 48 49 49 49 49 49 49 50 49
36 38 39 40 40 41 41 41 42 42 44 44 45 45 44 44 45 46 47 47 47 47 48 47 47 47 47 48 48 48 48 48 49 49 49 50 50 50 50 50 50 50 50
37 38 38 40 41 41 42 43 43 44 45 45 45 46 47 47 47 47 48 48 48 47 48 47 47 47 48 48 49 48 48 48 50 50 50 50 50 50 51 51 51 51 52
39 39 39 40 41 41 42 43 44 45 45 46 46 47 48 48 49 49 49 49 49 49 50 48 47 47 48 49 49 49 49 50 51 51 51 51 51 51 51 52 52 52 53
38 39 39 41 42 43 43 43 45 46 46 46 47 48 49 49 49 49 49 50 50 51 51 49 49 49 49 50 51 52 51 51 51 52 52 52 52 52 52 52 52 53 53
41 41 41 41 42 44 45 46 46 46 46 47 47 48 49 49 49 49 49 50 50 51 51 50 50 50 50 50 51 52 52 52 52 52 52 53 53 53 53 52 53 53 53
41 41 42 42 43 44 45 46 47 47 47 47 48 48 48 49 49 49 49 50 50 50 51 51 51 51 50 50 51 53 53 52 52 52 52 53 52 52 52 52 52 52 52
41 41 43 44 44 45 46 46 47 48 48 48 48 48 48 48 48 48 50 50 50 50 50 50 51 51 51 51 52 52 53 53 53 52 51 51 51 51 51 51 51 51 51
41 41 43 44 45 45 47 48 49 48 48 47 47 47 47 47 47 48 48 48 48 48 48 49 50 51 51 51 51 51 51 51 52 52 51 50 51 51 50 50 50 50 50
41 42 43 44 45 46 47 47 48 47 46 46 47 47 47 47 47 47 46 47 47 47 47 48 49 50 50 51 50 50 49 49 50 50 50 49 49 49 49 49 49 50 49
41 42 43 44 45 46 46 46 46 47 47 47 47 47 47 46 46 46 46 46 46 47 47 47 47 48 48 48 49 49 48 49 49 48 48 48 48 48 48 49 48 48 48
41 41 42 43 44 45 46 45 45 46 46 47 46 46 46 46 46 46 45 45 45 45 46 46 47 47 47 48 48 48 47 48 48 48 48 48 48 47 48 48 47 46 46
41 41 42 43 44 44 45 45 45 46 46 46 46 46 46 46 46 45 44 44 44 45 45 46 46 45 46 47 47 47 47 47 47 47 47 47 47 47 46 46 46 45 44
41 42 44 45 45 45 45 45 46 46 46 46 46 46 45 45 45 44 44 44 44 44 45 45 44 44 44 45 47 47 47 46 45 45 46 46 45 45 44 44 43 43 42
43 44 44 45 45 45 45 45 45 45 44 44 44 44 44 44 44 43 43 43 44 44 44 44 44 43 44 44 45 46 46 45 44 43 43 43 43 42 41 40 40 41 40

GEFSMA_500_meanwind_222.txt.gz
Wind_Speed
37 37 35 35 34 32 31 31 30 30 29 29 28 28 27 27 26 26 26 26 26 26 26 26 26 26 27 27 28 28 28 29 29 29 29 28 29 29 29 29 29 29 29
38 38 37 36 35 34 33 32 32 31 31 30 29 29 28 28 28 28 28 28 28 29 29 29 29 28 28 29 29 30 30 30 30 30 30 30 30 30 31 31 31 31 30
39 39 38 37 37 36 34 33 33 33 33 32 31 31 30 30 30 30 30 30 30 31 31 30 30 31 30 30 30 30 31 31 31 31 32 32 32 32 33 33 33 33 33
39 39 40 39 38 37 35 35 34 34 34 33 32 32 32 31 31 31 32 32 32 32 32 31 32 32 32 31 31 31 32 32 33 33 33 34 34 34 34 34 35 35 35
39 40 41 40 39 38 37 36 36 36 35 35 34 34 33 33 33 33 33 33 33 33 33 33 33 33 33 33 34 33 33 34 34 34 35 35 36 36 36 36 36 37 38
39 40 40 40 40 39 37 37 38 37 37 36 36 35 35 34 33 34 34 34 34 34 34 34 35 36 36 36 36 36 36 36 36 36 37 37 38 38 38 38 38 39 40
39 40 40 41 41 41 39 38 38 38 38 37 37 37 36 36 35 35 35 36 36 36 36 37 37 38 38 39 39 40 39 39 39 39 39 39 40 40 40 40 40 40 40
39 40 41 41 41 42 41 39 38 39 38 38 38 38 37 37 37 37 37 37 38 38 39 39 39 40 41 41 41 42 42 42 41 40 40 41 41 41 42 42 41 41 41
38 39 40 41 41 41 41 40 39 40 39 39 40 40 39 38 38 38 39 39 40 40 41 41 42 42 43 43 43 43 44 44 44 43 43 43 42 42 43 43 43 43 43
37 38 39 40 40 40 40 40 41 41 40 41 41 41 41 41 40 39 40 41 42 43 44 44 44 45 45 45 46 46 46 46 46 46 45 45 45 45 45 46 46 46 46
37 38 39 40 40 40 39 40 40 41 41 42 42 41 41 41 42 42 42 42 43 44 45 46 46 47 47 47 47 48 48 48 47 47 48 48 47 48 48 48 48 48 47
37 37 39 39 40 41 40 40 40 40 41 43 43 43 44 44 43 44 44 44 45 45 46 47 48 48 49 49 49 49 49 49 49 49 50 50 49 49 49 49 49 48 48
37 38 40 40 41 41 41 41 41 41 42 43 44 45 46 46 45 46 46 46 47 47 48 48 49 50 50 51 50 50 50 51 51 51 51 51 51 50 50 50 50 49 49
37 38 40 41 41 42 42 40 41 42 44 45 45 45 46 47 47 47 48 48 49 49 50 50 51 51 52 52 51 51 51 51 52 52 51 52 52 51 51 51 51 51 51
37 39 40 40 41 42 42 41 41 42 43 45 46 46 47 47 48 49 49 50 51 52 52 51 52 52 53 52 52 52 52 52 53 53 52 52 52 52 52 51 51 52 52
37 39 40 40 41 42 43 42 41 41 43 45 47 47 48 48 49 49 50 51 52 52 52 51 52 52 52 52 53 53 53 53 54 53 53 53 53 53 53 52 52 52 52
37 38 39 40 41 42 42 43 44 44 44 45 47 48 49 49 50 51 52 52 52 53 52 51 51 51 52 53 53 53 53 54 54 54 54 54 53 54 54 54 53 52 52
37 38 39 40 41 41 42 43 44 44 44 45 47 47 48 49 50 51 52 53 53 53 53 52 51 52 52 52 52 53 53 53 54 54 54 54 54 54 54 54 53 53 52
37 38 38 39 40 41 43 44 45 46 46 46 47 47 48 49 50 51 52 52 52 53 53 53 52 52 51 50 50 51 51 51 51 52 52 52 52 53 54 53 53 53 53
37 37 38 40 41 42 44 45 46 46 45 45 46 47 48 49 49 50 51 51 52 52 52 52 51 50 49 48 49 49 49 49 49 50 50 51 52 53 52 52 52 52 52
38 39 40 41 42 42 43 43 45 46 46 46 47 47 48 49 49 50 50 50 51 51 50 50 49 49 48 48 48 49 49 49 49 49 50 51 51 51 51 51 52 52 52
38 39 40 41 41 42 43 44 44 45 46 46 47 47 48 49 49 50 49 49 49 47 47 47 47 47 46 46 47 48 48 48 48 49 49 49 49 50 50 51 51 51 50
38 39 40 41 41 42 43 44 44 45 46 46 47 47 48 49 49 49 48 47 47 46 46 45 45 45 45 45 46 46 46 47 48 47 48 48 49 48 49 50 49 49 48
39 40 40 40 40 41 43 44 44 45 45 46 46 47 47 47 48 47 46 46 46 45 44 44 44 43 44 44 45 45 46 46 47 46 47 47 47 47 47 47 46 46 46
39 39 40 40 40 41 42 43 43 45 45 45 45 45 45 45 44 45 44 44 44 44 43 43 42 42 43 44 45 44 44 44 44 45 46 46 45 45 44 44 44 44 43
39 39 39 40 41 42 42 42 43 43 44 44 43 43 43 43 42 42 42 42 42 41 41 42 42 42 42 43 43 43 43 43 43 43 43 44 43 42 40 40 41 41 41

GEFSMA_500_meanwind_228.txt.gz
Wind_Speed
36 36 36 36 36 36 35 34 33 33 32 31 30 29 30 29 28 28 27 27 27 27 26 26 25 25 26 25 25 25 25 25 26 26 26 27 27 27 27 27 28 28 28
38 38 38 38 38 38 37 37 36 35 34 33 33 32 31 31 31 30 29 29 29 29 28 27 27 27 27 27 27 27 27 28 28 27 28 28 28 29 29 29 29 29 29
40 40 40 40 40 40 39 39 39 38 37 36 34 33 33 33 32 32 31 30 30 30 30 29 29 28 28 28 29 29 29 29 30 30 29 29 29 30 30 30 30 30 31
40 41 41 41 41 41 41 41 41 40 38 38 36 35 35 34 34 33 33 33 32 32 31 31 30 30 30 30 30 30 31 31 31 32 32 32 31 31 32 32 32 32 32
40 40 41 41 41 41 41 42 42 42 40 39 38 37 37 36 36 35 35 35 34 33 33 32 32 32 32 32 32 32 33 33 33 33 34 34 34 33 33 34 34 34 34
40 40 40 40 40 41 41 42 42 42 42 41 39 39 38 38 37 37 37 36 36 35 34 35 35 35 34 34 34 34 35 35 35 35 36 36 37 37 36 37 36 36 36
39 39 39 39 40 40 41 41 42 42 42 41 40 40 40 39 38 38 39 38 37 37 37 37 37 37 37 37 37 37 37 37 38 38 38 39 39 39 39 38 38 39 39
39 38 39 39 40 41 41 41 42 42 43 42 42 41 40 39 39 40 40 40 39 38 38 38 38 38 39 39 39 39 39 40 40 41 41 41 41 41 40 40 39 40 41
38 38 39 39 40 41 41 41 42 43 43 43 43 43 42 42 41 40 41 42 41 41 41 40 40 40 41 41 41 42 42 42 43 43 43 43 44 43 44 44 43 42 42
37 38 39 40 40 40 41 41 41 42 43 43 43 43 44 43 43 42 42 43 43 43 43 44 43 43 44 44 44 44 45 45 45 45 46 46 46 46 46 46 46 46 46
37 38 39 39 40 41 41 41 41 41 43 43 43 43 44 43 44 45 44 45 45 45 46 46 46 46 46 46 47 47 47 47 48 48 48 48 49 48 48 48 48 48 48
36 37 38 40 41 41 41 41 41 42 42 42 42 43 44 44 45 46 47 47 47 47 48 48 49 49 48 49 49 49 50 50 50 50 51 51 51 51 51 50 50 49 49
34 35 38 40 40 41 42 41 42 43 42 42 42 43 44 44 46 47 48 49 50 50 50 50 51 50 50 51 52 52 53 53 53 53 53 53 53 53 53 52 52 51 51
33 34 36 37 38 39 41 41 41 42 43 44 44 45 45 45 46 48 49 49 51 51 51 51 52 52 53 53 54 55 55 56 56 55 55 55 54 54 54 54 54 54 54
34 34 33 35 38 39 40 41 42 42 43 43 44 44 45 46 47 48 49 50 51 51 52 52 53 54 54 55 55 55 55 55 55 55 55 56 56 56 56 55 56 56 55
34 35 35 35 37 38 39 40 42 42 42 43 44 45 46 46 47 48 49 50 51 53 53 53 53 54 55 55 55 55 56 56 56 56 56 56 56 57 57 57 57 57 56
32 33 34 34 36 39 40 41 42 42 43 43 44 45 46 48 48 49 49 50 50 52 53 53 53 54 54 54 55 56 56 56 56 57 57 57 57 58 57 57 57 57 57
32 33 34 34 35 37 40 41 42 43 43 43 43 44 45 47 48 49 49 49 50 51 52 53 53 54 54 54 55 56 56 56 57 58 58 58 58 57 57 57 57 57 57
33 33 34 35 35 36 38 40 41 42 42 43 44 44 44 45 46 48 49 50 50 51 52 53 53 53 53 54 54 55 55 56 56 56 56 56 56 56 56 56 56 56 56
33 34 34 35 36 37 38 40 41 42 41 42 42 43 44 45 46 48 48 49 50 50 51 51 51 52 51 51 52 52 53 53 53 53 53 54 53 54 54 53 54 54 54
34 34 35 36 37 37 38 39 39 40 41 43 42 42 43 44 45 47 48 48 48 49 50 51 51 50 49 48 48 48 49 49 49 49 50 50 51 51 50 51 52 53 53
35 35 36 37 38 38 38 39 40 41 42 42 42 42 43 44 45 47 47 47 47 48 48 48 48 47 46 46 46 47 47 48 48 48 49 49 49 49 50 51 51 52 52
35 36 36 36 37 38 38 39 40 40 41 42 42 42 43 45 46 46 45 46 46 46 46 46 46 45 45 45 45 45 46 46 46 46 47 47 47 48 48 49 50 50 50
36 36 37 37 37 38 39 39 40 40 42 42 42 42 43 44 44 44 45 45 44 44 44 45 44 44 44 44 43 44 45 46 45 45 45 46 46 47 49 49 48 48 48
37 38 38 38 38 39 39 40 40 41 41 42 43 43 43 43 43 44 45 44 43 43 43 43 44 43 43 43 43 44 44 44 44 44 45 46 45 46 46 46 45 45 45
38 38 37 37 38 39 38 39 40 40 40 41 41 41 41 42 42 43 43 42 41 41 41 41 41 42 42 42 42 43 44 44 44 43 43 44 44 44 43 42 43 42 42

GEFSMA_500_meanwind_234.txt.gz
Wind_Speed
31 31 31 31 31 31 31 32 32 32 32 31 31 30 30 29 29 28 27 27 27 27 26 26 26 26 26 25 25 25 25 25 25 25 25 25 26 26 26 26 26 26 26
32 33 33 33 34 34 34 34 34 34 34 33 33 32 32 31 31 30 30 29 29 28 28 28 27 27 27 27 27 27 27 27 27 27 27 27 27 28 28 28 28 28 27
34 34 35 36 36 36 36 36 36 35 35 35 35 34 34 33 33 33 32 32 31 31 30 30 29 29 29 28 28 28 29 29 29 30 30 30 30 29 30 30 30 30 29
35 35 36 37 38 38 38 38 38 38 37 37 37 36 36 36 35 35 35 34 33 33 32 32 32 31 31 31 30 30 31 31 31 32 32 32 32 32 32 32 31 31 31
36 36 37 38 39 39 39 40 39 39 39 39 39 38 38 38 37 36 36 36 35 34 34 33 33 33 33 33 33 32 33 33 34 34 34 34 34 34 34 34 34 33 33
37 38 38 39 40 40 40 40 40 40 40 40 40 39 39 38 38 37 37 36 36 35 35 35 35 35 35 35 34 34 35 35 36 36 36 36 36 36 36 36 36 36 36
37 38 39 40 40 41 41 41 41 40 40 40 41 41 40 39 39 38 38 38 37 37 36 36 37 37 37 36 36 37 37 37 38 38 38 38 38 38 38 38 38 38 38
38 39 39 40 41 42 42 42 42 41 41 41 41 41 41 40 40 40 39 39 39 39 39 39 39 39 39 38 39 39 39 39 40 41 41 41 41 41 41 41 41 40 40
38 39 39 39 40 41 42 42 42 42 42 42 42 43 43 43 41 40 41 41 41 41 41 41 41 41 41 41 41 42 42 42 42 42 43 43 43 43 43 44 44 44 44
38 39 39 40 40 40 41 41 41 42 43 43 44 44 44 44 43 42 41 42 42 43 42 43 43 43 43 44 44 44 44 44 45 45 45 45 46 46 46 46 46 46 46
39 39 39 40 41 41 41 41 42 43 44 45 45 45 44 45 44 44 44 43 43 44 44 44 44 45 46 46 47 47 47 47 48 48 48 48 48 49 49 49 48 48 48
39 39 40 40 41 41 42 43 43 44 44 45 46 46 46 45 45 45 45 45 45 45 45 46 46 47 47 48 49 49 49 50 50 50 51 51 51 51 51 51 50 50 50
38 39 39 40 41 42 43 43 42 43 44 45 46 46 46 47 47 47 46 47 47 47 47 47 48 49 49 50 51 51 52 52 52 52 53 53 53 53 53 53 52 52 52
38 39 39 39 39 41 42 42 42 42 42 43 45 46 46 47 47 47 47 47 48 48 48 48 49 50 51 52 52 53 53 53 53 54 54 55 55 55 55 55 56 55 55
38 38 38 38 38 39 40 41 41 41 42 43 43 45 46 47 47 48 48 48 49 49 49 49 50 51 52 53 54 55 55 55 56 56 56 56 57 57 57 58 58 58 57
37 37 37 36 37 38 39 39 39 40 41 42 43 44 45 46 47 48 48 49 50 50 50 49 50 50 52 54 54 55 56 56 57 58 58 58 59 60 59 58 58 58 58
35 35 35 36 37 38 38 38 38 40 41 42 44 45 45 45 46 47 49 50 51 51 51 51 50 51 53 53 54 55 56 57 58 58 59 59 59 59 58 58 58 58 58
34 34 35 35 36 36 37 37 38 39 40 41 42 44 45 45 45 46 47 48 50 51 52 52 51 51 52 53 54 55 55 56 57 58 58 58 58 58 57 57 57 57 58
33 33 34 35 35 36 36 36 37 38 39 40 42 44 45 46 46 46 47 48 49 51 52 52 51 50 51 52 53 53 54 55 56 56 56 55 56 56 56 56 56 56 56
34 34 34 34 35 35 35 36 37 38 39 40 40 41 43 44 45 46 47 48 48 49 50 50 51 51 51 51 52 52 53 53 53 53 53 53 53 53 53 53 53 53 53
34 35 35 35 35 35 36 36 37 38 38 38 39 40 41 43 45 45 45 45 46 48 49 50 51 52 51 51 51 51 51 50 49 49 49 49 49 49 49 49 49 50 50
35 35 35 36 35 36 37 38 38 38 39 39 40 40 41 42 43 44 45 45 46 48 50 50 51 50 50 50 50 50 49 49 47 46 46 46 46 46 46 47 47 48 48
35 36 36 36 36 36 37 38 39 39 39 39 40 40 41 42 43 44 44 45 47 48 50 50 50 49 49 49 48 47 46 46 45 44 45 44 45 46 46 46 47 47 47
35 36 37 37 37 37 38 38 38 38 39 39 39 40 40 42 43 44 45 45 45 46 46 47 47 46 47 46 44 43 43 43 43 43 44 45 45 46 46 45 46 46 46
35 36 37 37 38 38 39 38 38 38 38 39 40 40 41 42 43 44 45 44 43 43 43 44 44 44 44 42 42 42 42 43 43 43 44 45 45 45 44 45 45 46 45
36 36 35 36 37 38 38 38 38 37 38 39 40 40 41 42 43 43 43 42 41 41 41 41 42 42 41 41 41 42 42 43 43 42 43 44 44 44 43 42 44 44 44